<?xml version="1.0" encoding="UTF-8" standalone="no" ?>
<gpx xmlns="http://www.topografix.com/GPX/1/1" xmlns:xsi="http://www.w3.org/2001/XMLSchema-instance" xsi:schemaLocation="http://www.topografix.com/GPX/1/1 http://www.topografix.com/GPX/1/1/gpx.xsd" version="1.1" creator="VisuGPX - https://www.visugpx.com">
  <metadata>
    <name>BAREGES TOURNABOUP Cabane d'Aygues Cluses 26 FEV 2019</name>
  </metadata>
  <trk>
    <name><![CDATA[TN Cabane d'Aygues Cluses 26 FEV 2019]]></name>
    <extensions>
      <line xmlns="http://www.topografix.com/GPX/gpx_style/0/2">
        <color>0000FF</color>
        <width>4</width>
      </line>
    </extensions>
    <trkseg>
      <trkpt lat="42.90352" lon="0.10024">
        <ele>1442.19</ele>
        <time>2019-02-26T08:30:59Z</time>
      </trkpt>
      <trkpt lat="42.90354" lon="0.10025">
        <ele>1442.11</ele>
        <time>2019-02-26T08:31:09Z</time>
      </trkpt>
      <trkpt lat="42.90355" lon="0.10024">
        <ele>1441.94</ele>
        <time>2019-02-26T08:31:19Z</time>
      </trkpt>
      <trkpt lat="42.90351" lon="0.10033">
        <ele>1442.22</ele>
        <time>2019-02-26T08:31:29Z</time>
      </trkpt>
      <trkpt lat="42.90345" lon="0.10044">
        <ele>1442.98</ele>
        <time>2019-02-26T08:31:39Z</time>
      </trkpt>
      <trkpt lat="42.90338" lon="0.10053">
        <ele>1443.89</ele>
        <time>2019-02-26T08:31:49Z</time>
      </trkpt>
      <trkpt lat="42.90331" lon="0.10063">
        <ele>1444.9</ele>
        <time>2019-02-26T08:31:59Z</time>
      </trkpt>
      <trkpt lat="42.90325" lon="0.10075">
        <ele>1445.85</ele>
        <time>2019-02-26T08:32:09Z</time>
      </trkpt>
      <trkpt lat="42.90322" lon="0.10088">
        <ele>1446.85</ele>
        <time>2019-02-26T08:32:19Z</time>
      </trkpt>
      <trkpt lat="42.90321" lon="0.10102">
        <ele>1446.59</ele>
        <time>2019-02-26T08:32:29Z</time>
      </trkpt>
      <trkpt lat="42.90315" lon="0.10102">
        <ele>1447.42</ele>
        <time>2019-02-26T08:32:39Z</time>
      </trkpt>
      <trkpt lat="42.90311" lon="0.10096">
        <ele>1447.77</ele>
        <time>2019-02-26T08:32:59Z</time>
      </trkpt>
      <trkpt lat="42.90312" lon="0.10096">
        <ele>1447.73</ele>
        <time>2019-02-26T08:33:09Z</time>
      </trkpt>
      <trkpt lat="42.90312" lon="0.10098">
        <ele>1447.92</ele>
        <time>2019-02-26T08:33:19Z</time>
      </trkpt>
      <trkpt lat="42.90312" lon="0.10099">
        <ele>1447.84</ele>
        <time>2019-02-26T08:33:29Z</time>
      </trkpt>
      <trkpt lat="42.90313" lon="0.10099">
        <ele>1447.76</ele>
        <time>2019-02-26T08:33:39Z</time>
      </trkpt>
      <trkpt lat="42.90313" lon="0.101">
        <ele>1447.4</ele>
        <time>2019-02-26T08:33:49Z</time>
      </trkpt>
      <trkpt lat="42.90312" lon="0.10101">
        <ele>1447.8</ele>
        <time>2019-02-26T08:33:59Z</time>
      </trkpt>
      <trkpt lat="42.9031" lon="0.10102">
        <ele>1448.06</ele>
        <time>2019-02-26T08:34:09Z</time>
      </trkpt>
      <trkpt lat="42.90308" lon="0.101">
        <ele>1447.77</ele>
        <time>2019-02-26T08:34:19Z</time>
      </trkpt>
      <trkpt lat="42.90307" lon="0.10096">
        <ele>1447.21</ele>
        <time>2019-02-26T08:34:29Z</time>
      </trkpt>
      <trkpt lat="42.90309" lon="0.10096">
        <ele>1447.52</ele>
        <time>2019-02-26T08:34:39Z</time>
      </trkpt>
      <trkpt lat="42.90307" lon="0.10096">
        <ele>1447.87</ele>
        <time>2019-02-26T08:34:49Z</time>
      </trkpt>
      <trkpt lat="42.90304" lon="0.10098">
        <ele>1447.86</ele>
        <time>2019-02-26T08:34:59Z</time>
      </trkpt>
      <trkpt lat="42.90302" lon="0.10098">
        <ele>1447.98</ele>
        <time>2019-02-26T08:35:09Z</time>
      </trkpt>
      <trkpt lat="42.903" lon="0.10098">
        <ele>1447.99</ele>
        <time>2019-02-26T08:35:19Z</time>
      </trkpt>
      <trkpt lat="42.903" lon="0.10099">
        <ele>1448.49</ele>
        <time>2019-02-26T08:35:29Z</time>
      </trkpt>
      <trkpt lat="42.90301" lon="0.10098">
        <ele>1447.74</ele>
        <time>2019-02-26T08:35:39Z</time>
      </trkpt>
      <trkpt lat="42.90302" lon="0.10098">
        <ele>1449.01</ele>
        <time>2019-02-26T08:35:49Z</time>
      </trkpt>
      <trkpt lat="42.90302" lon="0.10099">
        <ele>1448.95</ele>
        <time>2019-02-26T08:35:59Z</time>
      </trkpt>
      <trkpt lat="42.90306" lon="0.10101">
        <ele>1448.32</ele>
        <time>2019-02-26T08:36:09Z</time>
      </trkpt>
      <trkpt lat="42.90306" lon="0.101">
        <ele>1448.69</ele>
        <time>2019-02-26T08:37:19Z</time>
      </trkpt>
      <trkpt lat="42.90308" lon="0.10092">
        <ele>1448.81</ele>
        <time>2019-02-26T08:37:29Z</time>
      </trkpt>
      <trkpt lat="42.90309" lon="0.10083">
        <ele>1448.64</ele>
        <time>2019-02-26T08:37:39Z</time>
      </trkpt>
      <trkpt lat="42.9031" lon="0.1008">
        <ele>1448.78</ele>
        <time>2019-02-26T08:37:49Z</time>
      </trkpt>
      <trkpt lat="42.90312" lon="0.10071">
        <ele>1448.37</ele>
        <time>2019-02-26T08:37:59Z</time>
      </trkpt>
      <trkpt lat="42.90313" lon="0.10065">
        <ele>1448.37</ele>
        <time>2019-02-26T08:38:09Z</time>
      </trkpt>
      <trkpt lat="42.90315" lon="0.10054">
        <ele>1448.78</ele>
        <time>2019-02-26T08:38:19Z</time>
      </trkpt>
      <trkpt lat="42.90317" lon="0.10042">
        <ele>1448.95</ele>
        <time>2019-02-26T08:38:29Z</time>
      </trkpt>
      <trkpt lat="42.90319" lon="0.10032">
        <ele>1449.27</ele>
        <time>2019-02-26T08:38:39Z</time>
      </trkpt>
      <trkpt lat="42.90324" lon="0.10022">
        <ele>1450.08</ele>
        <time>2019-02-26T08:38:49Z</time>
      </trkpt>
      <trkpt lat="42.90328" lon="0.10013">
        <ele>1451.13</ele>
        <time>2019-02-26T08:38:59Z</time>
      </trkpt>
      <trkpt lat="42.90324" lon="0.1001">
        <ele>1451.49</ele>
        <time>2019-02-26T08:39:09Z</time>
      </trkpt>
      <trkpt lat="42.9032" lon="0.10015">
        <ele>1453.53</ele>
        <time>2019-02-26T08:39:19Z</time>
      </trkpt>
      <trkpt lat="42.9032" lon="0.10018">
        <ele>1452.92</ele>
        <time>2019-02-26T08:39:29Z</time>
      </trkpt>
      <trkpt lat="42.90316" lon="0.10026">
        <ele>1453.55</ele>
        <time>2019-02-26T08:39:39Z</time>
      </trkpt>
      <trkpt lat="42.90313" lon="0.10037">
        <ele>1454.54</ele>
        <time>2019-02-26T08:39:49Z</time>
      </trkpt>
      <trkpt lat="42.90309" lon="0.10047">
        <ele>1455.66</ele>
        <time>2019-02-26T08:39:59Z</time>
      </trkpt>
      <trkpt lat="42.90303" lon="0.10056">
        <ele>1456.64</ele>
        <time>2019-02-26T08:40:09Z</time>
      </trkpt>
      <trkpt lat="42.90298" lon="0.10064">
        <ele>1457.28</ele>
        <time>2019-02-26T08:40:19Z</time>
      </trkpt>
      <trkpt lat="42.90293" lon="0.1007">
        <ele>1458.11</ele>
        <time>2019-02-26T08:40:29Z</time>
      </trkpt>
      <trkpt lat="42.90286" lon="0.10079">
        <ele>1458.75</ele>
        <time>2019-02-26T08:40:39Z</time>
      </trkpt>
      <trkpt lat="42.90282" lon="0.10089">
        <ele>1459.45</ele>
        <time>2019-02-26T08:40:49Z</time>
      </trkpt>
      <trkpt lat="42.90277" lon="0.10098">
        <ele>1460.75</ele>
        <time>2019-02-26T08:40:59Z</time>
      </trkpt>
      <trkpt lat="42.90272" lon="0.10109">
        <ele>1461.57</ele>
        <time>2019-02-26T08:41:09Z</time>
      </trkpt>
      <trkpt lat="42.90267" lon="0.10117">
        <ele>1462.55</ele>
        <time>2019-02-26T08:41:19Z</time>
      </trkpt>
      <trkpt lat="42.90261" lon="0.10125">
        <ele>1463.2</ele>
        <time>2019-02-26T08:41:29Z</time>
      </trkpt>
      <trkpt lat="42.90254" lon="0.10134">
        <ele>1463.96</ele>
        <time>2019-02-26T08:41:39Z</time>
      </trkpt>
      <trkpt lat="42.90248" lon="0.10144">
        <ele>1464.99</ele>
        <time>2019-02-26T08:41:49Z</time>
      </trkpt>
      <trkpt lat="42.90242" lon="0.10154">
        <ele>1465.47</ele>
        <time>2019-02-26T08:41:59Z</time>
      </trkpt>
      <trkpt lat="42.90237" lon="0.10163">
        <ele>1466.02</ele>
        <time>2019-02-26T08:42:09Z</time>
      </trkpt>
      <trkpt lat="42.90232" lon="0.10175">
        <ele>1466.68</ele>
        <time>2019-02-26T08:42:19Z</time>
      </trkpt>
      <trkpt lat="42.90226" lon="0.10185">
        <ele>1467.81</ele>
        <time>2019-02-26T08:42:29Z</time>
      </trkpt>
      <trkpt lat="42.90219" lon="0.10194">
        <ele>1468.41</ele>
        <time>2019-02-26T08:42:39Z</time>
      </trkpt>
      <trkpt lat="42.90213" lon="0.10202">
        <ele>1469.41</ele>
        <time>2019-02-26T08:42:49Z</time>
      </trkpt>
      <trkpt lat="42.90207" lon="0.10211">
        <ele>1470.27</ele>
        <time>2019-02-26T08:42:59Z</time>
      </trkpt>
      <trkpt lat="42.902" lon="0.1022">
        <ele>1471.56</ele>
        <time>2019-02-26T08:43:09Z</time>
      </trkpt>
      <trkpt lat="42.90194" lon="0.10229">
        <ele>1472.24</ele>
        <time>2019-02-26T08:43:19Z</time>
      </trkpt>
      <trkpt lat="42.90188" lon="0.10238">
        <ele>1472.97</ele>
        <time>2019-02-26T08:43:29Z</time>
      </trkpt>
      <trkpt lat="42.90181" lon="0.10246">
        <ele>1473.26</ele>
        <time>2019-02-26T08:43:39Z</time>
      </trkpt>
      <trkpt lat="42.90175" lon="0.1025">
        <ele>1474.01</ele>
        <time>2019-02-26T08:43:49Z</time>
      </trkpt>
      <trkpt lat="42.90168" lon="0.1026">
        <ele>1474.89</ele>
        <time>2019-02-26T08:43:59Z</time>
      </trkpt>
      <trkpt lat="42.9016" lon="0.1027">
        <ele>1476.08</ele>
        <time>2019-02-26T08:44:09Z</time>
      </trkpt>
      <trkpt lat="42.90154" lon="0.10278">
        <ele>1476.94</ele>
        <time>2019-02-26T08:44:19Z</time>
      </trkpt>
      <trkpt lat="42.90147" lon="0.10288">
        <ele>1477.54</ele>
        <time>2019-02-26T08:44:29Z</time>
      </trkpt>
      <trkpt lat="42.90141" lon="0.10294">
        <ele>1478.09</ele>
        <time>2019-02-26T08:44:39Z</time>
      </trkpt>
      <trkpt lat="42.90133" lon="0.10299">
        <ele>1479.11</ele>
        <time>2019-02-26T08:44:49Z</time>
      </trkpt>
      <trkpt lat="42.90124" lon="0.10302">
        <ele>1480.14</ele>
        <time>2019-02-26T08:44:59Z</time>
      </trkpt>
      <trkpt lat="42.90115" lon="0.10302">
        <ele>1480.92</ele>
        <time>2019-02-26T08:45:09Z</time>
      </trkpt>
      <trkpt lat="42.90106" lon="0.10302">
        <ele>1480.89</ele>
        <time>2019-02-26T08:45:19Z</time>
      </trkpt>
      <trkpt lat="42.90098" lon="0.10304">
        <ele>1482.49</ele>
        <time>2019-02-26T08:45:29Z</time>
      </trkpt>
      <trkpt lat="42.9009" lon="0.10307">
        <ele>1482.72</ele>
        <time>2019-02-26T08:45:39Z</time>
      </trkpt>
      <trkpt lat="42.90081" lon="0.1031">
        <ele>1483.3</ele>
        <time>2019-02-26T08:45:49Z</time>
      </trkpt>
      <trkpt lat="42.90072" lon="0.10312">
        <ele>1484.39</ele>
        <time>2019-02-26T08:45:59Z</time>
      </trkpt>
      <trkpt lat="42.90064" lon="0.10315">
        <ele>1485.26</ele>
        <time>2019-02-26T08:46:09Z</time>
      </trkpt>
      <trkpt lat="42.90055" lon="0.1032">
        <ele>1486.17</ele>
        <time>2019-02-26T08:46:19Z</time>
      </trkpt>
      <trkpt lat="42.90046" lon="0.10326">
        <ele>1486.9</ele>
        <time>2019-02-26T08:46:29Z</time>
      </trkpt>
      <trkpt lat="42.90037" lon="0.10329">
        <ele>1487.68</ele>
        <time>2019-02-26T08:46:39Z</time>
      </trkpt>
      <trkpt lat="42.90029" lon="0.10333">
        <ele>1488.24</ele>
        <time>2019-02-26T08:46:49Z</time>
      </trkpt>
      <trkpt lat="42.90022" lon="0.10336">
        <ele>1488.71</ele>
        <time>2019-02-26T08:46:59Z</time>
      </trkpt>
      <trkpt lat="42.90014" lon="0.10333">
        <ele>1489.89</ele>
        <time>2019-02-26T08:47:09Z</time>
      </trkpt>
      <trkpt lat="42.90007" lon="0.10335">
        <ele>1491.13</ele>
        <time>2019-02-26T08:47:19Z</time>
      </trkpt>
      <trkpt lat="42.89999" lon="0.10337">
        <ele>1491.93</ele>
        <time>2019-02-26T08:47:29Z</time>
      </trkpt>
      <trkpt lat="42.8999" lon="0.10341">
        <ele>1492.32</ele>
        <time>2019-02-26T08:47:39Z</time>
      </trkpt>
      <trkpt lat="42.89982" lon="0.10343">
        <ele>1492.7</ele>
        <time>2019-02-26T08:47:49Z</time>
      </trkpt>
      <trkpt lat="42.89973" lon="0.10344">
        <ele>1493.32</ele>
        <time>2019-02-26T08:47:59Z</time>
      </trkpt>
      <trkpt lat="42.89964" lon="0.10347">
        <ele>1494.02</ele>
        <time>2019-02-26T08:48:09Z</time>
      </trkpt>
      <trkpt lat="42.89956" lon="0.10352">
        <ele>1494.9</ele>
        <time>2019-02-26T08:48:19Z</time>
      </trkpt>
      <trkpt lat="42.89946" lon="0.10355">
        <ele>1495.94</ele>
        <time>2019-02-26T08:48:29Z</time>
      </trkpt>
      <trkpt lat="42.89938" lon="0.10364">
        <ele>1496.57</ele>
        <time>2019-02-26T08:48:39Z</time>
      </trkpt>
      <trkpt lat="42.8993" lon="0.10371">
        <ele>1497.29</ele>
        <time>2019-02-26T08:48:49Z</time>
      </trkpt>
      <trkpt lat="42.89922" lon="0.10376">
        <ele>1498.28</ele>
        <time>2019-02-26T08:48:59Z</time>
      </trkpt>
      <trkpt lat="42.89914" lon="0.10378">
        <ele>1498.75</ele>
        <time>2019-02-26T08:49:09Z</time>
      </trkpt>
      <trkpt lat="42.89906" lon="0.10382">
        <ele>1499.68</ele>
        <time>2019-02-26T08:49:19Z</time>
      </trkpt>
      <trkpt lat="42.89898" lon="0.10384">
        <ele>1499.75</ele>
        <time>2019-02-26T08:49:29Z</time>
      </trkpt>
      <trkpt lat="42.89891" lon="0.10388">
        <ele>1500.24</ele>
        <time>2019-02-26T08:49:39Z</time>
      </trkpt>
      <trkpt lat="42.89884" lon="0.10397">
        <ele>1500.91</ele>
        <time>2019-02-26T08:49:49Z</time>
      </trkpt>
      <trkpt lat="42.89876" lon="0.104">
        <ele>1501.93</ele>
        <time>2019-02-26T08:49:59Z</time>
      </trkpt>
      <trkpt lat="42.89868" lon="0.10401">
        <ele>1502.58</ele>
        <time>2019-02-26T08:50:09Z</time>
      </trkpt>
      <trkpt lat="42.8986" lon="0.10404">
        <ele>1503.94</ele>
        <time>2019-02-26T08:50:19Z</time>
      </trkpt>
      <trkpt lat="42.89852" lon="0.10408">
        <ele>1504.42</ele>
        <time>2019-02-26T08:50:29Z</time>
      </trkpt>
      <trkpt lat="42.89843" lon="0.10412">
        <ele>1505.1</ele>
        <time>2019-02-26T08:50:39Z</time>
      </trkpt>
      <trkpt lat="42.89836" lon="0.10419">
        <ele>1506.41</ele>
        <time>2019-02-26T08:50:49Z</time>
      </trkpt>
      <trkpt lat="42.89828" lon="0.10426">
        <ele>1506.86</ele>
        <time>2019-02-26T08:50:59Z</time>
      </trkpt>
      <trkpt lat="42.8982" lon="0.10433">
        <ele>1507.57</ele>
        <time>2019-02-26T08:51:09Z</time>
      </trkpt>
      <trkpt lat="42.89812" lon="0.10438">
        <ele>1508.61</ele>
        <time>2019-02-26T08:51:19Z</time>
      </trkpt>
      <trkpt lat="42.89804" lon="0.10443">
        <ele>1509.8</ele>
        <time>2019-02-26T08:51:29Z</time>
      </trkpt>
      <trkpt lat="42.89797" lon="0.10447">
        <ele>1511.11</ele>
        <time>2019-02-26T08:51:39Z</time>
      </trkpt>
      <trkpt lat="42.89795" lon="0.10449">
        <ele>1510.99</ele>
        <time>2019-02-26T08:51:49Z</time>
      </trkpt>
      <trkpt lat="42.89793" lon="0.1045">
        <ele>1510.82</ele>
        <time>2019-02-26T08:51:59Z</time>
      </trkpt>
      <trkpt lat="42.89789" lon="0.1045">
        <ele>1511.17</ele>
        <time>2019-02-26T08:52:09Z</time>
      </trkpt>
      <trkpt lat="42.89781" lon="0.10448">
        <ele>1511.58</ele>
        <time>2019-02-26T08:52:19Z</time>
      </trkpt>
      <trkpt lat="42.89777" lon="0.10448">
        <ele>1512.66</ele>
        <time>2019-02-26T08:52:29Z</time>
      </trkpt>
      <trkpt lat="42.89776" lon="0.10448">
        <ele>1512.54</ele>
        <time>2019-02-26T08:52:39Z</time>
      </trkpt>
      <trkpt lat="42.89769" lon="0.10455">
        <ele>1512.19</ele>
        <time>2019-02-26T08:52:49Z</time>
      </trkpt>
      <trkpt lat="42.8976" lon="0.10457">
        <ele>1513.24</ele>
        <time>2019-02-26T08:52:59Z</time>
      </trkpt>
      <trkpt lat="42.89751" lon="0.10455">
        <ele>1513.09</ele>
        <time>2019-02-26T08:53:09Z</time>
      </trkpt>
      <trkpt lat="42.89743" lon="0.10454">
        <ele>1514.4</ele>
        <time>2019-02-26T08:53:19Z</time>
      </trkpt>
      <trkpt lat="42.89734" lon="0.10455">
        <ele>1515.52</ele>
        <time>2019-02-26T08:53:29Z</time>
      </trkpt>
      <trkpt lat="42.89726" lon="0.10458">
        <ele>1515.98</ele>
        <time>2019-02-26T08:53:39Z</time>
      </trkpt>
      <trkpt lat="42.89718" lon="0.10462">
        <ele>1516.9</ele>
        <time>2019-02-26T08:53:49Z</time>
      </trkpt>
      <trkpt lat="42.89708" lon="0.10464">
        <ele>1517.44</ele>
        <time>2019-02-26T08:53:59Z</time>
      </trkpt>
      <trkpt lat="42.89699" lon="0.10468">
        <ele>1518.36</ele>
        <time>2019-02-26T08:54:09Z</time>
      </trkpt>
      <trkpt lat="42.8969" lon="0.1047">
        <ele>1519.68</ele>
        <time>2019-02-26T08:54:19Z</time>
      </trkpt>
      <trkpt lat="42.89682" lon="0.10473">
        <ele>1520.38</ele>
        <time>2019-02-26T08:54:29Z</time>
      </trkpt>
      <trkpt lat="42.89675" lon="0.10478">
        <ele>1521.23</ele>
        <time>2019-02-26T08:54:39Z</time>
      </trkpt>
      <trkpt lat="42.89665" lon="0.10479">
        <ele>1521.57</ele>
        <time>2019-02-26T08:54:49Z</time>
      </trkpt>
      <trkpt lat="42.89657" lon="0.1048">
        <ele>1522.7</ele>
        <time>2019-02-26T08:54:59Z</time>
      </trkpt>
      <trkpt lat="42.89649" lon="0.1048">
        <ele>1523.11</ele>
        <time>2019-02-26T08:55:09Z</time>
      </trkpt>
      <trkpt lat="42.89639" lon="0.10476">
        <ele>1524.06</ele>
        <time>2019-02-26T08:55:19Z</time>
      </trkpt>
      <trkpt lat="42.89632" lon="0.10474">
        <ele>1525.03</ele>
        <time>2019-02-26T08:55:29Z</time>
      </trkpt>
      <trkpt lat="42.89624" lon="0.10471">
        <ele>1525.65</ele>
        <time>2019-02-26T08:55:39Z</time>
      </trkpt>
      <trkpt lat="42.89617" lon="0.10469">
        <ele>1525.92</ele>
        <time>2019-02-26T08:55:49Z</time>
      </trkpt>
      <trkpt lat="42.89608" lon="0.10468">
        <ele>1526.35</ele>
        <time>2019-02-26T08:55:59Z</time>
      </trkpt>
      <trkpt lat="42.896" lon="0.10466">
        <ele>1527.57</ele>
        <time>2019-02-26T08:56:09Z</time>
      </trkpt>
      <trkpt lat="42.89593" lon="0.10465">
        <ele>1527.29</ele>
        <time>2019-02-26T08:56:19Z</time>
      </trkpt>
      <trkpt lat="42.89584" lon="0.10466">
        <ele>1528.4</ele>
        <time>2019-02-26T08:56:29Z</time>
      </trkpt>
      <trkpt lat="42.89577" lon="0.10464">
        <ele>1529</ele>
        <time>2019-02-26T08:56:39Z</time>
      </trkpt>
      <trkpt lat="42.8957" lon="0.10459">
        <ele>1529.94</ele>
        <time>2019-02-26T08:56:49Z</time>
      </trkpt>
      <trkpt lat="42.89568" lon="0.10459">
        <ele>1531.07</ele>
        <time>2019-02-26T08:56:59Z</time>
      </trkpt>
      <trkpt lat="42.89567" lon="0.10457">
        <ele>1530.16</ele>
        <time>2019-02-26T08:57:09Z</time>
      </trkpt>
      <trkpt lat="42.8956" lon="0.10455">
        <ele>1530.82</ele>
        <time>2019-02-26T08:57:19Z</time>
      </trkpt>
      <trkpt lat="42.89552" lon="0.10462">
        <ele>1531.04</ele>
        <time>2019-02-26T08:57:29Z</time>
      </trkpt>
      <trkpt lat="42.89547" lon="0.10474">
        <ele>1531.96</ele>
        <time>2019-02-26T08:57:39Z</time>
      </trkpt>
      <trkpt lat="42.89544" lon="0.10484">
        <ele>1532.78</ele>
        <time>2019-02-26T08:57:49Z</time>
      </trkpt>
      <trkpt lat="42.8954" lon="0.10495">
        <ele>1532.97</ele>
        <time>2019-02-26T08:57:59Z</time>
      </trkpt>
      <trkpt lat="42.89535" lon="0.10505">
        <ele>1532.77</ele>
        <time>2019-02-26T08:58:09Z</time>
      </trkpt>
      <trkpt lat="42.89529" lon="0.10514">
        <ele>1533.84</ele>
        <time>2019-02-26T08:58:19Z</time>
      </trkpt>
      <trkpt lat="42.89524" lon="0.10522">
        <ele>1534.96</ele>
        <time>2019-02-26T08:58:29Z</time>
      </trkpt>
      <trkpt lat="42.89518" lon="0.10527">
        <ele>1536.37</ele>
        <time>2019-02-26T08:58:39Z</time>
      </trkpt>
      <trkpt lat="42.89512" lon="0.10533">
        <ele>1537.17</ele>
        <time>2019-02-26T08:58:49Z</time>
      </trkpt>
      <trkpt lat="42.89507" lon="0.10538">
        <ele>1537.7</ele>
        <time>2019-02-26T08:58:59Z</time>
      </trkpt>
      <trkpt lat="42.89502" lon="0.10542">
        <ele>1539.91</ele>
        <time>2019-02-26T08:59:09Z</time>
      </trkpt>
      <trkpt lat="42.89498" lon="0.10542">
        <ele>1540.62</ele>
        <time>2019-02-26T08:59:19Z</time>
      </trkpt>
      <trkpt lat="42.89495" lon="0.10546">
        <ele>1540.83</ele>
        <time>2019-02-26T08:59:29Z</time>
      </trkpt>
      <trkpt lat="42.89489" lon="0.10546">
        <ele>1542.11</ele>
        <time>2019-02-26T08:59:39Z</time>
      </trkpt>
      <trkpt lat="42.89484" lon="0.10548">
        <ele>1544.65</ele>
        <time>2019-02-26T08:59:49Z</time>
      </trkpt>
      <trkpt lat="42.89478" lon="0.10553">
        <ele>1545.57</ele>
        <time>2019-02-26T08:59:59Z</time>
      </trkpt>
      <trkpt lat="42.89478" lon="0.10554">
        <ele>1545.87</ele>
        <time>2019-02-26T09:00:19Z</time>
      </trkpt>
      <trkpt lat="42.89477" lon="0.10553">
        <ele>1545.45</ele>
        <time>2019-02-26T09:00:39Z</time>
      </trkpt>
      <trkpt lat="42.89476" lon="0.10553">
        <ele>1546.15</ele>
        <time>2019-02-26T09:00:49Z</time>
      </trkpt>
      <trkpt lat="42.89476" lon="0.10552">
        <ele>1545.67</ele>
        <time>2019-02-26T09:00:59Z</time>
      </trkpt>
      <trkpt lat="42.89475" lon="0.10552">
        <ele>1545.85</ele>
        <time>2019-02-26T09:01:19Z</time>
      </trkpt>
      <trkpt lat="42.89474" lon="0.10552">
        <ele>1545.05</ele>
        <time>2019-02-26T09:01:39Z</time>
      </trkpt>
      <trkpt lat="42.89475" lon="0.10553">
        <ele>1545.27</ele>
        <time>2019-02-26T09:01:49Z</time>
      </trkpt>
      <trkpt lat="42.89476" lon="0.10554">
        <ele>1544.97</ele>
        <time>2019-02-26T09:02:09Z</time>
      </trkpt>
      <trkpt lat="42.89476" lon="0.10555">
        <ele>1545.07</ele>
        <time>2019-02-26T09:02:39Z</time>
      </trkpt>
      <trkpt lat="42.89477" lon="0.10555">
        <ele>1545.33</ele>
        <time>2019-02-26T09:02:59Z</time>
      </trkpt>
      <trkpt lat="42.89476" lon="0.10556">
        <ele>1544.19</ele>
        <time>2019-02-26T09:03:59Z</time>
      </trkpt>
      <trkpt lat="42.89475" lon="0.10555">
        <ele>1545.43</ele>
        <time>2019-02-26T09:04:39Z</time>
      </trkpt>
      <trkpt lat="42.89475" lon="0.10556">
        <ele>1545.63</ele>
        <time>2019-02-26T09:04:49Z</time>
      </trkpt>
      <trkpt lat="42.89472" lon="0.1056">
        <ele>1545.33</ele>
        <time>2019-02-26T09:04:59Z</time>
      </trkpt>
      <trkpt lat="42.89467" lon="0.10565">
        <ele>1546.34</ele>
        <time>2019-02-26T09:05:09Z</time>
      </trkpt>
      <trkpt lat="42.89464" lon="0.10568">
        <ele>1547.06</ele>
        <time>2019-02-26T09:05:19Z</time>
      </trkpt>
      <trkpt lat="42.89457" lon="0.10571">
        <ele>1549.05</ele>
        <time>2019-02-26T09:05:29Z</time>
      </trkpt>
      <trkpt lat="42.89451" lon="0.10576">
        <ele>1550.26</ele>
        <time>2019-02-26T09:05:39Z</time>
      </trkpt>
      <trkpt lat="42.89447" lon="0.10581">
        <ele>1550.9</ele>
        <time>2019-02-26T09:05:49Z</time>
      </trkpt>
      <trkpt lat="42.89442" lon="0.10586">
        <ele>1551.93</ele>
        <time>2019-02-26T09:05:59Z</time>
      </trkpt>
      <trkpt lat="42.89437" lon="0.10589">
        <ele>1552.9</ele>
        <time>2019-02-26T09:06:09Z</time>
      </trkpt>
      <trkpt lat="42.89432" lon="0.10592">
        <ele>1554.36</ele>
        <time>2019-02-26T09:06:19Z</time>
      </trkpt>
      <trkpt lat="42.89427" lon="0.10598">
        <ele>1554.71</ele>
        <time>2019-02-26T09:06:29Z</time>
      </trkpt>
      <trkpt lat="42.89424" lon="0.106">
        <ele>1555.16</ele>
        <time>2019-02-26T09:06:39Z</time>
      </trkpt>
      <trkpt lat="42.89418" lon="0.10599">
        <ele>1557.34</ele>
        <time>2019-02-26T09:06:49Z</time>
      </trkpt>
      <trkpt lat="42.89413" lon="0.106">
        <ele>1559.14</ele>
        <time>2019-02-26T09:06:59Z</time>
      </trkpt>
      <trkpt lat="42.89409" lon="0.10605">
        <ele>1560.12</ele>
        <time>2019-02-26T09:07:09Z</time>
      </trkpt>
      <trkpt lat="42.89403" lon="0.10607">
        <ele>1561.34</ele>
        <time>2019-02-26T09:07:19Z</time>
      </trkpt>
      <trkpt lat="42.89395" lon="0.10606">
        <ele>1562.97</ele>
        <time>2019-02-26T09:07:29Z</time>
      </trkpt>
      <trkpt lat="42.89388" lon="0.10605">
        <ele>1563.5</ele>
        <time>2019-02-26T09:07:39Z</time>
      </trkpt>
      <trkpt lat="42.89384" lon="0.10608">
        <ele>1564.94</ele>
        <time>2019-02-26T09:07:49Z</time>
      </trkpt>
      <trkpt lat="42.89378" lon="0.1061">
        <ele>1566.28</ele>
        <time>2019-02-26T09:07:59Z</time>
      </trkpt>
      <trkpt lat="42.89372" lon="0.10611">
        <ele>1567.85</ele>
        <time>2019-02-26T09:08:09Z</time>
      </trkpt>
      <trkpt lat="42.89367" lon="0.10613">
        <ele>1569.39</ele>
        <time>2019-02-26T09:08:19Z</time>
      </trkpt>
      <trkpt lat="42.8936" lon="0.10613">
        <ele>1570.1</ele>
        <time>2019-02-26T09:08:29Z</time>
      </trkpt>
      <trkpt lat="42.89355" lon="0.10615">
        <ele>1571.27</ele>
        <time>2019-02-26T09:08:39Z</time>
      </trkpt>
      <trkpt lat="42.89348" lon="0.10615">
        <ele>1572.24</ele>
        <time>2019-02-26T09:08:49Z</time>
      </trkpt>
      <trkpt lat="42.89343" lon="0.10615">
        <ele>1573.14</ele>
        <time>2019-02-26T09:08:59Z</time>
      </trkpt>
      <trkpt lat="42.89339" lon="0.10617">
        <ele>1575.05</ele>
        <time>2019-02-26T09:09:09Z</time>
      </trkpt>
      <trkpt lat="42.89334" lon="0.10618">
        <ele>1576.81</ele>
        <time>2019-02-26T09:09:19Z</time>
      </trkpt>
      <trkpt lat="42.89327" lon="0.10619">
        <ele>1577.75</ele>
        <time>2019-02-26T09:09:29Z</time>
      </trkpt>
      <trkpt lat="42.8932" lon="0.10619">
        <ele>1578.48</ele>
        <time>2019-02-26T09:09:39Z</time>
      </trkpt>
      <trkpt lat="42.89314" lon="0.10619">
        <ele>1579.31</ele>
        <time>2019-02-26T09:09:49Z</time>
      </trkpt>
      <trkpt lat="42.89309" lon="0.1062">
        <ele>1580.96</ele>
        <time>2019-02-26T09:09:59Z</time>
      </trkpt>
      <trkpt lat="42.89304" lon="0.10621">
        <ele>1582.2</ele>
        <time>2019-02-26T09:10:09Z</time>
      </trkpt>
      <trkpt lat="42.89298" lon="0.10621">
        <ele>1583.86</ele>
        <time>2019-02-26T09:10:19Z</time>
      </trkpt>
      <trkpt lat="42.89291" lon="0.10621">
        <ele>1585.36</ele>
        <time>2019-02-26T09:10:29Z</time>
      </trkpt>
      <trkpt lat="42.89286" lon="0.10621">
        <ele>1586.35</ele>
        <time>2019-02-26T09:10:39Z</time>
      </trkpt>
      <trkpt lat="42.89282" lon="0.10622">
        <ele>1587.61</ele>
        <time>2019-02-26T09:10:49Z</time>
      </trkpt>
      <trkpt lat="42.89276" lon="0.10623">
        <ele>1589.24</ele>
        <time>2019-02-26T09:10:59Z</time>
      </trkpt>
      <trkpt lat="42.89269" lon="0.10624">
        <ele>1590.55</ele>
        <time>2019-02-26T09:11:09Z</time>
      </trkpt>
      <trkpt lat="42.89263" lon="0.10625">
        <ele>1591.25</ele>
        <time>2019-02-26T09:11:19Z</time>
      </trkpt>
      <trkpt lat="42.89258" lon="0.10626">
        <ele>1592.15</ele>
        <time>2019-02-26T09:11:29Z</time>
      </trkpt>
      <trkpt lat="42.89251" lon="0.10626">
        <ele>1593.36</ele>
        <time>2019-02-26T09:11:39Z</time>
      </trkpt>
      <trkpt lat="42.89244" lon="0.10627">
        <ele>1594.75</ele>
        <time>2019-02-26T09:11:49Z</time>
      </trkpt>
      <trkpt lat="42.89237" lon="0.10629">
        <ele>1595.75</ele>
        <time>2019-02-26T09:11:59Z</time>
      </trkpt>
      <trkpt lat="42.89231" lon="0.10629">
        <ele>1596.59</ele>
        <time>2019-02-26T09:12:09Z</time>
      </trkpt>
      <trkpt lat="42.89225" lon="0.10631">
        <ele>1597.72</ele>
        <time>2019-02-26T09:12:19Z</time>
      </trkpt>
      <trkpt lat="42.89219" lon="0.10633">
        <ele>1599.03</ele>
        <time>2019-02-26T09:12:29Z</time>
      </trkpt>
      <trkpt lat="42.89214" lon="0.10634">
        <ele>1600.13</ele>
        <time>2019-02-26T09:12:39Z</time>
      </trkpt>
      <trkpt lat="42.89209" lon="0.10635">
        <ele>1600.67</ele>
        <time>2019-02-26T09:12:49Z</time>
      </trkpt>
      <trkpt lat="42.89203" lon="0.10637">
        <ele>1602.5</ele>
        <time>2019-02-26T09:12:59Z</time>
      </trkpt>
      <trkpt lat="42.89197" lon="0.10639">
        <ele>1603.28</ele>
        <time>2019-02-26T09:13:09Z</time>
      </trkpt>
      <trkpt lat="42.89192" lon="0.1064">
        <ele>1604.13</ele>
        <time>2019-02-26T09:13:19Z</time>
      </trkpt>
      <trkpt lat="42.89187" lon="0.10642">
        <ele>1606.09</ele>
        <time>2019-02-26T09:13:29Z</time>
      </trkpt>
      <trkpt lat="42.89182" lon="0.10645">
        <ele>1606.52</ele>
        <time>2019-02-26T09:13:39Z</time>
      </trkpt>
      <trkpt lat="42.89176" lon="0.10648">
        <ele>1608.31</ele>
        <time>2019-02-26T09:13:49Z</time>
      </trkpt>
      <trkpt lat="42.89171" lon="0.1065">
        <ele>1609.46</ele>
        <time>2019-02-26T09:13:59Z</time>
      </trkpt>
      <trkpt lat="42.89166" lon="0.10651">
        <ele>1610.4</ele>
        <time>2019-02-26T09:14:09Z</time>
      </trkpt>
      <trkpt lat="42.8916" lon="0.10654">
        <ele>1611.6</ele>
        <time>2019-02-26T09:14:19Z</time>
      </trkpt>
      <trkpt lat="42.89154" lon="0.10656">
        <ele>1612.77</ele>
        <time>2019-02-26T09:14:29Z</time>
      </trkpt>
      <trkpt lat="42.8915" lon="0.10659">
        <ele>1614.08</ele>
        <time>2019-02-26T09:14:39Z</time>
      </trkpt>
      <trkpt lat="42.89144" lon="0.10661">
        <ele>1615.14</ele>
        <time>2019-02-26T09:14:49Z</time>
      </trkpt>
      <trkpt lat="42.89139" lon="0.10663">
        <ele>1616.7</ele>
        <time>2019-02-26T09:14:59Z</time>
      </trkpt>
      <trkpt lat="42.89134" lon="0.10667">
        <ele>1617.5</ele>
        <time>2019-02-26T09:15:09Z</time>
      </trkpt>
      <trkpt lat="42.89129" lon="0.10671">
        <ele>1618.46</ele>
        <time>2019-02-26T09:15:19Z</time>
      </trkpt>
      <trkpt lat="42.89125" lon="0.10676">
        <ele>1619.15</ele>
        <time>2019-02-26T09:15:29Z</time>
      </trkpt>
      <trkpt lat="42.89121" lon="0.10682">
        <ele>1620.26</ele>
        <time>2019-02-26T09:15:39Z</time>
      </trkpt>
      <trkpt lat="42.89118" lon="0.10687">
        <ele>1621.64</ele>
        <time>2019-02-26T09:15:49Z</time>
      </trkpt>
      <trkpt lat="42.89115" lon="0.10691">
        <ele>1623.24</ele>
        <time>2019-02-26T09:15:59Z</time>
      </trkpt>
      <trkpt lat="42.89113" lon="0.10694">
        <ele>1623.92</ele>
        <time>2019-02-26T09:16:09Z</time>
      </trkpt>
      <trkpt lat="42.8911" lon="0.10696">
        <ele>1625.48</ele>
        <time>2019-02-26T09:16:19Z</time>
      </trkpt>
      <trkpt lat="42.89108" lon="0.10698">
        <ele>1626.81</ele>
        <time>2019-02-26T09:16:29Z</time>
      </trkpt>
      <trkpt lat="42.89105" lon="0.10701">
        <ele>1628.23</ele>
        <time>2019-02-26T09:16:39Z</time>
      </trkpt>
      <trkpt lat="42.89105" lon="0.10704">
        <ele>1629.96</ele>
        <time>2019-02-26T09:16:49Z</time>
      </trkpt>
      <trkpt lat="42.89103" lon="0.10711">
        <ele>1630.99</ele>
        <time>2019-02-26T09:16:59Z</time>
      </trkpt>
      <trkpt lat="42.89101" lon="0.10714">
        <ele>1632.89</ele>
        <time>2019-02-26T09:17:09Z</time>
      </trkpt>
      <trkpt lat="42.891" lon="0.10716">
        <ele>1633.36</ele>
        <time>2019-02-26T09:17:19Z</time>
      </trkpt>
      <trkpt lat="42.89096" lon="0.10719">
        <ele>1635.47</ele>
        <time>2019-02-26T09:17:29Z</time>
      </trkpt>
      <trkpt lat="42.89093" lon="0.10721">
        <ele>1637.05</ele>
        <time>2019-02-26T09:17:39Z</time>
      </trkpt>
      <trkpt lat="42.89087" lon="0.1072">
        <ele>1637.81</ele>
        <time>2019-02-26T09:17:49Z</time>
      </trkpt>
      <trkpt lat="42.89086" lon="0.10722">
        <ele>1637.8</ele>
        <time>2019-02-26T09:17:59Z</time>
      </trkpt>
      <trkpt lat="42.89082" lon="0.10721">
        <ele>1638.36</ele>
        <time>2019-02-26T09:18:09Z</time>
      </trkpt>
      <trkpt lat="42.89082" lon="0.1072">
        <ele>1637.62</ele>
        <time>2019-02-26T09:18:19Z</time>
      </trkpt>
      <trkpt lat="42.89083" lon="0.1072">
        <ele>1637.4</ele>
        <time>2019-02-26T09:18:29Z</time>
      </trkpt>
      <trkpt lat="42.89084" lon="0.10721">
        <ele>1638.03</ele>
        <time>2019-02-26T09:18:39Z</time>
      </trkpt>
      <trkpt lat="42.89082" lon="0.10721">
        <ele>1638.03</ele>
        <time>2019-02-26T09:18:49Z</time>
      </trkpt>
      <trkpt lat="42.89079" lon="0.10722">
        <ele>1638.53</ele>
        <time>2019-02-26T09:18:59Z</time>
      </trkpt>
      <trkpt lat="42.89073" lon="0.10727">
        <ele>1639.8</ele>
        <time>2019-02-26T09:19:09Z</time>
      </trkpt>
      <trkpt lat="42.89071" lon="0.1073">
        <ele>1640.85</ele>
        <time>2019-02-26T09:19:19Z</time>
      </trkpt>
      <trkpt lat="42.89071" lon="0.10729">
        <ele>1641.09</ele>
        <time>2019-02-26T09:19:29Z</time>
      </trkpt>
      <trkpt lat="42.8907" lon="0.10729">
        <ele>1641.26</ele>
        <time>2019-02-26T09:20:59Z</time>
      </trkpt>
      <trkpt lat="42.89069" lon="0.1073">
        <ele>1640.93</ele>
        <time>2019-02-26T09:22:19Z</time>
      </trkpt>
      <trkpt lat="42.89068" lon="0.1073">
        <ele>1641.15</ele>
        <time>2019-02-26T09:23:09Z</time>
      </trkpt>
      <trkpt lat="42.89069" lon="0.1073">
        <ele>1640.52</ele>
        <time>2019-02-26T09:23:19Z</time>
      </trkpt>
      <trkpt lat="42.89069" lon="0.10731">
        <ele>1640.82</ele>
        <time>2019-02-26T09:23:29Z</time>
      </trkpt>
      <trkpt lat="42.89068" lon="0.10731">
        <ele>1640.58</ele>
        <time>2019-02-26T09:23:39Z</time>
      </trkpt>
      <trkpt lat="42.89068" lon="0.1073">
        <ele>1640.52</ele>
        <time>2019-02-26T09:23:49Z</time>
      </trkpt>
      <trkpt lat="42.89062" lon="0.10731">
        <ele>1640.46</ele>
        <time>2019-02-26T09:23:59Z</time>
      </trkpt>
      <trkpt lat="42.89058" lon="0.10738">
        <ele>1641.08</ele>
        <time>2019-02-26T09:24:09Z</time>
      </trkpt>
      <trkpt lat="42.89052" lon="0.10743">
        <ele>1642.37</ele>
        <time>2019-02-26T09:24:19Z</time>
      </trkpt>
      <trkpt lat="42.89045" lon="0.10746">
        <ele>1642.51</ele>
        <time>2019-02-26T09:24:29Z</time>
      </trkpt>
      <trkpt lat="42.89036" lon="0.10748">
        <ele>1644.22</ele>
        <time>2019-02-26T09:24:39Z</time>
      </trkpt>
      <trkpt lat="42.89027" lon="0.10748">
        <ele>1644.64</ele>
        <time>2019-02-26T09:24:49Z</time>
      </trkpt>
      <trkpt lat="42.89018" lon="0.10747">
        <ele>1645.29</ele>
        <time>2019-02-26T09:24:59Z</time>
      </trkpt>
      <trkpt lat="42.89009" lon="0.10747">
        <ele>1646.17</ele>
        <time>2019-02-26T09:25:09Z</time>
      </trkpt>
      <trkpt lat="42.89" lon="0.10747">
        <ele>1647.5</ele>
        <time>2019-02-26T09:25:19Z</time>
      </trkpt>
      <trkpt lat="42.88993" lon="0.10746">
        <ele>1648.21</ele>
        <time>2019-02-26T09:25:29Z</time>
      </trkpt>
      <trkpt lat="42.88985" lon="0.10745">
        <ele>1649</ele>
        <time>2019-02-26T09:25:39Z</time>
      </trkpt>
      <trkpt lat="42.88977" lon="0.10743">
        <ele>1649.26</ele>
        <time>2019-02-26T09:25:49Z</time>
      </trkpt>
      <trkpt lat="42.88971" lon="0.10742">
        <ele>1650.14</ele>
        <time>2019-02-26T09:25:59Z</time>
      </trkpt>
      <trkpt lat="42.88963" lon="0.10742">
        <ele>1651.18</ele>
        <time>2019-02-26T09:26:09Z</time>
      </trkpt>
      <trkpt lat="42.88956" lon="0.10743">
        <ele>1652.32</ele>
        <time>2019-02-26T09:26:19Z</time>
      </trkpt>
      <trkpt lat="42.88949" lon="0.10744">
        <ele>1652.69</ele>
        <time>2019-02-26T09:26:29Z</time>
      </trkpt>
      <trkpt lat="42.88942" lon="0.10747">
        <ele>1653.08</ele>
        <time>2019-02-26T09:26:39Z</time>
      </trkpt>
      <trkpt lat="42.88936" lon="0.1075">
        <ele>1654.28</ele>
        <time>2019-02-26T09:26:49Z</time>
      </trkpt>
      <trkpt lat="42.88931" lon="0.10756">
        <ele>1655.64</ele>
        <time>2019-02-26T09:26:59Z</time>
      </trkpt>
      <trkpt lat="42.88923" lon="0.10761">
        <ele>1656.42</ele>
        <time>2019-02-26T09:27:09Z</time>
      </trkpt>
      <trkpt lat="42.88916" lon="0.10765">
        <ele>1656.52</ele>
        <time>2019-02-26T09:27:19Z</time>
      </trkpt>
      <trkpt lat="42.88909" lon="0.1077">
        <ele>1657.59</ele>
        <time>2019-02-26T09:27:29Z</time>
      </trkpt>
      <trkpt lat="42.88902" lon="0.10776">
        <ele>1657.77</ele>
        <time>2019-02-26T09:27:39Z</time>
      </trkpt>
      <trkpt lat="42.88895" lon="0.10782">
        <ele>1658.23</ele>
        <time>2019-02-26T09:27:49Z</time>
      </trkpt>
      <trkpt lat="42.88888" lon="0.10787">
        <ele>1658.81</ele>
        <time>2019-02-26T09:27:59Z</time>
      </trkpt>
      <trkpt lat="42.88881" lon="0.10793">
        <ele>1659.66</ele>
        <time>2019-02-26T09:28:09Z</time>
      </trkpt>
      <trkpt lat="42.88874" lon="0.10795">
        <ele>1660.99</ele>
        <time>2019-02-26T09:28:19Z</time>
      </trkpt>
      <trkpt lat="42.88866" lon="0.10796">
        <ele>1661.63</ele>
        <time>2019-02-26T09:28:29Z</time>
      </trkpt>
      <trkpt lat="42.88855" lon="0.10798">
        <ele>1661.63</ele>
        <time>2019-02-26T09:28:39Z</time>
      </trkpt>
      <trkpt lat="42.88848" lon="0.10801">
        <ele>1663.2</ele>
        <time>2019-02-26T09:28:49Z</time>
      </trkpt>
      <trkpt lat="42.8884" lon="0.10805">
        <ele>1663.72</ele>
        <time>2019-02-26T09:28:59Z</time>
      </trkpt>
      <trkpt lat="42.88833" lon="0.10808">
        <ele>1663.89</ele>
        <time>2019-02-26T09:29:09Z</time>
      </trkpt>
      <trkpt lat="42.88825" lon="0.10812">
        <ele>1665.38</ele>
        <time>2019-02-26T09:29:19Z</time>
      </trkpt>
      <trkpt lat="42.88818" lon="0.10814">
        <ele>1666.53</ele>
        <time>2019-02-26T09:29:29Z</time>
      </trkpt>
      <trkpt lat="42.88812" lon="0.10817">
        <ele>1667.97</ele>
        <time>2019-02-26T09:29:39Z</time>
      </trkpt>
      <trkpt lat="42.88807" lon="0.1082">
        <ele>1668.49</ele>
        <time>2019-02-26T09:29:49Z</time>
      </trkpt>
      <trkpt lat="42.88803" lon="0.10823">
        <ele>1669.49</ele>
        <time>2019-02-26T09:29:59Z</time>
      </trkpt>
      <trkpt lat="42.88795" lon="0.10827">
        <ele>1670.4</ele>
        <time>2019-02-26T09:30:09Z</time>
      </trkpt>
      <trkpt lat="42.88788" lon="0.10829">
        <ele>1670.47</ele>
        <time>2019-02-26T09:30:19Z</time>
      </trkpt>
      <trkpt lat="42.88781" lon="0.1083">
        <ele>1671.47</ele>
        <time>2019-02-26T09:30:29Z</time>
      </trkpt>
      <trkpt lat="42.88775" lon="0.10833">
        <ele>1673.11</ele>
        <time>2019-02-26T09:30:39Z</time>
      </trkpt>
      <trkpt lat="42.88766" lon="0.10836">
        <ele>1673.63</ele>
        <time>2019-02-26T09:30:49Z</time>
      </trkpt>
      <trkpt lat="42.88758" lon="0.10837">
        <ele>1674.72</ele>
        <time>2019-02-26T09:30:59Z</time>
      </trkpt>
      <trkpt lat="42.8875" lon="0.10838">
        <ele>1675.73</ele>
        <time>2019-02-26T09:31:09Z</time>
      </trkpt>
      <trkpt lat="42.88742" lon="0.10838">
        <ele>1676.74</ele>
        <time>2019-02-26T09:31:19Z</time>
      </trkpt>
      <trkpt lat="42.88735" lon="0.10838">
        <ele>1677.27</ele>
        <time>2019-02-26T09:31:29Z</time>
      </trkpt>
      <trkpt lat="42.88729" lon="0.10838">
        <ele>1678.51</ele>
        <time>2019-02-26T09:31:39Z</time>
      </trkpt>
      <trkpt lat="42.88728" lon="0.10838">
        <ele>1678.15</ele>
        <time>2019-02-26T09:31:49Z</time>
      </trkpt>
      <trkpt lat="42.88724" lon="0.10836">
        <ele>1678.79</ele>
        <time>2019-02-26T09:31:59Z</time>
      </trkpt>
      <trkpt lat="42.88722" lon="0.10837">
        <ele>1679.37</ele>
        <time>2019-02-26T09:32:09Z</time>
      </trkpt>
      <trkpt lat="42.88716" lon="0.10838">
        <ele>1680.08</ele>
        <time>2019-02-26T09:32:19Z</time>
      </trkpt>
      <trkpt lat="42.88709" lon="0.10838">
        <ele>1680.62</ele>
        <time>2019-02-26T09:32:29Z</time>
      </trkpt>
      <trkpt lat="42.88701" lon="0.1084">
        <ele>1682.59</ele>
        <time>2019-02-26T09:32:39Z</time>
      </trkpt>
      <trkpt lat="42.88694" lon="0.10841">
        <ele>1683.15</ele>
        <time>2019-02-26T09:32:49Z</time>
      </trkpt>
      <trkpt lat="42.88686" lon="0.10841">
        <ele>1683.93</ele>
        <time>2019-02-26T09:32:59Z</time>
      </trkpt>
      <trkpt lat="42.88679" lon="0.10842">
        <ele>1684.88</ele>
        <time>2019-02-26T09:33:09Z</time>
      </trkpt>
      <trkpt lat="42.88673" lon="0.10843">
        <ele>1686.35</ele>
        <time>2019-02-26T09:33:19Z</time>
      </trkpt>
      <trkpt lat="42.88667" lon="0.10844">
        <ele>1687.07</ele>
        <time>2019-02-26T09:33:29Z</time>
      </trkpt>
      <trkpt lat="42.88661" lon="0.10843">
        <ele>1687.7</ele>
        <time>2019-02-26T09:33:39Z</time>
      </trkpt>
      <trkpt lat="42.88656" lon="0.1084">
        <ele>1689.03</ele>
        <time>2019-02-26T09:33:49Z</time>
      </trkpt>
      <trkpt lat="42.8865" lon="0.1084">
        <ele>1689.64</ele>
        <time>2019-02-26T09:33:59Z</time>
      </trkpt>
      <trkpt lat="42.88646" lon="0.1084">
        <ele>1691.54</ele>
        <time>2019-02-26T09:34:09Z</time>
      </trkpt>
      <trkpt lat="42.88641" lon="0.10841">
        <ele>1692.21</ele>
        <time>2019-02-26T09:34:19Z</time>
      </trkpt>
      <trkpt lat="42.88637" lon="0.10842">
        <ele>1693.73</ele>
        <time>2019-02-26T09:34:29Z</time>
      </trkpt>
      <trkpt lat="42.88633" lon="0.10843">
        <ele>1694.8</ele>
        <time>2019-02-26T09:34:39Z</time>
      </trkpt>
      <trkpt lat="42.88628" lon="0.10844">
        <ele>1695.26</ele>
        <time>2019-02-26T09:34:49Z</time>
      </trkpt>
      <trkpt lat="42.88626" lon="0.10845">
        <ele>1696.63</ele>
        <time>2019-02-26T09:34:59Z</time>
      </trkpt>
      <trkpt lat="42.88623" lon="0.10846">
        <ele>1697.38</ele>
        <time>2019-02-26T09:35:09Z</time>
      </trkpt>
      <trkpt lat="42.88616" lon="0.10846">
        <ele>1698.77</ele>
        <time>2019-02-26T09:35:19Z</time>
      </trkpt>
      <trkpt lat="42.88612" lon="0.10847">
        <ele>1699.52</ele>
        <time>2019-02-26T09:35:29Z</time>
      </trkpt>
      <trkpt lat="42.88607" lon="0.10848">
        <ele>1699.93</ele>
        <time>2019-02-26T09:35:39Z</time>
      </trkpt>
      <trkpt lat="42.88603" lon="0.1085">
        <ele>1700.84</ele>
        <time>2019-02-26T09:35:49Z</time>
      </trkpt>
      <trkpt lat="42.88599" lon="0.1085">
        <ele>1702.08</ele>
        <time>2019-02-26T09:35:59Z</time>
      </trkpt>
      <trkpt lat="42.88597" lon="0.1085">
        <ele>1702.74</ele>
        <time>2019-02-26T09:36:09Z</time>
      </trkpt>
      <trkpt lat="42.88596" lon="0.1085">
        <ele>1702.65</ele>
        <time>2019-02-26T09:36:19Z</time>
      </trkpt>
      <trkpt lat="42.8859" lon="0.10854">
        <ele>1703.55</ele>
        <time>2019-02-26T09:36:29Z</time>
      </trkpt>
      <trkpt lat="42.88584" lon="0.10857">
        <ele>1705.3</ele>
        <time>2019-02-26T09:36:39Z</time>
      </trkpt>
      <trkpt lat="42.88578" lon="0.10861">
        <ele>1705.56</ele>
        <time>2019-02-26T09:36:49Z</time>
      </trkpt>
      <trkpt lat="42.88572" lon="0.10865">
        <ele>1706.66</ele>
        <time>2019-02-26T09:36:59Z</time>
      </trkpt>
      <trkpt lat="42.88568" lon="0.10868">
        <ele>1707.93</ele>
        <time>2019-02-26T09:37:09Z</time>
      </trkpt>
      <trkpt lat="42.88564" lon="0.10873">
        <ele>1709.95</ele>
        <time>2019-02-26T09:37:19Z</time>
      </trkpt>
      <trkpt lat="42.88561" lon="0.10876">
        <ele>1710.43</ele>
        <time>2019-02-26T09:37:29Z</time>
      </trkpt>
      <trkpt lat="42.8856" lon="0.10876">
        <ele>1710.64</ele>
        <time>2019-02-26T09:37:39Z</time>
      </trkpt>
      <trkpt lat="42.88556" lon="0.10879">
        <ele>1711.4</ele>
        <time>2019-02-26T09:37:49Z</time>
      </trkpt>
      <trkpt lat="42.88551" lon="0.10882">
        <ele>1712.39</ele>
        <time>2019-02-26T09:37:59Z</time>
      </trkpt>
      <trkpt lat="42.88546" lon="0.10888">
        <ele>1712.48</ele>
        <time>2019-02-26T09:38:09Z</time>
      </trkpt>
      <trkpt lat="42.88542" lon="0.10894">
        <ele>1714.24</ele>
        <time>2019-02-26T09:38:19Z</time>
      </trkpt>
      <trkpt lat="42.88538" lon="0.109">
        <ele>1713.81</ele>
        <time>2019-02-26T09:38:29Z</time>
      </trkpt>
      <trkpt lat="42.88538" lon="0.10899">
        <ele>1714.62</ele>
        <time>2019-02-26T09:38:49Z</time>
      </trkpt>
      <trkpt lat="42.88533" lon="0.10902">
        <ele>1715.57</ele>
        <time>2019-02-26T09:38:59Z</time>
      </trkpt>
      <trkpt lat="42.88527" lon="0.10909">
        <ele>1716.07</ele>
        <time>2019-02-26T09:39:09Z</time>
      </trkpt>
      <trkpt lat="42.88522" lon="0.10916">
        <ele>1716.38</ele>
        <time>2019-02-26T09:39:19Z</time>
      </trkpt>
      <trkpt lat="42.88518" lon="0.10923">
        <ele>1717.59</ele>
        <time>2019-02-26T09:39:29Z</time>
      </trkpt>
      <trkpt lat="42.88513" lon="0.10931">
        <ele>1717.87</ele>
        <time>2019-02-26T09:39:39Z</time>
      </trkpt>
      <trkpt lat="42.88508" lon="0.10939">
        <ele>1718.25</ele>
        <time>2019-02-26T09:39:49Z</time>
      </trkpt>
      <trkpt lat="42.88504" lon="0.10946">
        <ele>1719.44</ele>
        <time>2019-02-26T09:39:59Z</time>
      </trkpt>
      <trkpt lat="42.88499" lon="0.10953">
        <ele>1720.16</ele>
        <time>2019-02-26T09:40:09Z</time>
      </trkpt>
      <trkpt lat="42.88494" lon="0.10961">
        <ele>1720.61</ele>
        <time>2019-02-26T09:40:19Z</time>
      </trkpt>
      <trkpt lat="42.8849" lon="0.10969">
        <ele>1721.57</ele>
        <time>2019-02-26T09:40:29Z</time>
      </trkpt>
      <trkpt lat="42.88486" lon="0.10976">
        <ele>1721.96</ele>
        <time>2019-02-26T09:40:39Z</time>
      </trkpt>
      <trkpt lat="42.88483" lon="0.10983">
        <ele>1723.21</ele>
        <time>2019-02-26T09:40:49Z</time>
      </trkpt>
      <trkpt lat="42.88481" lon="0.10992">
        <ele>1723.97</ele>
        <time>2019-02-26T09:40:59Z</time>
      </trkpt>
      <trkpt lat="42.88479" lon="0.11">
        <ele>1725.15</ele>
        <time>2019-02-26T09:41:09Z</time>
      </trkpt>
      <trkpt lat="42.88474" lon="0.11005">
        <ele>1725.11</ele>
        <time>2019-02-26T09:41:19Z</time>
      </trkpt>
      <trkpt lat="42.88469" lon="0.11009">
        <ele>1725.75</ele>
        <time>2019-02-26T09:41:29Z</time>
      </trkpt>
      <trkpt lat="42.88468" lon="0.1101">
        <ele>1724.52</ele>
        <time>2019-02-26T09:43:09Z</time>
      </trkpt>
      <trkpt lat="42.88468" lon="0.11008">
        <ele>1725.94</ele>
        <time>2019-02-26T09:43:19Z</time>
      </trkpt>
      <trkpt lat="42.88467" lon="0.11009">
        <ele>1725.79</ele>
        <time>2019-02-26T09:43:29Z</time>
      </trkpt>
      <trkpt lat="42.88468" lon="0.11007">
        <ele>1725.78</ele>
        <time>2019-02-26T09:43:39Z</time>
      </trkpt>
      <trkpt lat="42.88467" lon="0.11008">
        <ele>1726.09</ele>
        <time>2019-02-26T09:43:59Z</time>
      </trkpt>
      <trkpt lat="42.88468" lon="0.1101">
        <ele>1725.23</ele>
        <time>2019-02-26T09:44:09Z</time>
      </trkpt>
      <trkpt lat="42.88469" lon="0.1101">
        <ele>1726.15</ele>
        <time>2019-02-26T09:44:19Z</time>
      </trkpt>
      <trkpt lat="42.8847" lon="0.11009">
        <ele>1725.95</ele>
        <time>2019-02-26T09:44:39Z</time>
      </trkpt>
      <trkpt lat="42.88469" lon="0.1101">
        <ele>1725.25</ele>
        <time>2019-02-26T09:44:59Z</time>
      </trkpt>
      <trkpt lat="42.88468" lon="0.1101">
        <ele>1725.36</ele>
        <time>2019-02-26T09:45:39Z</time>
      </trkpt>
      <trkpt lat="42.88468" lon="0.11009">
        <ele>1725.47</ele>
        <time>2019-02-26T09:45:49Z</time>
      </trkpt>
      <trkpt lat="42.88467" lon="0.1101">
        <ele>1725.9</ele>
        <time>2019-02-26T09:46:29Z</time>
      </trkpt>
      <trkpt lat="42.88468" lon="0.11011">
        <ele>1725.89</ele>
        <time>2019-02-26T09:46:39Z</time>
      </trkpt>
      <trkpt lat="42.88465" lon="0.11011">
        <ele>1725.64</ele>
        <time>2019-02-26T09:46:49Z</time>
      </trkpt>
      <trkpt lat="42.88463" lon="0.11019">
        <ele>1725.93</ele>
        <time>2019-02-26T09:46:59Z</time>
      </trkpt>
      <trkpt lat="42.88458" lon="0.11028">
        <ele>1727.08</ele>
        <time>2019-02-26T09:47:09Z</time>
      </trkpt>
      <trkpt lat="42.88454" lon="0.11036">
        <ele>1727.29</ele>
        <time>2019-02-26T09:47:19Z</time>
      </trkpt>
      <trkpt lat="42.88449" lon="0.11043">
        <ele>1727.37</ele>
        <time>2019-02-26T09:47:29Z</time>
      </trkpt>
      <trkpt lat="42.88445" lon="0.1105">
        <ele>1728.56</ele>
        <time>2019-02-26T09:47:39Z</time>
      </trkpt>
      <trkpt lat="42.8844" lon="0.1106">
        <ele>1729.34</ele>
        <time>2019-02-26T09:47:49Z</time>
      </trkpt>
      <trkpt lat="42.88434" lon="0.11068">
        <ele>1729.12</ele>
        <time>2019-02-26T09:47:59Z</time>
      </trkpt>
      <trkpt lat="42.88429" lon="0.11077">
        <ele>1729.98</ele>
        <time>2019-02-26T09:48:09Z</time>
      </trkpt>
      <trkpt lat="42.88424" lon="0.11085">
        <ele>1730.28</ele>
        <time>2019-02-26T09:48:19Z</time>
      </trkpt>
      <trkpt lat="42.88418" lon="0.11093">
        <ele>1730.53</ele>
        <time>2019-02-26T09:48:29Z</time>
      </trkpt>
      <trkpt lat="42.88411" lon="0.111">
        <ele>1731.02</ele>
        <time>2019-02-26T09:48:39Z</time>
      </trkpt>
      <trkpt lat="42.88405" lon="0.11108">
        <ele>1731.53</ele>
        <time>2019-02-26T09:48:49Z</time>
      </trkpt>
      <trkpt lat="42.88398" lon="0.11116">
        <ele>1732.23</ele>
        <time>2019-02-26T09:48:59Z</time>
      </trkpt>
      <trkpt lat="42.88392" lon="0.11125">
        <ele>1732.56</ele>
        <time>2019-02-26T09:49:09Z</time>
      </trkpt>
      <trkpt lat="42.88387" lon="0.11134">
        <ele>1733.44</ele>
        <time>2019-02-26T09:49:19Z</time>
      </trkpt>
      <trkpt lat="42.88382" lon="0.11143">
        <ele>1733.81</ele>
        <time>2019-02-26T09:49:29Z</time>
      </trkpt>
      <trkpt lat="42.88377" lon="0.1115">
        <ele>1733.73</ele>
        <time>2019-02-26T09:49:39Z</time>
      </trkpt>
      <trkpt lat="42.88373" lon="0.11156">
        <ele>1733.95</ele>
        <time>2019-02-26T09:49:49Z</time>
      </trkpt>
      <trkpt lat="42.88365" lon="0.11159">
        <ele>1733.3</ele>
        <time>2019-02-26T09:49:59Z</time>
      </trkpt>
      <trkpt lat="42.8836" lon="0.1116">
        <ele>1734.04</ele>
        <time>2019-02-26T09:50:09Z</time>
      </trkpt>
      <trkpt lat="42.88353" lon="0.11162">
        <ele>1735.47</ele>
        <time>2019-02-26T09:50:19Z</time>
      </trkpt>
      <trkpt lat="42.88344" lon="0.11163">
        <ele>1736.07</ele>
        <time>2019-02-26T09:50:29Z</time>
      </trkpt>
      <trkpt lat="42.88337" lon="0.11166">
        <ele>1737.35</ele>
        <time>2019-02-26T09:50:39Z</time>
      </trkpt>
      <trkpt lat="42.88332" lon="0.11171">
        <ele>1738.12</ele>
        <time>2019-02-26T09:50:49Z</time>
      </trkpt>
      <trkpt lat="42.88327" lon="0.11176">
        <ele>1739.9</ele>
        <time>2019-02-26T09:50:59Z</time>
      </trkpt>
      <trkpt lat="42.88322" lon="0.11182">
        <ele>1740.24</ele>
        <time>2019-02-26T09:51:09Z</time>
      </trkpt>
      <trkpt lat="42.88319" lon="0.11188">
        <ele>1740.4</ele>
        <time>2019-02-26T09:51:19Z</time>
      </trkpt>
      <trkpt lat="42.88314" lon="0.11194">
        <ele>1741.83</ele>
        <time>2019-02-26T09:51:29Z</time>
      </trkpt>
      <trkpt lat="42.8831" lon="0.112">
        <ele>1742.94</ele>
        <time>2019-02-26T09:51:39Z</time>
      </trkpt>
      <trkpt lat="42.88306" lon="0.11207">
        <ele>1743.09</ele>
        <time>2019-02-26T09:51:49Z</time>
      </trkpt>
      <trkpt lat="42.88301" lon="0.11213">
        <ele>1744.23</ele>
        <time>2019-02-26T09:51:59Z</time>
      </trkpt>
      <trkpt lat="42.88298" lon="0.1122">
        <ele>1744.44</ele>
        <time>2019-02-26T09:52:09Z</time>
      </trkpt>
      <trkpt lat="42.88294" lon="0.11226">
        <ele>1746.37</ele>
        <time>2019-02-26T09:52:19Z</time>
      </trkpt>
      <trkpt lat="42.88289" lon="0.11234">
        <ele>1747.12</ele>
        <time>2019-02-26T09:52:29Z</time>
      </trkpt>
      <trkpt lat="42.88285" lon="0.11242">
        <ele>1748.04</ele>
        <time>2019-02-26T09:52:39Z</time>
      </trkpt>
      <trkpt lat="42.88281" lon="0.1125">
        <ele>1748.26</ele>
        <time>2019-02-26T09:52:49Z</time>
      </trkpt>
      <trkpt lat="42.88278" lon="0.11258">
        <ele>1749.01</ele>
        <time>2019-02-26T09:52:59Z</time>
      </trkpt>
      <trkpt lat="42.88277" lon="0.11267">
        <ele>1749.95</ele>
        <time>2019-02-26T09:53:09Z</time>
      </trkpt>
      <trkpt lat="42.88275" lon="0.11278">
        <ele>1750.1</ele>
        <time>2019-02-26T09:53:19Z</time>
      </trkpt>
      <trkpt lat="42.88274" lon="0.11286">
        <ele>1750.75</ele>
        <time>2019-02-26T09:53:29Z</time>
      </trkpt>
      <trkpt lat="42.88275" lon="0.11296">
        <ele>1750.95</ele>
        <time>2019-02-26T09:53:39Z</time>
      </trkpt>
      <trkpt lat="42.88278" lon="0.11303">
        <ele>1751.46</ele>
        <time>2019-02-26T09:53:49Z</time>
      </trkpt>
      <trkpt lat="42.8828" lon="0.1131">
        <ele>1752.13</ele>
        <time>2019-02-26T09:53:59Z</time>
      </trkpt>
      <trkpt lat="42.88282" lon="0.11316">
        <ele>1752.9</ele>
        <time>2019-02-26T09:54:09Z</time>
      </trkpt>
      <trkpt lat="42.88282" lon="0.11322">
        <ele>1754.12</ele>
        <time>2019-02-26T09:54:19Z</time>
      </trkpt>
      <trkpt lat="42.88281" lon="0.1133">
        <ele>1755.5</ele>
        <time>2019-02-26T09:54:29Z</time>
      </trkpt>
      <trkpt lat="42.88279" lon="0.11338">
        <ele>1756.48</ele>
        <time>2019-02-26T09:54:39Z</time>
      </trkpt>
      <trkpt lat="42.88277" lon="0.11346">
        <ele>1756.58</ele>
        <time>2019-02-26T09:54:49Z</time>
      </trkpt>
      <trkpt lat="42.88273" lon="0.11354">
        <ele>1756.42</ele>
        <time>2019-02-26T09:54:59Z</time>
      </trkpt>
      <trkpt lat="42.88272" lon="0.11358">
        <ele>1756.39</ele>
        <time>2019-02-26T09:55:09Z</time>
      </trkpt>
      <trkpt lat="42.88273" lon="0.11359">
        <ele>1756.72</ele>
        <time>2019-02-26T09:55:19Z</time>
      </trkpt>
      <trkpt lat="42.88274" lon="0.11359">
        <ele>1756.5</ele>
        <time>2019-02-26T09:55:29Z</time>
      </trkpt>
      <trkpt lat="42.88274" lon="0.1136">
        <ele>1757.34</ele>
        <time>2019-02-26T09:55:59Z</time>
      </trkpt>
      <trkpt lat="42.88273" lon="0.11363">
        <ele>1756.9</ele>
        <time>2019-02-26T09:56:09Z</time>
      </trkpt>
      <trkpt lat="42.88273" lon="0.11365">
        <ele>1757.14</ele>
        <time>2019-02-26T09:56:19Z</time>
      </trkpt>
      <trkpt lat="42.88274" lon="0.11373">
        <ele>1758.5</ele>
        <time>2019-02-26T09:56:29Z</time>
      </trkpt>
      <trkpt lat="42.88276" lon="0.11382">
        <ele>1759.94</ele>
        <time>2019-02-26T09:56:39Z</time>
      </trkpt>
      <trkpt lat="42.88276" lon="0.11392">
        <ele>1760.99</ele>
        <time>2019-02-26T09:56:49Z</time>
      </trkpt>
      <trkpt lat="42.88276" lon="0.11401">
        <ele>1762.38</ele>
        <time>2019-02-26T09:56:59Z</time>
      </trkpt>
      <trkpt lat="42.88275" lon="0.11409">
        <ele>1763.13</ele>
        <time>2019-02-26T09:57:09Z</time>
      </trkpt>
      <trkpt lat="42.88275" lon="0.11411">
        <ele>1764.53</ele>
        <time>2019-02-26T09:57:19Z</time>
      </trkpt>
      <trkpt lat="42.88274" lon="0.11417">
        <ele>1765.46</ele>
        <time>2019-02-26T09:57:29Z</time>
      </trkpt>
      <trkpt lat="42.88271" lon="0.11424">
        <ele>1767.06</ele>
        <time>2019-02-26T09:57:39Z</time>
      </trkpt>
      <trkpt lat="42.88269" lon="0.11431">
        <ele>1768.59</ele>
        <time>2019-02-26T09:57:49Z</time>
      </trkpt>
      <trkpt lat="42.88267" lon="0.11439">
        <ele>1769.78</ele>
        <time>2019-02-26T09:57:59Z</time>
      </trkpt>
      <trkpt lat="42.88267" lon="0.11447">
        <ele>1771.31</ele>
        <time>2019-02-26T09:58:09Z</time>
      </trkpt>
      <trkpt lat="42.88265" lon="0.11455">
        <ele>1772.37</ele>
        <time>2019-02-26T09:58:19Z</time>
      </trkpt>
      <trkpt lat="42.88263" lon="0.11462">
        <ele>1773.55</ele>
        <time>2019-02-26T09:58:29Z</time>
      </trkpt>
      <trkpt lat="42.8826" lon="0.1147">
        <ele>1774.76</ele>
        <time>2019-02-26T09:58:39Z</time>
      </trkpt>
      <trkpt lat="42.88259" lon="0.11476">
        <ele>1775.69</ele>
        <time>2019-02-26T09:58:49Z</time>
      </trkpt>
      <trkpt lat="42.88258" lon="0.11484">
        <ele>1777.16</ele>
        <time>2019-02-26T09:58:59Z</time>
      </trkpt>
      <trkpt lat="42.88257" lon="0.11492">
        <ele>1778.09</ele>
        <time>2019-02-26T09:59:09Z</time>
      </trkpt>
      <trkpt lat="42.88258" lon="0.11499">
        <ele>1779.46</ele>
        <time>2019-02-26T09:59:19Z</time>
      </trkpt>
      <trkpt lat="42.8826" lon="0.11506">
        <ele>1780.44</ele>
        <time>2019-02-26T09:59:29Z</time>
      </trkpt>
      <trkpt lat="42.88261" lon="0.11507">
        <ele>1781.14</ele>
        <time>2019-02-26T09:59:39Z</time>
      </trkpt>
      <trkpt lat="42.88261" lon="0.11506">
        <ele>1781.35</ele>
        <time>2019-02-26T09:59:49Z</time>
      </trkpt>
      <trkpt lat="42.88264" lon="0.11511">
        <ele>1782.81</ele>
        <time>2019-02-26T10:00:09Z</time>
      </trkpt>
      <trkpt lat="42.88262" lon="0.11518">
        <ele>1783.35</ele>
        <time>2019-02-26T10:00:19Z</time>
      </trkpt>
      <trkpt lat="42.88261" lon="0.11526">
        <ele>1784.9</ele>
        <time>2019-02-26T10:00:29Z</time>
      </trkpt>
      <trkpt lat="42.88259" lon="0.11535">
        <ele>1785.96</ele>
        <time>2019-02-26T10:00:39Z</time>
      </trkpt>
      <trkpt lat="42.88257" lon="0.11543">
        <ele>1785.69</ele>
        <time>2019-02-26T10:00:49Z</time>
      </trkpt>
      <trkpt lat="42.88255" lon="0.11552">
        <ele>1786.74</ele>
        <time>2019-02-26T10:00:59Z</time>
      </trkpt>
      <trkpt lat="42.88252" lon="0.1156">
        <ele>1788.12</ele>
        <time>2019-02-26T10:01:09Z</time>
      </trkpt>
      <trkpt lat="42.88249" lon="0.11568">
        <ele>1788.81</ele>
        <time>2019-02-26T10:01:19Z</time>
      </trkpt>
      <trkpt lat="42.88246" lon="0.11576">
        <ele>1788.86</ele>
        <time>2019-02-26T10:01:29Z</time>
      </trkpt>
      <trkpt lat="42.88244" lon="0.11584">
        <ele>1790.08</ele>
        <time>2019-02-26T10:01:39Z</time>
      </trkpt>
      <trkpt lat="42.88243" lon="0.11591">
        <ele>1791.76</ele>
        <time>2019-02-26T10:01:49Z</time>
      </trkpt>
      <trkpt lat="42.88242" lon="0.11598">
        <ele>1792.75</ele>
        <time>2019-02-26T10:01:59Z</time>
      </trkpt>
      <trkpt lat="42.88241" lon="0.11604">
        <ele>1793.4</ele>
        <time>2019-02-26T10:02:09Z</time>
      </trkpt>
      <trkpt lat="42.88241" lon="0.11609">
        <ele>1794.86</ele>
        <time>2019-02-26T10:02:19Z</time>
      </trkpt>
      <trkpt lat="42.88241" lon="0.11612">
        <ele>1796.13</ele>
        <time>2019-02-26T10:02:29Z</time>
      </trkpt>
      <trkpt lat="42.8824" lon="0.11618">
        <ele>1797.68</ele>
        <time>2019-02-26T10:02:39Z</time>
      </trkpt>
      <trkpt lat="42.88239" lon="0.11624">
        <ele>1798.78</ele>
        <time>2019-02-26T10:02:49Z</time>
      </trkpt>
      <trkpt lat="42.88238" lon="0.1163">
        <ele>1799.95</ele>
        <time>2019-02-26T10:02:59Z</time>
      </trkpt>
      <trkpt lat="42.88238" lon="0.11634">
        <ele>1800.81</ele>
        <time>2019-02-26T10:03:09Z</time>
      </trkpt>
      <trkpt lat="42.88238" lon="0.11642">
        <ele>1801.7</ele>
        <time>2019-02-26T10:03:19Z</time>
      </trkpt>
      <trkpt lat="42.88237" lon="0.11651">
        <ele>1802.82</ele>
        <time>2019-02-26T10:03:29Z</time>
      </trkpt>
      <trkpt lat="42.88236" lon="0.1166">
        <ele>1803.05</ele>
        <time>2019-02-26T10:03:39Z</time>
      </trkpt>
      <trkpt lat="42.88235" lon="0.11668">
        <ele>1804.07</ele>
        <time>2019-02-26T10:03:49Z</time>
      </trkpt>
      <trkpt lat="42.88234" lon="0.11675">
        <ele>1804.57</ele>
        <time>2019-02-26T10:03:59Z</time>
      </trkpt>
      <trkpt lat="42.88233" lon="0.11683">
        <ele>1804.91</ele>
        <time>2019-02-26T10:04:09Z</time>
      </trkpt>
      <trkpt lat="42.88233" lon="0.1169">
        <ele>1804.78</ele>
        <time>2019-02-26T10:04:19Z</time>
      </trkpt>
      <trkpt lat="42.88233" lon="0.11696">
        <ele>1805.19</ele>
        <time>2019-02-26T10:04:29Z</time>
      </trkpt>
      <trkpt lat="42.88234" lon="0.11697">
        <ele>1805.21</ele>
        <time>2019-02-26T10:04:39Z</time>
      </trkpt>
      <trkpt lat="42.88233" lon="0.11697">
        <ele>1805.28</ele>
        <time>2019-02-26T10:04:59Z</time>
      </trkpt>
      <trkpt lat="42.88235" lon="0.11705">
        <ele>1805.16</ele>
        <time>2019-02-26T10:05:09Z</time>
      </trkpt>
      <trkpt lat="42.88237" lon="0.11709">
        <ele>1805.99</ele>
        <time>2019-02-26T10:06:19Z</time>
      </trkpt>
      <trkpt lat="42.88237" lon="0.11712">
        <ele>1805.99</ele>
        <time>2019-02-26T10:06:29Z</time>
      </trkpt>
      <trkpt lat="42.88238" lon="0.11719">
        <ele>1806.97</ele>
        <time>2019-02-26T10:06:39Z</time>
      </trkpt>
      <trkpt lat="42.88236" lon="0.11727">
        <ele>1807.93</ele>
        <time>2019-02-26T10:06:49Z</time>
      </trkpt>
      <trkpt lat="42.88235" lon="0.11734">
        <ele>1809.25</ele>
        <time>2019-02-26T10:06:59Z</time>
      </trkpt>
      <trkpt lat="42.88234" lon="0.11737">
        <ele>1809.56</ele>
        <time>2019-02-26T10:07:09Z</time>
      </trkpt>
      <trkpt lat="42.88233" lon="0.11744">
        <ele>1810.58</ele>
        <time>2019-02-26T10:07:19Z</time>
      </trkpt>
      <trkpt lat="42.88233" lon="0.11745">
        <ele>1810.84</ele>
        <time>2019-02-26T10:07:29Z</time>
      </trkpt>
      <trkpt lat="42.88232" lon="0.11749">
        <ele>1812.47</ele>
        <time>2019-02-26T10:07:39Z</time>
      </trkpt>
      <trkpt lat="42.88229" lon="0.11749">
        <ele>1813.12</ele>
        <time>2019-02-26T10:07:49Z</time>
      </trkpt>
      <trkpt lat="42.88226" lon="0.11749">
        <ele>1814.29</ele>
        <time>2019-02-26T10:07:59Z</time>
      </trkpt>
      <trkpt lat="42.88224" lon="0.11752">
        <ele>1815.43</ele>
        <time>2019-02-26T10:08:09Z</time>
      </trkpt>
      <trkpt lat="42.88223" lon="0.11757">
        <ele>1816.85</ele>
        <time>2019-02-26T10:08:19Z</time>
      </trkpt>
      <trkpt lat="42.88223" lon="0.11761">
        <ele>1817.14</ele>
        <time>2019-02-26T10:08:29Z</time>
      </trkpt>
      <trkpt lat="42.88224" lon="0.11766">
        <ele>1818.83</ele>
        <time>2019-02-26T10:08:39Z</time>
      </trkpt>
      <trkpt lat="42.88224" lon="0.11771">
        <ele>1820.21</ele>
        <time>2019-02-26T10:08:49Z</time>
      </trkpt>
      <trkpt lat="42.88224" lon="0.11775">
        <ele>1821.7</ele>
        <time>2019-02-26T10:08:59Z</time>
      </trkpt>
      <trkpt lat="42.88223" lon="0.1178">
        <ele>1822.76</ele>
        <time>2019-02-26T10:09:09Z</time>
      </trkpt>
      <trkpt lat="42.88222" lon="0.11784">
        <ele>1824.04</ele>
        <time>2019-02-26T10:09:19Z</time>
      </trkpt>
      <trkpt lat="42.88222" lon="0.11788">
        <ele>1825.09</ele>
        <time>2019-02-26T10:09:29Z</time>
      </trkpt>
      <trkpt lat="42.88221" lon="0.11793">
        <ele>1826.67</ele>
        <time>2019-02-26T10:09:39Z</time>
      </trkpt>
      <trkpt lat="42.8822" lon="0.11798">
        <ele>1827.72</ele>
        <time>2019-02-26T10:09:49Z</time>
      </trkpt>
      <trkpt lat="42.88221" lon="0.11803">
        <ele>1828.63</ele>
        <time>2019-02-26T10:09:59Z</time>
      </trkpt>
      <trkpt lat="42.88221" lon="0.11808">
        <ele>1829.77</ele>
        <time>2019-02-26T10:10:09Z</time>
      </trkpt>
      <trkpt lat="42.8822" lon="0.11812">
        <ele>1831.34</ele>
        <time>2019-02-26T10:10:19Z</time>
      </trkpt>
      <trkpt lat="42.88219" lon="0.11818">
        <ele>1832.49</ele>
        <time>2019-02-26T10:10:29Z</time>
      </trkpt>
      <trkpt lat="42.88219" lon="0.11823">
        <ele>1833.62</ele>
        <time>2019-02-26T10:10:39Z</time>
      </trkpt>
      <trkpt lat="42.88218" lon="0.11828">
        <ele>1834.8</ele>
        <time>2019-02-26T10:10:49Z</time>
      </trkpt>
      <trkpt lat="42.88217" lon="0.11833">
        <ele>1835.56</ele>
        <time>2019-02-26T10:10:59Z</time>
      </trkpt>
      <trkpt lat="42.88218" lon="0.11835">
        <ele>1836.21</ele>
        <time>2019-02-26T10:11:09Z</time>
      </trkpt>
      <trkpt lat="42.88218" lon="0.11836">
        <ele>1836.43</ele>
        <time>2019-02-26T10:11:19Z</time>
      </trkpt>
      <trkpt lat="42.88219" lon="0.11843">
        <ele>1837.75</ele>
        <time>2019-02-26T10:11:29Z</time>
      </trkpt>
      <trkpt lat="42.88219" lon="0.11849">
        <ele>1839.23</ele>
        <time>2019-02-26T10:11:39Z</time>
      </trkpt>
      <trkpt lat="42.8822" lon="0.11854">
        <ele>1840.25</ele>
        <time>2019-02-26T10:11:49Z</time>
      </trkpt>
      <trkpt lat="42.8822" lon="0.1186">
        <ele>1841.49</ele>
        <time>2019-02-26T10:11:59Z</time>
      </trkpt>
      <trkpt lat="42.88219" lon="0.11866">
        <ele>1842.71</ele>
        <time>2019-02-26T10:12:09Z</time>
      </trkpt>
      <trkpt lat="42.88218" lon="0.11871">
        <ele>1844.04</ele>
        <time>2019-02-26T10:12:19Z</time>
      </trkpt>
      <trkpt lat="42.88219" lon="0.11877">
        <ele>1845.22</ele>
        <time>2019-02-26T10:12:29Z</time>
      </trkpt>
      <trkpt lat="42.88218" lon="0.11883">
        <ele>1846.45</ele>
        <time>2019-02-26T10:12:39Z</time>
      </trkpt>
      <trkpt lat="42.88218" lon="0.11889">
        <ele>1847.52</ele>
        <time>2019-02-26T10:12:49Z</time>
      </trkpt>
      <trkpt lat="42.88218" lon="0.11895">
        <ele>1848.21</ele>
        <time>2019-02-26T10:12:59Z</time>
      </trkpt>
      <trkpt lat="42.88218" lon="0.11901">
        <ele>1849.07</ele>
        <time>2019-02-26T10:13:09Z</time>
      </trkpt>
      <trkpt lat="42.88219" lon="0.11907">
        <ele>1850.17</ele>
        <time>2019-02-26T10:13:19Z</time>
      </trkpt>
      <trkpt lat="42.8822" lon="0.11912">
        <ele>1851.48</ele>
        <time>2019-02-26T10:13:29Z</time>
      </trkpt>
      <trkpt lat="42.88222" lon="0.11918">
        <ele>1852.74</ele>
        <time>2019-02-26T10:13:39Z</time>
      </trkpt>
      <trkpt lat="42.88223" lon="0.11924">
        <ele>1853.83</ele>
        <time>2019-02-26T10:13:49Z</time>
      </trkpt>
      <trkpt lat="42.88224" lon="0.1193">
        <ele>1855.1</ele>
        <time>2019-02-26T10:13:59Z</time>
      </trkpt>
      <trkpt lat="42.88224" lon="0.11937">
        <ele>1856.02</ele>
        <time>2019-02-26T10:14:09Z</time>
      </trkpt>
      <trkpt lat="42.88223" lon="0.11945">
        <ele>1856.64</ele>
        <time>2019-02-26T10:14:19Z</time>
      </trkpt>
      <trkpt lat="42.88224" lon="0.11954">
        <ele>1857.48</ele>
        <time>2019-02-26T10:14:29Z</time>
      </trkpt>
      <trkpt lat="42.88226" lon="0.11962">
        <ele>1857.49</ele>
        <time>2019-02-26T10:14:39Z</time>
      </trkpt>
      <trkpt lat="42.88229" lon="0.11971">
        <ele>1858.99</ele>
        <time>2019-02-26T10:14:49Z</time>
      </trkpt>
      <trkpt lat="42.8823" lon="0.11977">
        <ele>1859.79</ele>
        <time>2019-02-26T10:14:59Z</time>
      </trkpt>
      <trkpt lat="42.88231" lon="0.11983">
        <ele>1861.13</ele>
        <time>2019-02-26T10:15:09Z</time>
      </trkpt>
      <trkpt lat="42.88234" lon="0.11989">
        <ele>1861.39</ele>
        <time>2019-02-26T10:15:19Z</time>
      </trkpt>
      <trkpt lat="42.88235" lon="0.11994">
        <ele>1862.36</ele>
        <time>2019-02-26T10:15:29Z</time>
      </trkpt>
      <trkpt lat="42.88235" lon="0.12">
        <ele>1863.46</ele>
        <time>2019-02-26T10:15:49Z</time>
      </trkpt>
      <trkpt lat="42.88236" lon="0.12008">
        <ele>1864.93</ele>
        <time>2019-02-26T10:15:59Z</time>
      </trkpt>
      <trkpt lat="42.88236" lon="0.12013">
        <ele>1866.32</ele>
        <time>2019-02-26T10:16:09Z</time>
      </trkpt>
      <trkpt lat="42.88237" lon="0.12018">
        <ele>1867.86</ele>
        <time>2019-02-26T10:16:19Z</time>
      </trkpt>
      <trkpt lat="42.88239" lon="0.12025">
        <ele>1868.54</ele>
        <time>2019-02-26T10:16:29Z</time>
      </trkpt>
      <trkpt lat="42.8824" lon="0.12032">
        <ele>1870.1</ele>
        <time>2019-02-26T10:16:39Z</time>
      </trkpt>
      <trkpt lat="42.8824" lon="0.12038">
        <ele>1870.4</ele>
        <time>2019-02-26T10:16:49Z</time>
      </trkpt>
      <trkpt lat="42.8824" lon="0.12045">
        <ele>1871.35</ele>
        <time>2019-02-26T10:16:59Z</time>
      </trkpt>
      <trkpt lat="42.88239" lon="0.12052">
        <ele>1871.95</ele>
        <time>2019-02-26T10:17:09Z</time>
      </trkpt>
      <trkpt lat="42.88239" lon="0.12055">
        <ele>1872.67</ele>
        <time>2019-02-26T10:17:19Z</time>
      </trkpt>
      <trkpt lat="42.88238" lon="0.12056">
        <ele>1874.1</ele>
        <time>2019-02-26T10:17:39Z</time>
      </trkpt>
      <trkpt lat="42.88237" lon="0.12064">
        <ele>1875.47</ele>
        <time>2019-02-26T10:17:49Z</time>
      </trkpt>
      <trkpt lat="42.88233" lon="0.12069">
        <ele>1876.21</ele>
        <time>2019-02-26T10:17:59Z</time>
      </trkpt>
      <trkpt lat="42.88231" lon="0.12071">
        <ele>1877.28</ele>
        <time>2019-02-26T10:18:09Z</time>
      </trkpt>
      <trkpt lat="42.88229" lon="0.12074">
        <ele>1878.7</ele>
        <time>2019-02-26T10:18:19Z</time>
      </trkpt>
      <trkpt lat="42.88227" lon="0.12079">
        <ele>1880.29</ele>
        <time>2019-02-26T10:18:29Z</time>
      </trkpt>
      <trkpt lat="42.88226" lon="0.12081">
        <ele>1880.95</ele>
        <time>2019-02-26T10:18:39Z</time>
      </trkpt>
      <trkpt lat="42.88226" lon="0.12085">
        <ele>1881.18</ele>
        <time>2019-02-26T10:18:49Z</time>
      </trkpt>
      <trkpt lat="42.88225" lon="0.12089">
        <ele>1883.45</ele>
        <time>2019-02-26T10:18:59Z</time>
      </trkpt>
      <trkpt lat="42.88226" lon="0.12094">
        <ele>1883.47</ele>
        <time>2019-02-26T10:19:09Z</time>
      </trkpt>
      <trkpt lat="42.8823" lon="0.12098">
        <ele>1884.71</ele>
        <time>2019-02-26T10:19:19Z</time>
      </trkpt>
      <trkpt lat="42.88234" lon="0.12102">
        <ele>1885.43</ele>
        <time>2019-02-26T10:19:29Z</time>
      </trkpt>
      <trkpt lat="42.88236" lon="0.12105">
        <ele>1885.82</ele>
        <time>2019-02-26T10:19:39Z</time>
      </trkpt>
      <trkpt lat="42.88238" lon="0.12111">
        <ele>1887.18</ele>
        <time>2019-02-26T10:19:49Z</time>
      </trkpt>
      <trkpt lat="42.88237" lon="0.12111">
        <ele>1887.48</ele>
        <time>2019-02-26T10:19:59Z</time>
      </trkpt>
      <trkpt lat="42.88239" lon="0.12116">
        <ele>1887.56</ele>
        <time>2019-02-26T10:20:09Z</time>
      </trkpt>
      <trkpt lat="42.8824" lon="0.12118">
        <ele>1887.98</ele>
        <time>2019-02-26T10:20:19Z</time>
      </trkpt>
      <trkpt lat="42.88241" lon="0.12126">
        <ele>1889.35</ele>
        <time>2019-02-26T10:20:29Z</time>
      </trkpt>
      <trkpt lat="42.88242" lon="0.12134">
        <ele>1890.07</ele>
        <time>2019-02-26T10:20:39Z</time>
      </trkpt>
      <trkpt lat="42.88243" lon="0.12137">
        <ele>1889.88</ele>
        <time>2019-02-26T10:20:49Z</time>
      </trkpt>
      <trkpt lat="42.88243" lon="0.1214">
        <ele>1890.17</ele>
        <time>2019-02-26T10:20:59Z</time>
      </trkpt>
      <trkpt lat="42.88242" lon="0.1214">
        <ele>1889.98</ele>
        <time>2019-02-26T10:21:09Z</time>
      </trkpt>
      <trkpt lat="42.88242" lon="0.12141">
        <ele>1890.12</ele>
        <time>2019-02-26T10:21:19Z</time>
      </trkpt>
      <trkpt lat="42.88235" lon="0.12143">
        <ele>1891.99</ele>
        <time>2019-02-26T10:21:29Z</time>
      </trkpt>
      <trkpt lat="42.88234" lon="0.12142">
        <ele>1891.73</ele>
        <time>2019-02-26T10:21:39Z</time>
      </trkpt>
      <trkpt lat="42.88234" lon="0.12141">
        <ele>1891.48</ele>
        <time>2019-02-26T10:21:49Z</time>
      </trkpt>
      <trkpt lat="42.8824" lon="0.12146">
        <ele>1891.35</ele>
        <time>2019-02-26T10:22:09Z</time>
      </trkpt>
      <trkpt lat="42.88241" lon="0.12147">
        <ele>1890.95</ele>
        <time>2019-02-26T10:23:09Z</time>
      </trkpt>
      <trkpt lat="42.88241" lon="0.12148">
        <ele>1890.67</ele>
        <time>2019-02-26T10:23:19Z</time>
      </trkpt>
      <trkpt lat="42.8824" lon="0.12148">
        <ele>1891.03</ele>
        <time>2019-02-26T10:23:39Z</time>
      </trkpt>
      <trkpt lat="42.88241" lon="0.12151">
        <ele>1891.48</ele>
        <time>2019-02-26T10:23:49Z</time>
      </trkpt>
      <trkpt lat="42.88242" lon="0.12159">
        <ele>1892.1</ele>
        <time>2019-02-26T10:23:59Z</time>
      </trkpt>
      <trkpt lat="42.88242" lon="0.1216">
        <ele>1892.25</ele>
        <time>2019-02-26T10:24:09Z</time>
      </trkpt>
      <trkpt lat="42.88241" lon="0.12167">
        <ele>1892.42</ele>
        <time>2019-02-26T10:24:19Z</time>
      </trkpt>
      <trkpt lat="42.88241" lon="0.12178">
        <ele>1893.48</ele>
        <time>2019-02-26T10:24:29Z</time>
      </trkpt>
      <trkpt lat="42.8824" lon="0.1219">
        <ele>1892.89</ele>
        <time>2019-02-26T10:24:39Z</time>
      </trkpt>
      <trkpt lat="42.8824" lon="0.12202">
        <ele>1892.09</ele>
        <time>2019-02-26T10:24:49Z</time>
      </trkpt>
      <trkpt lat="42.88238" lon="0.12212">
        <ele>1890.95</ele>
        <time>2019-02-26T10:24:59Z</time>
      </trkpt>
      <trkpt lat="42.88236" lon="0.12219">
        <ele>1889.01</ele>
        <time>2019-02-26T10:25:09Z</time>
      </trkpt>
      <trkpt lat="42.88234" lon="0.12226">
        <ele>1887.75</ele>
        <time>2019-02-26T10:25:19Z</time>
      </trkpt>
      <trkpt lat="42.88229" lon="0.12237">
        <ele>1885.95</ele>
        <time>2019-02-26T10:25:29Z</time>
      </trkpt>
      <trkpt lat="42.88226" lon="0.1225">
        <ele>1885.96</ele>
        <time>2019-02-26T10:25:39Z</time>
      </trkpt>
      <trkpt lat="42.88223" lon="0.12262">
        <ele>1885.69</ele>
        <time>2019-02-26T10:25:49Z</time>
      </trkpt>
      <trkpt lat="42.8822" lon="0.12275">
        <ele>1885.37</ele>
        <time>2019-02-26T10:25:59Z</time>
      </trkpt>
      <trkpt lat="42.88217" lon="0.12287">
        <ele>1886.03</ele>
        <time>2019-02-26T10:26:09Z</time>
      </trkpt>
      <trkpt lat="42.88214" lon="0.12299">
        <ele>1886.47</ele>
        <time>2019-02-26T10:26:19Z</time>
      </trkpt>
      <trkpt lat="42.88212" lon="0.12312">
        <ele>1886.51</ele>
        <time>2019-02-26T10:26:29Z</time>
      </trkpt>
      <trkpt lat="42.8821" lon="0.12325">
        <ele>1886.24</ele>
        <time>2019-02-26T10:26:39Z</time>
      </trkpt>
      <trkpt lat="42.88209" lon="0.12337">
        <ele>1886.38</ele>
        <time>2019-02-26T10:26:49Z</time>
      </trkpt>
      <trkpt lat="42.88208" lon="0.1235">
        <ele>1886.54</ele>
        <time>2019-02-26T10:26:59Z</time>
      </trkpt>
      <trkpt lat="42.88207" lon="0.12362">
        <ele>1886.56</ele>
        <time>2019-02-26T10:27:09Z</time>
      </trkpt>
      <trkpt lat="42.88206" lon="0.12375">
        <ele>1886.63</ele>
        <time>2019-02-26T10:27:19Z</time>
      </trkpt>
      <trkpt lat="42.88205" lon="0.12387">
        <ele>1886.79</ele>
        <time>2019-02-26T10:27:29Z</time>
      </trkpt>
      <trkpt lat="42.88203" lon="0.12399">
        <ele>1887.2</ele>
        <time>2019-02-26T10:27:39Z</time>
      </trkpt>
      <trkpt lat="42.88204" lon="0.12412">
        <ele>1886.85</ele>
        <time>2019-02-26T10:27:49Z</time>
      </trkpt>
      <trkpt lat="42.88204" lon="0.12425">
        <ele>1886.86</ele>
        <time>2019-02-26T10:27:59Z</time>
      </trkpt>
      <trkpt lat="42.88204" lon="0.12438">
        <ele>1886.97</ele>
        <time>2019-02-26T10:28:09Z</time>
      </trkpt>
      <trkpt lat="42.88204" lon="0.12451">
        <ele>1886.85</ele>
        <time>2019-02-26T10:28:19Z</time>
      </trkpt>
      <trkpt lat="42.88204" lon="0.12466">
        <ele>1887.17</ele>
        <time>2019-02-26T10:28:29Z</time>
      </trkpt>
      <trkpt lat="42.88204" lon="0.12479">
        <ele>1886.45</ele>
        <time>2019-02-26T10:28:39Z</time>
      </trkpt>
      <trkpt lat="42.88204" lon="0.12492">
        <ele>1886.81</ele>
        <time>2019-02-26T10:28:49Z</time>
      </trkpt>
      <trkpt lat="42.88203" lon="0.12503">
        <ele>1887.99</ele>
        <time>2019-02-26T10:28:59Z</time>
      </trkpt>
      <trkpt lat="42.88202" lon="0.12515">
        <ele>1889.58</ele>
        <time>2019-02-26T10:29:09Z</time>
      </trkpt>
      <trkpt lat="42.88201" lon="0.12525">
        <ele>1890.34</ele>
        <time>2019-02-26T10:29:19Z</time>
      </trkpt>
      <trkpt lat="42.88201" lon="0.12535">
        <ele>1891.14</ele>
        <time>2019-02-26T10:29:29Z</time>
      </trkpt>
      <trkpt lat="42.88199" lon="0.12542">
        <ele>1891.72</ele>
        <time>2019-02-26T10:29:39Z</time>
      </trkpt>
      <trkpt lat="42.88199" lon="0.12552">
        <ele>1892.45</ele>
        <time>2019-02-26T10:29:49Z</time>
      </trkpt>
      <trkpt lat="42.88197" lon="0.12561">
        <ele>1893.55</ele>
        <time>2019-02-26T10:29:59Z</time>
      </trkpt>
      <trkpt lat="42.88196" lon="0.12567">
        <ele>1894.68</ele>
        <time>2019-02-26T10:30:09Z</time>
      </trkpt>
      <trkpt lat="42.88195" lon="0.12575">
        <ele>1895.7</ele>
        <time>2019-02-26T10:30:19Z</time>
      </trkpt>
      <trkpt lat="42.88195" lon="0.12584">
        <ele>1896.19</ele>
        <time>2019-02-26T10:30:29Z</time>
      </trkpt>
      <trkpt lat="42.88196" lon="0.12591">
        <ele>1897.93</ele>
        <time>2019-02-26T10:30:39Z</time>
      </trkpt>
      <trkpt lat="42.88196" lon="0.126">
        <ele>1898.7</ele>
        <time>2019-02-26T10:30:49Z</time>
      </trkpt>
      <trkpt lat="42.88196" lon="0.12607">
        <ele>1899.08</ele>
        <time>2019-02-26T10:30:59Z</time>
      </trkpt>
      <trkpt lat="42.88195" lon="0.12615">
        <ele>1900.3</ele>
        <time>2019-02-26T10:31:09Z</time>
      </trkpt>
      <trkpt lat="42.88196" lon="0.12622">
        <ele>1901.3</ele>
        <time>2019-02-26T10:31:19Z</time>
      </trkpt>
      <trkpt lat="42.88196" lon="0.12629">
        <ele>1901.75</ele>
        <time>2019-02-26T10:31:29Z</time>
      </trkpt>
      <trkpt lat="42.88197" lon="0.12636">
        <ele>1902.59</ele>
        <time>2019-02-26T10:31:39Z</time>
      </trkpt>
      <trkpt lat="42.88198" lon="0.12645">
        <ele>1904.27</ele>
        <time>2019-02-26T10:31:49Z</time>
      </trkpt>
      <trkpt lat="42.88198" lon="0.12653">
        <ele>1904.9</ele>
        <time>2019-02-26T10:31:59Z</time>
      </trkpt>
      <trkpt lat="42.88199" lon="0.12662">
        <ele>1905.64</ele>
        <time>2019-02-26T10:32:09Z</time>
      </trkpt>
      <trkpt lat="42.882" lon="0.12671">
        <ele>1907.34</ele>
        <time>2019-02-26T10:32:19Z</time>
      </trkpt>
      <trkpt lat="42.88201" lon="0.12679">
        <ele>1907.87</ele>
        <time>2019-02-26T10:32:29Z</time>
      </trkpt>
      <trkpt lat="42.88201" lon="0.12687">
        <ele>1909.07</ele>
        <time>2019-02-26T10:32:39Z</time>
      </trkpt>
      <trkpt lat="42.88202" lon="0.12696">
        <ele>1909.71</ele>
        <time>2019-02-26T10:32:49Z</time>
      </trkpt>
      <trkpt lat="42.88201" lon="0.12704">
        <ele>1910.2</ele>
        <time>2019-02-26T10:32:59Z</time>
      </trkpt>
      <trkpt lat="42.88202" lon="0.12713">
        <ele>1911.91</ele>
        <time>2019-02-26T10:33:09Z</time>
      </trkpt>
      <trkpt lat="42.88201" lon="0.12724">
        <ele>1911.59</ele>
        <time>2019-02-26T10:33:19Z</time>
      </trkpt>
      <trkpt lat="42.882" lon="0.12734">
        <ele>1912.19</ele>
        <time>2019-02-26T10:33:29Z</time>
      </trkpt>
      <trkpt lat="42.88199" lon="0.12745">
        <ele>1912.8</ele>
        <time>2019-02-26T10:33:39Z</time>
      </trkpt>
      <trkpt lat="42.88196" lon="0.12754">
        <ele>1913.68</ele>
        <time>2019-02-26T10:33:49Z</time>
      </trkpt>
      <trkpt lat="42.88192" lon="0.12765">
        <ele>1913.48</ele>
        <time>2019-02-26T10:33:59Z</time>
      </trkpt>
      <trkpt lat="42.88188" lon="0.12776">
        <ele>1913.64</ele>
        <time>2019-02-26T10:34:09Z</time>
      </trkpt>
      <trkpt lat="42.88184" lon="0.12786">
        <ele>1913.7</ele>
        <time>2019-02-26T10:34:19Z</time>
      </trkpt>
      <trkpt lat="42.8818" lon="0.12798">
        <ele>1913.94</ele>
        <time>2019-02-26T10:34:29Z</time>
      </trkpt>
      <trkpt lat="42.88178" lon="0.1281">
        <ele>1913.52</ele>
        <time>2019-02-26T10:34:39Z</time>
      </trkpt>
      <trkpt lat="42.88177" lon="0.12821">
        <ele>1914.5</ele>
        <time>2019-02-26T10:34:49Z</time>
      </trkpt>
      <trkpt lat="42.88178" lon="0.1283">
        <ele>1915.01</ele>
        <time>2019-02-26T10:34:59Z</time>
      </trkpt>
      <trkpt lat="42.88178" lon="0.12839">
        <ele>1916.08</ele>
        <time>2019-02-26T10:35:09Z</time>
      </trkpt>
      <trkpt lat="42.88178" lon="0.12848">
        <ele>1916.83</ele>
        <time>2019-02-26T10:35:19Z</time>
      </trkpt>
      <trkpt lat="42.88178" lon="0.12857">
        <ele>1918.16</ele>
        <time>2019-02-26T10:35:29Z</time>
      </trkpt>
      <trkpt lat="42.88179" lon="0.12866">
        <ele>1918.81</ele>
        <time>2019-02-26T10:35:39Z</time>
      </trkpt>
      <trkpt lat="42.88179" lon="0.12874">
        <ele>1919.53</ele>
        <time>2019-02-26T10:35:49Z</time>
      </trkpt>
      <trkpt lat="42.88179" lon="0.12883">
        <ele>1921.04</ele>
        <time>2019-02-26T10:35:59Z</time>
      </trkpt>
      <trkpt lat="42.88179" lon="0.12892">
        <ele>1921.6</ele>
        <time>2019-02-26T10:36:09Z</time>
      </trkpt>
      <trkpt lat="42.88179" lon="0.12901">
        <ele>1922.64</ele>
        <time>2019-02-26T10:36:19Z</time>
      </trkpt>
      <trkpt lat="42.88177" lon="0.1291">
        <ele>1923.36</ele>
        <time>2019-02-26T10:36:29Z</time>
      </trkpt>
      <trkpt lat="42.88175" lon="0.12919">
        <ele>1924.07</ele>
        <time>2019-02-26T10:36:39Z</time>
      </trkpt>
      <trkpt lat="42.88173" lon="0.12925">
        <ele>1925.42</ele>
        <time>2019-02-26T10:36:49Z</time>
      </trkpt>
      <trkpt lat="42.88172" lon="0.12936">
        <ele>1925.75</ele>
        <time>2019-02-26T10:36:59Z</time>
      </trkpt>
      <trkpt lat="42.8817" lon="0.12946">
        <ele>1925.98</ele>
        <time>2019-02-26T10:37:09Z</time>
      </trkpt>
      <trkpt lat="42.88168" lon="0.12956">
        <ele>1926.93</ele>
        <time>2019-02-26T10:37:19Z</time>
      </trkpt>
      <trkpt lat="42.88166" lon="0.12966">
        <ele>1927.18</ele>
        <time>2019-02-26T10:37:29Z</time>
      </trkpt>
      <trkpt lat="42.88165" lon="0.12978">
        <ele>1928.28</ele>
        <time>2019-02-26T10:37:39Z</time>
      </trkpt>
      <trkpt lat="42.88165" lon="0.12989">
        <ele>1927.78</ele>
        <time>2019-02-26T10:37:49Z</time>
      </trkpt>
      <trkpt lat="42.88163" lon="0.13">
        <ele>1928.29</ele>
        <time>2019-02-26T10:37:59Z</time>
      </trkpt>
      <trkpt lat="42.88163" lon="0.1301">
        <ele>1929.63</ele>
        <time>2019-02-26T10:38:09Z</time>
      </trkpt>
      <trkpt lat="42.88162" lon="0.1302">
        <ele>1929.5</ele>
        <time>2019-02-26T10:38:19Z</time>
      </trkpt>
      <trkpt lat="42.88161" lon="0.13031">
        <ele>1929.58</ele>
        <time>2019-02-26T10:38:29Z</time>
      </trkpt>
      <trkpt lat="42.8816" lon="0.13042">
        <ele>1930.56</ele>
        <time>2019-02-26T10:38:39Z</time>
      </trkpt>
      <trkpt lat="42.8816" lon="0.13054">
        <ele>1930.51</ele>
        <time>2019-02-26T10:38:49Z</time>
      </trkpt>
      <trkpt lat="42.88159" lon="0.13066">
        <ele>1931.39</ele>
        <time>2019-02-26T10:38:59Z</time>
      </trkpt>
      <trkpt lat="42.88158" lon="0.13078">
        <ele>1930.78</ele>
        <time>2019-02-26T10:39:09Z</time>
      </trkpt>
      <trkpt lat="42.88157" lon="0.1309">
        <ele>1930.83</ele>
        <time>2019-02-26T10:39:19Z</time>
      </trkpt>
      <trkpt lat="42.88156" lon="0.13101">
        <ele>1932.25</ele>
        <time>2019-02-26T10:39:29Z</time>
      </trkpt>
      <trkpt lat="42.88156" lon="0.13114">
        <ele>1932.02</ele>
        <time>2019-02-26T10:39:39Z</time>
      </trkpt>
      <trkpt lat="42.88154" lon="0.13125">
        <ele>1932.53</ele>
        <time>2019-02-26T10:39:49Z</time>
      </trkpt>
      <trkpt lat="42.88153" lon="0.13134">
        <ele>1933.72</ele>
        <time>2019-02-26T10:39:59Z</time>
      </trkpt>
      <trkpt lat="42.88151" lon="0.13146">
        <ele>1933.16</ele>
        <time>2019-02-26T10:40:09Z</time>
      </trkpt>
      <trkpt lat="42.88149" lon="0.13157">
        <ele>1934.28</ele>
        <time>2019-02-26T10:40:19Z</time>
      </trkpt>
      <trkpt lat="42.88149" lon="0.13166">
        <ele>1934.8</ele>
        <time>2019-02-26T10:40:29Z</time>
      </trkpt>
      <trkpt lat="42.88147" lon="0.13173">
        <ele>1935.7</ele>
        <time>2019-02-26T10:40:39Z</time>
      </trkpt>
      <trkpt lat="42.88143" lon="0.13181">
        <ele>1935.89</ele>
        <time>2019-02-26T10:40:49Z</time>
      </trkpt>
      <trkpt lat="42.88141" lon="0.13187">
        <ele>1936.44</ele>
        <time>2019-02-26T10:40:59Z</time>
      </trkpt>
      <trkpt lat="42.88139" lon="0.13193">
        <ele>1937.46</ele>
        <time>2019-02-26T10:41:09Z</time>
      </trkpt>
      <trkpt lat="42.88137" lon="0.13201">
        <ele>1938.35</ele>
        <time>2019-02-26T10:41:19Z</time>
      </trkpt>
      <trkpt lat="42.88136" lon="0.13212">
        <ele>1939.13</ele>
        <time>2019-02-26T10:41:29Z</time>
      </trkpt>
      <trkpt lat="42.88133" lon="0.13223">
        <ele>1938.62</ele>
        <time>2019-02-26T10:41:39Z</time>
      </trkpt>
      <trkpt lat="42.8813" lon="0.13232">
        <ele>1938.98</ele>
        <time>2019-02-26T10:41:49Z</time>
      </trkpt>
      <trkpt lat="42.88127" lon="0.13239">
        <ele>1939.82</ele>
        <time>2019-02-26T10:41:59Z</time>
      </trkpt>
      <trkpt lat="42.88127" lon="0.13249">
        <ele>1941.36</ele>
        <time>2019-02-26T10:42:09Z</time>
      </trkpt>
      <trkpt lat="42.88127" lon="0.13259">
        <ele>1941.51</ele>
        <time>2019-02-26T10:42:19Z</time>
      </trkpt>
      <trkpt lat="42.88126" lon="0.1327">
        <ele>1941.05</ele>
        <time>2019-02-26T10:42:29Z</time>
      </trkpt>
      <trkpt lat="42.88125" lon="0.13281">
        <ele>1940.87</ele>
        <time>2019-02-26T10:42:39Z</time>
      </trkpt>
      <trkpt lat="42.88123" lon="0.13292">
        <ele>1940.81</ele>
        <time>2019-02-26T10:42:49Z</time>
      </trkpt>
      <trkpt lat="42.88122" lon="0.13301">
        <ele>1942.74</ele>
        <time>2019-02-26T10:42:59Z</time>
      </trkpt>
      <trkpt lat="42.88122" lon="0.13313">
        <ele>1943.27</ele>
        <time>2019-02-26T10:43:09Z</time>
      </trkpt>
      <trkpt lat="42.8812" lon="0.13323">
        <ele>1943.44</ele>
        <time>2019-02-26T10:43:19Z</time>
      </trkpt>
      <trkpt lat="42.88119" lon="0.13329">
        <ele>1943.12</ele>
        <time>2019-02-26T10:43:29Z</time>
      </trkpt>
      <trkpt lat="42.88118" lon="0.13329">
        <ele>1943.63</ele>
        <time>2019-02-26T10:43:39Z</time>
      </trkpt>
      <trkpt lat="42.88117" lon="0.1333">
        <ele>1943.71</ele>
        <time>2019-02-26T10:43:59Z</time>
      </trkpt>
      <trkpt lat="42.88117" lon="0.13336">
        <ele>1944.06</ele>
        <time>2019-02-26T10:44:09Z</time>
      </trkpt>
      <trkpt lat="42.88116" lon="0.13345">
        <ele>1945.13</ele>
        <time>2019-02-26T10:44:19Z</time>
      </trkpt>
      <trkpt lat="42.88114" lon="0.13353">
        <ele>1945.5</ele>
        <time>2019-02-26T10:44:29Z</time>
      </trkpt>
      <trkpt lat="42.88111" lon="0.13361">
        <ele>1946.18</ele>
        <time>2019-02-26T10:44:39Z</time>
      </trkpt>
      <trkpt lat="42.8811" lon="0.13372">
        <ele>1946.58</ele>
        <time>2019-02-26T10:44:49Z</time>
      </trkpt>
      <trkpt lat="42.88109" lon="0.13383">
        <ele>1946.8</ele>
        <time>2019-02-26T10:44:59Z</time>
      </trkpt>
      <trkpt lat="42.88107" lon="0.13392">
        <ele>1947.42</ele>
        <time>2019-02-26T10:45:09Z</time>
      </trkpt>
      <trkpt lat="42.88106" lon="0.13402">
        <ele>1948.06</ele>
        <time>2019-02-26T10:45:19Z</time>
      </trkpt>
      <trkpt lat="42.88105" lon="0.13412">
        <ele>1949.36</ele>
        <time>2019-02-26T10:45:29Z</time>
      </trkpt>
      <trkpt lat="42.88104" lon="0.13423">
        <ele>1949.53</ele>
        <time>2019-02-26T10:45:39Z</time>
      </trkpt>
      <trkpt lat="42.88102" lon="0.13433">
        <ele>1949.59</ele>
        <time>2019-02-26T10:45:49Z</time>
      </trkpt>
      <trkpt lat="42.88101" lon="0.13443">
        <ele>1950.88</ele>
        <time>2019-02-26T10:45:59Z</time>
      </trkpt>
      <trkpt lat="42.88099" lon="0.13448">
        <ele>1951.61</ele>
        <time>2019-02-26T10:46:09Z</time>
      </trkpt>
      <trkpt lat="42.88096" lon="0.13454">
        <ele>1952.67</ele>
        <time>2019-02-26T10:46:19Z</time>
      </trkpt>
      <trkpt lat="42.88094" lon="0.13463">
        <ele>1953.64</ele>
        <time>2019-02-26T10:46:29Z</time>
      </trkpt>
      <trkpt lat="42.88093" lon="0.13474">
        <ele>1953.87</ele>
        <time>2019-02-26T10:46:39Z</time>
      </trkpt>
      <trkpt lat="42.88094" lon="0.13482">
        <ele>1955.11</ele>
        <time>2019-02-26T10:46:49Z</time>
      </trkpt>
      <trkpt lat="42.88095" lon="0.1349">
        <ele>1956.43</ele>
        <time>2019-02-26T10:46:59Z</time>
      </trkpt>
      <trkpt lat="42.88096" lon="0.13499">
        <ele>1956.71</ele>
        <time>2019-02-26T10:47:09Z</time>
      </trkpt>
      <trkpt lat="42.88096" lon="0.135">
        <ele>1956.48</ele>
        <time>2019-02-26T10:47:19Z</time>
      </trkpt>
      <trkpt lat="42.88096" lon="0.13499">
        <ele>1956.76</ele>
        <time>2019-02-26T10:47:29Z</time>
      </trkpt>
      <trkpt lat="42.88097" lon="0.135">
        <ele>1955.92</ele>
        <time>2019-02-26T10:47:39Z</time>
      </trkpt>
      <trkpt lat="42.88096" lon="0.13501">
        <ele>1955.72</ele>
        <time>2019-02-26T10:47:59Z</time>
      </trkpt>
      <trkpt lat="42.88096" lon="0.13503">
        <ele>1954.98</ele>
        <time>2019-02-26T10:48:09Z</time>
      </trkpt>
      <trkpt lat="42.88097" lon="0.13503">
        <ele>1955.68</ele>
        <time>2019-02-26T10:48:19Z</time>
      </trkpt>
      <trkpt lat="42.88097" lon="0.13502">
        <ele>1955.34</ele>
        <time>2019-02-26T10:48:29Z</time>
      </trkpt>
      <trkpt lat="42.88096" lon="0.13502">
        <ele>1955.65</ele>
        <time>2019-02-26T10:48:59Z</time>
      </trkpt>
      <trkpt lat="42.88095" lon="0.13502">
        <ele>1957.07</ele>
        <time>2019-02-26T10:49:39Z</time>
      </trkpt>
      <trkpt lat="42.88094" lon="0.13501">
        <ele>1956.86</ele>
        <time>2019-02-26T10:49:49Z</time>
      </trkpt>
      <trkpt lat="42.88095" lon="0.13501">
        <ele>1956.96</ele>
        <time>2019-02-26T10:50:09Z</time>
      </trkpt>
      <trkpt lat="42.88096" lon="0.13499">
        <ele>1956.59</ele>
        <time>2019-02-26T10:50:19Z</time>
      </trkpt>
      <trkpt lat="42.88097" lon="0.13501">
        <ele>1957.37</ele>
        <time>2019-02-26T10:50:29Z</time>
      </trkpt>
      <trkpt lat="42.881" lon="0.13502">
        <ele>1957.2</ele>
        <time>2019-02-26T10:50:39Z</time>
      </trkpt>
      <trkpt lat="42.88098" lon="0.13506">
        <ele>1957.16</ele>
        <time>2019-02-26T10:50:49Z</time>
      </trkpt>
      <trkpt lat="42.88094" lon="0.13513">
        <ele>1958.45</ele>
        <time>2019-02-26T10:50:59Z</time>
      </trkpt>
      <trkpt lat="42.8809" lon="0.13519">
        <ele>1959.21</ele>
        <time>2019-02-26T10:51:09Z</time>
      </trkpt>
      <trkpt lat="42.88086" lon="0.13522">
        <ele>1960.5</ele>
        <time>2019-02-26T10:51:19Z</time>
      </trkpt>
      <trkpt lat="42.88085" lon="0.13522">
        <ele>1960.39</ele>
        <time>2019-02-26T10:51:29Z</time>
      </trkpt>
      <trkpt lat="42.88082" lon="0.13526">
        <ele>1960.77</ele>
        <time>2019-02-26T10:51:39Z</time>
      </trkpt>
      <trkpt lat="42.88079" lon="0.13529">
        <ele>1961.86</ele>
        <time>2019-02-26T10:51:49Z</time>
      </trkpt>
      <trkpt lat="42.88077" lon="0.1353">
        <ele>1961.8</ele>
        <time>2019-02-26T10:51:59Z</time>
      </trkpt>
      <trkpt lat="42.88072" lon="0.13536">
        <ele>1963.19</ele>
        <time>2019-02-26T10:52:09Z</time>
      </trkpt>
      <trkpt lat="42.8807" lon="0.13539">
        <ele>1963.94</ele>
        <time>2019-02-26T10:52:19Z</time>
      </trkpt>
      <trkpt lat="42.88065" lon="0.13543">
        <ele>1964.56</ele>
        <time>2019-02-26T10:52:29Z</time>
      </trkpt>
      <trkpt lat="42.88061" lon="0.13545">
        <ele>1965.87</ele>
        <time>2019-02-26T10:52:39Z</time>
      </trkpt>
      <trkpt lat="42.88056" lon="0.13549">
        <ele>1967.75</ele>
        <time>2019-02-26T10:52:49Z</time>
      </trkpt>
      <trkpt lat="42.88052" lon="0.13553">
        <ele>1968.23</ele>
        <time>2019-02-26T10:52:59Z</time>
      </trkpt>
      <trkpt lat="42.88051" lon="0.13554">
        <ele>1968.46</ele>
        <time>2019-02-26T10:53:09Z</time>
      </trkpt>
      <trkpt lat="42.88049" lon="0.13557">
        <ele>1968.89</ele>
        <time>2019-02-26T10:53:19Z</time>
      </trkpt>
      <trkpt lat="42.88047" lon="0.1356">
        <ele>1969.21</ele>
        <time>2019-02-26T10:53:29Z</time>
      </trkpt>
      <trkpt lat="42.88042" lon="0.13562">
        <ele>1970.53</ele>
        <time>2019-02-26T10:53:39Z</time>
      </trkpt>
      <trkpt lat="42.88038" lon="0.13567">
        <ele>1971.84</ele>
        <time>2019-02-26T10:53:49Z</time>
      </trkpt>
      <trkpt lat="42.88034" lon="0.13572">
        <ele>1972.02</ele>
        <time>2019-02-26T10:53:59Z</time>
      </trkpt>
      <trkpt lat="42.88032" lon="0.13577">
        <ele>1973.54</ele>
        <time>2019-02-26T10:54:09Z</time>
      </trkpt>
      <trkpt lat="42.88029" lon="0.13584">
        <ele>1974.82</ele>
        <time>2019-02-26T10:54:19Z</time>
      </trkpt>
      <trkpt lat="42.88028" lon="0.1359">
        <ele>1975.67</ele>
        <time>2019-02-26T10:54:29Z</time>
      </trkpt>
      <trkpt lat="42.88025" lon="0.13596">
        <ele>1975.9</ele>
        <time>2019-02-26T10:54:39Z</time>
      </trkpt>
      <trkpt lat="42.88023" lon="0.13601">
        <ele>1976.86</ele>
        <time>2019-02-26T10:54:49Z</time>
      </trkpt>
      <trkpt lat="42.88022" lon="0.13608">
        <ele>1978.15</ele>
        <time>2019-02-26T10:54:59Z</time>
      </trkpt>
      <trkpt lat="42.88021" lon="0.13614">
        <ele>1978.5</ele>
        <time>2019-02-26T10:55:09Z</time>
      </trkpt>
      <trkpt lat="42.8802" lon="0.13618">
        <ele>1979.98</ele>
        <time>2019-02-26T10:55:19Z</time>
      </trkpt>
      <trkpt lat="42.88019" lon="0.13624">
        <ele>1981.13</ele>
        <time>2019-02-26T10:55:29Z</time>
      </trkpt>
      <trkpt lat="42.88018" lon="0.1363">
        <ele>1981.93</ele>
        <time>2019-02-26T10:55:39Z</time>
      </trkpt>
      <trkpt lat="42.88015" lon="0.13635">
        <ele>1982.64</ele>
        <time>2019-02-26T10:55:49Z</time>
      </trkpt>
      <trkpt lat="42.88013" lon="0.13641">
        <ele>1983.86</ele>
        <time>2019-02-26T10:55:59Z</time>
      </trkpt>
      <trkpt lat="42.8801" lon="0.13645">
        <ele>1984.96</ele>
        <time>2019-02-26T10:56:09Z</time>
      </trkpt>
      <trkpt lat="42.88008" lon="0.1365">
        <ele>1985.97</ele>
        <time>2019-02-26T10:56:19Z</time>
      </trkpt>
      <trkpt lat="42.88004" lon="0.13655">
        <ele>1986.95</ele>
        <time>2019-02-26T10:56:29Z</time>
      </trkpt>
      <trkpt lat="42.88002" lon="0.13663">
        <ele>1988</ele>
        <time>2019-02-26T10:56:39Z</time>
      </trkpt>
      <trkpt lat="42.88" lon="0.13669">
        <ele>1988.82</ele>
        <time>2019-02-26T10:56:49Z</time>
      </trkpt>
      <trkpt lat="42.87999" lon="0.13676">
        <ele>1989.91</ele>
        <time>2019-02-26T10:56:59Z</time>
      </trkpt>
      <trkpt lat="42.87997" lon="0.13682">
        <ele>1990.67</ele>
        <time>2019-02-26T10:57:09Z</time>
      </trkpt>
      <trkpt lat="42.87994" lon="0.13689">
        <ele>1991.21</ele>
        <time>2019-02-26T10:57:19Z</time>
      </trkpt>
      <trkpt lat="42.87992" lon="0.13694">
        <ele>1991.87</ele>
        <time>2019-02-26T10:57:29Z</time>
      </trkpt>
      <trkpt lat="42.87989" lon="0.13699">
        <ele>1992.39</ele>
        <time>2019-02-26T10:57:39Z</time>
      </trkpt>
      <trkpt lat="42.87988" lon="0.13704">
        <ele>1992.89</ele>
        <time>2019-02-26T10:57:49Z</time>
      </trkpt>
      <trkpt lat="42.87985" lon="0.1371">
        <ele>1993.58</ele>
        <time>2019-02-26T10:57:59Z</time>
      </trkpt>
      <trkpt lat="42.87985" lon="0.13711">
        <ele>1994.41</ele>
        <time>2019-02-26T10:58:09Z</time>
      </trkpt>
      <trkpt lat="42.87984" lon="0.13716">
        <ele>1993.59</ele>
        <time>2019-02-26T10:58:19Z</time>
      </trkpt>
      <trkpt lat="42.87984" lon="0.13721">
        <ele>1994.95</ele>
        <time>2019-02-26T10:58:29Z</time>
      </trkpt>
      <trkpt lat="42.87983" lon="0.13725">
        <ele>1994.94</ele>
        <time>2019-02-26T10:58:39Z</time>
      </trkpt>
      <trkpt lat="42.87984" lon="0.13725">
        <ele>1995.3</ele>
        <time>2019-02-26T10:58:49Z</time>
      </trkpt>
      <trkpt lat="42.87985" lon="0.13725">
        <ele>1995.22</ele>
        <time>2019-02-26T10:58:59Z</time>
      </trkpt>
      <trkpt lat="42.87983" lon="0.13732">
        <ele>1996.22</ele>
        <time>2019-02-26T10:59:09Z</time>
      </trkpt>
      <trkpt lat="42.87979" lon="0.1374">
        <ele>1997.26</ele>
        <time>2019-02-26T10:59:19Z</time>
      </trkpt>
      <trkpt lat="42.87974" lon="0.13747">
        <ele>1998.04</ele>
        <time>2019-02-26T10:59:29Z</time>
      </trkpt>
      <trkpt lat="42.87971" lon="0.13754">
        <ele>1998.01</ele>
        <time>2019-02-26T10:59:39Z</time>
      </trkpt>
      <trkpt lat="42.87967" lon="0.13763">
        <ele>1998.56</ele>
        <time>2019-02-26T10:59:49Z</time>
      </trkpt>
      <trkpt lat="42.87965" lon="0.13772">
        <ele>1999.22</ele>
        <time>2019-02-26T10:59:59Z</time>
      </trkpt>
      <trkpt lat="42.87963" lon="0.13781">
        <ele>1999.58</ele>
        <time>2019-02-26T11:00:09Z</time>
      </trkpt>
      <trkpt lat="42.87959" lon="0.1379">
        <ele>1999.84</ele>
        <time>2019-02-26T11:00:19Z</time>
      </trkpt>
      <trkpt lat="42.87958" lon="0.13798">
        <ele>2000.71</ele>
        <time>2019-02-26T11:00:29Z</time>
      </trkpt>
      <trkpt lat="42.87957" lon="0.13806">
        <ele>2001.27</ele>
        <time>2019-02-26T11:00:39Z</time>
      </trkpt>
      <trkpt lat="42.87955" lon="0.13815">
        <ele>2001.42</ele>
        <time>2019-02-26T11:00:49Z</time>
      </trkpt>
      <trkpt lat="42.87952" lon="0.13826">
        <ele>2002</ele>
        <time>2019-02-26T11:00:59Z</time>
      </trkpt>
      <trkpt lat="42.8795" lon="0.13834">
        <ele>2002.93</ele>
        <time>2019-02-26T11:01:09Z</time>
      </trkpt>
      <trkpt lat="42.8795" lon="0.13844">
        <ele>2002.5</ele>
        <time>2019-02-26T11:01:19Z</time>
      </trkpt>
      <trkpt lat="42.87948" lon="0.13853">
        <ele>2003.42</ele>
        <time>2019-02-26T11:01:29Z</time>
      </trkpt>
      <trkpt lat="42.87945" lon="0.13861">
        <ele>2003.78</ele>
        <time>2019-02-26T11:01:39Z</time>
      </trkpt>
      <trkpt lat="42.87943" lon="0.13869">
        <ele>2005.17</ele>
        <time>2019-02-26T11:01:49Z</time>
      </trkpt>
      <trkpt lat="42.87941" lon="0.13877">
        <ele>2005.55</ele>
        <time>2019-02-26T11:01:59Z</time>
      </trkpt>
      <trkpt lat="42.87939" lon="0.13881">
        <ele>2006.88</ele>
        <time>2019-02-26T11:02:09Z</time>
      </trkpt>
      <trkpt lat="42.87938" lon="0.13887">
        <ele>2007.52</ele>
        <time>2019-02-26T11:02:19Z</time>
      </trkpt>
      <trkpt lat="42.87936" lon="0.13895">
        <ele>2008.41</ele>
        <time>2019-02-26T11:02:29Z</time>
      </trkpt>
      <trkpt lat="42.87934" lon="0.13903">
        <ele>2009.52</ele>
        <time>2019-02-26T11:02:39Z</time>
      </trkpt>
      <trkpt lat="42.87934" lon="0.13912">
        <ele>2009.78</ele>
        <time>2019-02-26T11:02:49Z</time>
      </trkpt>
      <trkpt lat="42.87934" lon="0.13923">
        <ele>2010.15</ele>
        <time>2019-02-26T11:02:59Z</time>
      </trkpt>
      <trkpt lat="42.87932" lon="0.13931">
        <ele>2011.15</ele>
        <time>2019-02-26T11:03:09Z</time>
      </trkpt>
      <trkpt lat="42.87928" lon="0.13937">
        <ele>2011.58</ele>
        <time>2019-02-26T11:03:19Z</time>
      </trkpt>
      <trkpt lat="42.87926" lon="0.13942">
        <ele>2013.19</ele>
        <time>2019-02-26T11:03:29Z</time>
      </trkpt>
      <trkpt lat="42.87924" lon="0.13949">
        <ele>2013.87</ele>
        <time>2019-02-26T11:03:39Z</time>
      </trkpt>
      <trkpt lat="42.87921" lon="0.13955">
        <ele>2015.11</ele>
        <time>2019-02-26T11:03:49Z</time>
      </trkpt>
      <trkpt lat="42.87918" lon="0.13961">
        <ele>2016.01</ele>
        <time>2019-02-26T11:03:59Z</time>
      </trkpt>
      <trkpt lat="42.87917" lon="0.13966">
        <ele>2016.79</ele>
        <time>2019-02-26T11:04:09Z</time>
      </trkpt>
      <trkpt lat="42.87915" lon="0.13975">
        <ele>2017.84</ele>
        <time>2019-02-26T11:04:19Z</time>
      </trkpt>
      <trkpt lat="42.87915" lon="0.13984">
        <ele>2017.55</ele>
        <time>2019-02-26T11:04:29Z</time>
      </trkpt>
      <trkpt lat="42.87914" lon="0.13993">
        <ele>2017.73</ele>
        <time>2019-02-26T11:04:39Z</time>
      </trkpt>
      <trkpt lat="42.87913" lon="0.14001">
        <ele>2018.35</ele>
        <time>2019-02-26T11:04:49Z</time>
      </trkpt>
      <trkpt lat="42.87912" lon="0.14007">
        <ele>2019.28</ele>
        <time>2019-02-26T11:04:59Z</time>
      </trkpt>
      <trkpt lat="42.87911" lon="0.14013">
        <ele>2020.41</ele>
        <time>2019-02-26T11:05:09Z</time>
      </trkpt>
      <trkpt lat="42.87911" lon="0.14019">
        <ele>2021.14</ele>
        <time>2019-02-26T11:05:19Z</time>
      </trkpt>
      <trkpt lat="42.8791" lon="0.14026">
        <ele>2021.88</ele>
        <time>2019-02-26T11:05:29Z</time>
      </trkpt>
      <trkpt lat="42.87909" lon="0.14033">
        <ele>2023.06</ele>
        <time>2019-02-26T11:05:39Z</time>
      </trkpt>
      <trkpt lat="42.87908" lon="0.14039">
        <ele>2024.13</ele>
        <time>2019-02-26T11:05:49Z</time>
      </trkpt>
      <trkpt lat="42.87905" lon="0.14046">
        <ele>2025.18</ele>
        <time>2019-02-26T11:05:59Z</time>
      </trkpt>
      <trkpt lat="42.87904" lon="0.14053">
        <ele>2025.36</ele>
        <time>2019-02-26T11:06:09Z</time>
      </trkpt>
      <trkpt lat="42.87903" lon="0.14061">
        <ele>2026.53</ele>
        <time>2019-02-26T11:06:19Z</time>
      </trkpt>
      <trkpt lat="42.87902" lon="0.14067">
        <ele>2027.34</ele>
        <time>2019-02-26T11:06:29Z</time>
      </trkpt>
      <trkpt lat="42.87902" lon="0.14071">
        <ele>2027.38</ele>
        <time>2019-02-26T11:06:39Z</time>
      </trkpt>
      <trkpt lat="42.879" lon="0.14071">
        <ele>2027.53</ele>
        <time>2019-02-26T11:06:49Z</time>
      </trkpt>
      <trkpt lat="42.87901" lon="0.1407">
        <ele>2027.56</ele>
        <time>2019-02-26T11:06:59Z</time>
      </trkpt>
      <trkpt lat="42.87899" lon="0.14077">
        <ele>2027.96</ele>
        <time>2019-02-26T11:07:09Z</time>
      </trkpt>
      <trkpt lat="42.87899" lon="0.14079">
        <ele>2028.83</ele>
        <time>2019-02-26T11:07:19Z</time>
      </trkpt>
      <trkpt lat="42.879" lon="0.14076">
        <ele>2028.8</ele>
        <time>2019-02-26T11:07:29Z</time>
      </trkpt>
      <trkpt lat="42.87898" lon="0.14081">
        <ele>2029.29</ele>
        <time>2019-02-26T11:07:39Z</time>
      </trkpt>
      <trkpt lat="42.87897" lon="0.14085">
        <ele>2030.24</ele>
        <time>2019-02-26T11:07:49Z</time>
      </trkpt>
      <trkpt lat="42.87893" lon="0.14093">
        <ele>2031.46</ele>
        <time>2019-02-26T11:07:59Z</time>
      </trkpt>
      <trkpt lat="42.87889" lon="0.14101">
        <ele>2032.74</ele>
        <time>2019-02-26T11:08:09Z</time>
      </trkpt>
      <trkpt lat="42.87885" lon="0.14106">
        <ele>2033.72</ele>
        <time>2019-02-26T11:08:19Z</time>
      </trkpt>
      <trkpt lat="42.87882" lon="0.14109">
        <ele>2034.42</ele>
        <time>2019-02-26T11:08:29Z</time>
      </trkpt>
      <trkpt lat="42.87882" lon="0.14108">
        <ele>2034.93</ele>
        <time>2019-02-26T11:08:39Z</time>
      </trkpt>
      <trkpt lat="42.87881" lon="0.14108">
        <ele>2034.81</ele>
        <time>2019-02-26T11:08:49Z</time>
      </trkpt>
      <trkpt lat="42.87875" lon="0.14109">
        <ele>2035.97</ele>
        <time>2019-02-26T11:08:59Z</time>
      </trkpt>
      <trkpt lat="42.87872" lon="0.1411">
        <ele>2036.28</ele>
        <time>2019-02-26T11:09:09Z</time>
      </trkpt>
      <trkpt lat="42.8787" lon="0.14115">
        <ele>2037.29</ele>
        <time>2019-02-26T11:09:19Z</time>
      </trkpt>
      <trkpt lat="42.8787" lon="0.1412">
        <ele>2038.37</ele>
        <time>2019-02-26T11:09:29Z</time>
      </trkpt>
      <trkpt lat="42.87869" lon="0.14122">
        <ele>2040.11</ele>
        <time>2019-02-26T11:09:39Z</time>
      </trkpt>
      <trkpt lat="42.87868" lon="0.14122">
        <ele>2040.51</ele>
        <time>2019-02-26T11:09:49Z</time>
      </trkpt>
      <trkpt lat="42.87866" lon="0.14121">
        <ele>2040.65</ele>
        <time>2019-02-26T11:09:59Z</time>
      </trkpt>
      <trkpt lat="42.87862" lon="0.14122">
        <ele>2040.93</ele>
        <time>2019-02-26T11:10:09Z</time>
      </trkpt>
      <trkpt lat="42.87861" lon="0.14128">
        <ele>2042.4</ele>
        <time>2019-02-26T11:10:19Z</time>
      </trkpt>
      <trkpt lat="42.87859" lon="0.14132">
        <ele>2044.54</ele>
        <time>2019-02-26T11:10:29Z</time>
      </trkpt>
      <trkpt lat="42.87859" lon="0.14131">
        <ele>2043.98</ele>
        <time>2019-02-26T11:10:39Z</time>
      </trkpt>
      <trkpt lat="42.87858" lon="0.14137">
        <ele>2045.44</ele>
        <time>2019-02-26T11:10:49Z</time>
      </trkpt>
      <trkpt lat="42.87855" lon="0.14144">
        <ele>2046.36</ele>
        <time>2019-02-26T11:10:59Z</time>
      </trkpt>
      <trkpt lat="42.87856" lon="0.14152">
        <ele>2046.44</ele>
        <time>2019-02-26T11:11:09Z</time>
      </trkpt>
      <trkpt lat="42.87858" lon="0.14155">
        <ele>2046.51</ele>
        <time>2019-02-26T11:11:19Z</time>
      </trkpt>
      <trkpt lat="42.87859" lon="0.14156">
        <ele>2046.14</ele>
        <time>2019-02-26T11:11:29Z</time>
      </trkpt>
      <trkpt lat="42.87859" lon="0.14157">
        <ele>2046.33</ele>
        <time>2019-02-26T11:11:39Z</time>
      </trkpt>
      <trkpt lat="42.87859" lon="0.14159">
        <ele>2047.26</ele>
        <time>2019-02-26T11:11:49Z</time>
      </trkpt>
      <trkpt lat="42.87862" lon="0.14166">
        <ele>2047.72</ele>
        <time>2019-02-26T11:11:59Z</time>
      </trkpt>
      <trkpt lat="42.87865" lon="0.14173">
        <ele>2048.36</ele>
        <time>2019-02-26T11:12:09Z</time>
      </trkpt>
      <trkpt lat="42.87865" lon="0.14179">
        <ele>2049.88</ele>
        <time>2019-02-26T11:12:19Z</time>
      </trkpt>
      <trkpt lat="42.87867" lon="0.14185">
        <ele>2051.19</ele>
        <time>2019-02-26T11:12:29Z</time>
      </trkpt>
      <trkpt lat="42.87869" lon="0.14191">
        <ele>2051.45</ele>
        <time>2019-02-26T11:12:39Z</time>
      </trkpt>
      <trkpt lat="42.87871" lon="0.14198">
        <ele>2052.37</ele>
        <time>2019-02-26T11:12:49Z</time>
      </trkpt>
      <trkpt lat="42.87873" lon="0.14203">
        <ele>2053.37</ele>
        <time>2019-02-26T11:12:59Z</time>
      </trkpt>
      <trkpt lat="42.87873" lon="0.14209">
        <ele>2054.77</ele>
        <time>2019-02-26T11:13:09Z</time>
      </trkpt>
      <trkpt lat="42.87873" lon="0.14212">
        <ele>2055.07</ele>
        <time>2019-02-26T11:13:19Z</time>
      </trkpt>
      <trkpt lat="42.87871" lon="0.14217">
        <ele>2055.74</ele>
        <time>2019-02-26T11:13:29Z</time>
      </trkpt>
      <trkpt lat="42.87867" lon="0.14222">
        <ele>2057.05</ele>
        <time>2019-02-26T11:13:39Z</time>
      </trkpt>
      <trkpt lat="42.87865" lon="0.1423">
        <ele>2058.48</ele>
        <time>2019-02-26T11:13:49Z</time>
      </trkpt>
      <trkpt lat="42.87867" lon="0.14236">
        <ele>2059.14</ele>
        <time>2019-02-26T11:13:59Z</time>
      </trkpt>
      <trkpt lat="42.87871" lon="0.14243">
        <ele>2059.32</ele>
        <time>2019-02-26T11:14:09Z</time>
      </trkpt>
      <trkpt lat="42.8787" lon="0.14248">
        <ele>2060.03</ele>
        <time>2019-02-26T11:14:19Z</time>
      </trkpt>
      <trkpt lat="42.87868" lon="0.14253">
        <ele>2060.67</ele>
        <time>2019-02-26T11:14:29Z</time>
      </trkpt>
      <trkpt lat="42.87864" lon="0.14256">
        <ele>2061.05</ele>
        <time>2019-02-26T11:14:39Z</time>
      </trkpt>
      <trkpt lat="42.87864" lon="0.14262">
        <ele>2061.08</ele>
        <time>2019-02-26T11:14:49Z</time>
      </trkpt>
      <trkpt lat="42.87863" lon="0.14267">
        <ele>2061.63</ele>
        <time>2019-02-26T11:14:59Z</time>
      </trkpt>
      <trkpt lat="42.87862" lon="0.14272">
        <ele>2062.72</ele>
        <time>2019-02-26T11:15:09Z</time>
      </trkpt>
      <trkpt lat="42.87862" lon="0.14274">
        <ele>2063.01</ele>
        <time>2019-02-26T11:15:19Z</time>
      </trkpt>
      <trkpt lat="42.87861" lon="0.1428">
        <ele>2062.43</ele>
        <time>2019-02-26T11:15:29Z</time>
      </trkpt>
      <trkpt lat="42.87857" lon="0.14285">
        <ele>2064.38</ele>
        <time>2019-02-26T11:15:39Z</time>
      </trkpt>
      <trkpt lat="42.87853" lon="0.1429">
        <ele>2065.28</ele>
        <time>2019-02-26T11:15:49Z</time>
      </trkpt>
      <trkpt lat="42.87849" lon="0.14296">
        <ele>2065.44</ele>
        <time>2019-02-26T11:15:59Z</time>
      </trkpt>
      <trkpt lat="42.87848" lon="0.14305">
        <ele>2066.08</ele>
        <time>2019-02-26T11:16:09Z</time>
      </trkpt>
      <trkpt lat="42.87847" lon="0.14311">
        <ele>2066.12</ele>
        <time>2019-02-26T11:16:19Z</time>
      </trkpt>
      <trkpt lat="42.8785" lon="0.14318">
        <ele>2066.96</ele>
        <time>2019-02-26T11:16:29Z</time>
      </trkpt>
      <trkpt lat="42.8785" lon="0.14325">
        <ele>2067.9</ele>
        <time>2019-02-26T11:16:39Z</time>
      </trkpt>
      <trkpt lat="42.87847" lon="0.1433">
        <ele>2068.77</ele>
        <time>2019-02-26T11:16:49Z</time>
      </trkpt>
      <trkpt lat="42.87845" lon="0.14337">
        <ele>2069.1</ele>
        <time>2019-02-26T11:16:59Z</time>
      </trkpt>
      <trkpt lat="42.87843" lon="0.14343">
        <ele>2069.59</ele>
        <time>2019-02-26T11:17:09Z</time>
      </trkpt>
      <trkpt lat="42.8784" lon="0.1435">
        <ele>2071.19</ele>
        <time>2019-02-26T11:17:19Z</time>
      </trkpt>
      <trkpt lat="42.87838" lon="0.14359">
        <ele>2071.21</ele>
        <time>2019-02-26T11:17:29Z</time>
      </trkpt>
      <trkpt lat="42.87835" lon="0.14367">
        <ele>2071.28</ele>
        <time>2019-02-26T11:17:39Z</time>
      </trkpt>
      <trkpt lat="42.87832" lon="0.14375">
        <ele>2071.7</ele>
        <time>2019-02-26T11:17:49Z</time>
      </trkpt>
      <trkpt lat="42.87832" lon="0.14376">
        <ele>2071.9</ele>
        <time>2019-02-26T11:17:59Z</time>
      </trkpt>
      <trkpt lat="42.87833" lon="0.14378">
        <ele>2072.06</ele>
        <time>2019-02-26T11:18:09Z</time>
      </trkpt>
      <trkpt lat="42.87833" lon="0.14381">
        <ele>2071.99</ele>
        <time>2019-02-26T11:18:19Z</time>
      </trkpt>
      <trkpt lat="42.87831" lon="0.14391">
        <ele>2072.32</ele>
        <time>2019-02-26T11:18:29Z</time>
      </trkpt>
      <trkpt lat="42.87829" lon="0.14399">
        <ele>2072.36</ele>
        <time>2019-02-26T11:18:39Z</time>
      </trkpt>
      <trkpt lat="42.87826" lon="0.14404">
        <ele>2073.37</ele>
        <time>2019-02-26T11:18:49Z</time>
      </trkpt>
      <trkpt lat="42.87825" lon="0.1441">
        <ele>2073.78</ele>
        <time>2019-02-26T11:18:59Z</time>
      </trkpt>
      <trkpt lat="42.87824" lon="0.14416">
        <ele>2074.72</ele>
        <time>2019-02-26T11:19:09Z</time>
      </trkpt>
      <trkpt lat="42.8782" lon="0.14421">
        <ele>2074.62</ele>
        <time>2019-02-26T11:19:19Z</time>
      </trkpt>
      <trkpt lat="42.87818" lon="0.14431">
        <ele>2074.85</ele>
        <time>2019-02-26T11:19:29Z</time>
      </trkpt>
      <trkpt lat="42.87818" lon="0.14439">
        <ele>2075.84</ele>
        <time>2019-02-26T11:19:39Z</time>
      </trkpt>
      <trkpt lat="42.87819" lon="0.14446">
        <ele>2076.5</ele>
        <time>2019-02-26T11:19:49Z</time>
      </trkpt>
      <trkpt lat="42.87818" lon="0.14452">
        <ele>2077.11</ele>
        <time>2019-02-26T11:19:59Z</time>
      </trkpt>
      <trkpt lat="42.87816" lon="0.14456">
        <ele>2077.91</ele>
        <time>2019-02-26T11:20:09Z</time>
      </trkpt>
      <trkpt lat="42.87814" lon="0.14458">
        <ele>2079.25</ele>
        <time>2019-02-26T11:20:19Z</time>
      </trkpt>
      <trkpt lat="42.87813" lon="0.14462">
        <ele>2079.9</ele>
        <time>2019-02-26T11:20:39Z</time>
      </trkpt>
      <trkpt lat="42.87811" lon="0.14469">
        <ele>2080.29</ele>
        <time>2019-02-26T11:20:49Z</time>
      </trkpt>
      <trkpt lat="42.87809" lon="0.14476">
        <ele>2080.57</ele>
        <time>2019-02-26T11:20:59Z</time>
      </trkpt>
      <trkpt lat="42.87808" lon="0.14481">
        <ele>2081.48</ele>
        <time>2019-02-26T11:21:09Z</time>
      </trkpt>
      <trkpt lat="42.87807" lon="0.14485">
        <ele>2082.49</ele>
        <time>2019-02-26T11:21:19Z</time>
      </trkpt>
      <trkpt lat="42.87807" lon="0.14493">
        <ele>2082.75</ele>
        <time>2019-02-26T11:21:29Z</time>
      </trkpt>
      <trkpt lat="42.87804" lon="0.14501">
        <ele>2083.57</ele>
        <time>2019-02-26T11:21:39Z</time>
      </trkpt>
      <trkpt lat="42.87801" lon="0.14507">
        <ele>2084.01</ele>
        <time>2019-02-26T11:21:49Z</time>
      </trkpt>
      <trkpt lat="42.878" lon="0.1451">
        <ele>2084.5</ele>
        <time>2019-02-26T11:21:59Z</time>
      </trkpt>
      <trkpt lat="42.878" lon="0.14509">
        <ele>2084.06</ele>
        <time>2019-02-26T11:22:09Z</time>
      </trkpt>
      <trkpt lat="42.87798" lon="0.14509">
        <ele>2083.72</ele>
        <time>2019-02-26T11:22:19Z</time>
      </trkpt>
      <trkpt lat="42.87797" lon="0.14511">
        <ele>2084.07</ele>
        <time>2019-02-26T11:22:29Z</time>
      </trkpt>
      <trkpt lat="42.87798" lon="0.14511">
        <ele>2084.51</ele>
        <time>2019-02-26T11:22:39Z</time>
      </trkpt>
      <trkpt lat="42.87794" lon="0.14515">
        <ele>2084.4</ele>
        <time>2019-02-26T11:22:49Z</time>
      </trkpt>
      <trkpt lat="42.87789" lon="0.14524">
        <ele>2084.29</ele>
        <time>2019-02-26T11:22:59Z</time>
      </trkpt>
      <trkpt lat="42.87784" lon="0.14532">
        <ele>2085.43</ele>
        <time>2019-02-26T11:23:09Z</time>
      </trkpt>
      <trkpt lat="42.87782" lon="0.14536">
        <ele>2086.22</ele>
        <time>2019-02-26T11:23:19Z</time>
      </trkpt>
      <trkpt lat="42.87778" lon="0.14544">
        <ele>2086.54</ele>
        <time>2019-02-26T11:23:29Z</time>
      </trkpt>
      <trkpt lat="42.87775" lon="0.14553">
        <ele>2087.66</ele>
        <time>2019-02-26T11:23:39Z</time>
      </trkpt>
      <trkpt lat="42.87773" lon="0.14559">
        <ele>2089.01</ele>
        <time>2019-02-26T11:23:49Z</time>
      </trkpt>
      <trkpt lat="42.8777" lon="0.14565">
        <ele>2090.19</ele>
        <time>2019-02-26T11:23:59Z</time>
      </trkpt>
      <trkpt lat="42.87768" lon="0.14572">
        <ele>2090.75</ele>
        <time>2019-02-26T11:24:09Z</time>
      </trkpt>
      <trkpt lat="42.87765" lon="0.14579">
        <ele>2091.58</ele>
        <time>2019-02-26T11:24:19Z</time>
      </trkpt>
      <trkpt lat="42.87764" lon="0.14581">
        <ele>2091.78</ele>
        <time>2019-02-26T11:24:39Z</time>
      </trkpt>
      <trkpt lat="42.87762" lon="0.14587">
        <ele>2092.27</ele>
        <time>2019-02-26T11:24:49Z</time>
      </trkpt>
      <trkpt lat="42.8776" lon="0.14591">
        <ele>2093.69</ele>
        <time>2019-02-26T11:24:59Z</time>
      </trkpt>
      <trkpt lat="42.87758" lon="0.14597">
        <ele>2093.4</ele>
        <time>2019-02-26T11:25:09Z</time>
      </trkpt>
      <trkpt lat="42.87757" lon="0.14603">
        <ele>2094.31</ele>
        <time>2019-02-26T11:25:39Z</time>
      </trkpt>
      <trkpt lat="42.87756" lon="0.14603">
        <ele>2093.91</ele>
        <time>2019-02-26T11:25:59Z</time>
      </trkpt>
      <trkpt lat="42.87757" lon="0.14603">
        <ele>2093.83</ele>
        <time>2019-02-26T11:26:09Z</time>
      </trkpt>
      <trkpt lat="42.87756" lon="0.14604">
        <ele>2093.94</ele>
        <time>2019-02-26T11:26:29Z</time>
      </trkpt>
      <trkpt lat="42.87754" lon="0.14608">
        <ele>2094.16</ele>
        <time>2019-02-26T11:26:39Z</time>
      </trkpt>
      <trkpt lat="42.87754" lon="0.1461">
        <ele>2094.63</ele>
        <time>2019-02-26T11:26:59Z</time>
      </trkpt>
      <trkpt lat="42.87754" lon="0.14609">
        <ele>2094.34</ele>
        <time>2019-02-26T11:27:09Z</time>
      </trkpt>
      <trkpt lat="42.87753" lon="0.14609">
        <ele>2094.76</ele>
        <time>2019-02-26T11:27:29Z</time>
      </trkpt>
      <trkpt lat="42.8775" lon="0.14614">
        <ele>2094.25</ele>
        <time>2019-02-26T11:27:39Z</time>
      </trkpt>
      <trkpt lat="42.87747" lon="0.14621">
        <ele>2095</ele>
        <time>2019-02-26T11:28:29Z</time>
      </trkpt>
      <trkpt lat="42.87745" lon="0.14625">
        <ele>2095.47</ele>
        <time>2019-02-26T11:28:39Z</time>
      </trkpt>
      <trkpt lat="42.87742" lon="0.14633">
        <ele>2095.58</ele>
        <time>2019-02-26T11:28:49Z</time>
      </trkpt>
      <trkpt lat="42.87739" lon="0.14643">
        <ele>2095.28</ele>
        <time>2019-02-26T11:28:59Z</time>
      </trkpt>
      <trkpt lat="42.87738" lon="0.14652">
        <ele>2094.16</ele>
        <time>2019-02-26T11:29:09Z</time>
      </trkpt>
      <trkpt lat="42.87737" lon="0.14662">
        <ele>2094.76</ele>
        <time>2019-02-26T11:29:19Z</time>
      </trkpt>
      <trkpt lat="42.87735" lon="0.14668">
        <ele>2094.43</ele>
        <time>2019-02-26T11:29:29Z</time>
      </trkpt>
      <trkpt lat="42.87733" lon="0.1468">
        <ele>2094.51</ele>
        <time>2019-02-26T11:29:39Z</time>
      </trkpt>
      <trkpt lat="42.87732" lon="0.14689">
        <ele>2094.64</ele>
        <time>2019-02-26T11:29:49Z</time>
      </trkpt>
      <trkpt lat="42.87731" lon="0.147">
        <ele>2094.77</ele>
        <time>2019-02-26T11:29:59Z</time>
      </trkpt>
      <trkpt lat="42.87729" lon="0.14709">
        <ele>2094.76</ele>
        <time>2019-02-26T11:30:19Z</time>
      </trkpt>
      <trkpt lat="42.87729" lon="0.14713">
        <ele>2094.6</ele>
        <time>2019-02-26T11:30:29Z</time>
      </trkpt>
      <trkpt lat="42.87727" lon="0.14724">
        <ele>2094.81</ele>
        <time>2019-02-26T11:30:39Z</time>
      </trkpt>
      <trkpt lat="42.87726" lon="0.14737">
        <ele>2094.41</ele>
        <time>2019-02-26T11:30:49Z</time>
      </trkpt>
      <trkpt lat="42.87723" lon="0.1475">
        <ele>2094.37</ele>
        <time>2019-02-26T11:30:59Z</time>
      </trkpt>
      <trkpt lat="42.8772" lon="0.14761">
        <ele>2094.32</ele>
        <time>2019-02-26T11:31:09Z</time>
      </trkpt>
      <trkpt lat="42.87718" lon="0.14773">
        <ele>2095.24</ele>
        <time>2019-02-26T11:31:19Z</time>
      </trkpt>
      <trkpt lat="42.87716" lon="0.14784">
        <ele>2094.95</ele>
        <time>2019-02-26T11:31:29Z</time>
      </trkpt>
      <trkpt lat="42.87713" lon="0.14793">
        <ele>2095.43</ele>
        <time>2019-02-26T11:31:39Z</time>
      </trkpt>
      <trkpt lat="42.8771" lon="0.14802">
        <ele>2096.34</ele>
        <time>2019-02-26T11:31:49Z</time>
      </trkpt>
      <trkpt lat="42.8771" lon="0.14806">
        <ele>2096.31</ele>
        <time>2019-02-26T11:31:59Z</time>
      </trkpt>
      <trkpt lat="42.87709" lon="0.1481">
        <ele>2096.6</ele>
        <time>2019-02-26T11:32:09Z</time>
      </trkpt>
      <trkpt lat="42.87707" lon="0.14815">
        <ele>2097.61</ele>
        <time>2019-02-26T11:32:19Z</time>
      </trkpt>
      <trkpt lat="42.87706" lon="0.1482">
        <ele>2099.09</ele>
        <time>2019-02-26T11:32:29Z</time>
      </trkpt>
      <trkpt lat="42.87705" lon="0.14825">
        <ele>2100.25</ele>
        <time>2019-02-26T11:32:39Z</time>
      </trkpt>
      <trkpt lat="42.87705" lon="0.14824">
        <ele>2100.43</ele>
        <time>2019-02-26T11:32:49Z</time>
      </trkpt>
      <trkpt lat="42.87704" lon="0.14829">
        <ele>2101.77</ele>
        <time>2019-02-26T11:32:59Z</time>
      </trkpt>
      <trkpt lat="42.87703" lon="0.14836">
        <ele>2102.84</ele>
        <time>2019-02-26T11:33:09Z</time>
      </trkpt>
      <trkpt lat="42.87702" lon="0.1484">
        <ele>2103.38</ele>
        <time>2019-02-26T11:33:19Z</time>
      </trkpt>
      <trkpt lat="42.87701" lon="0.14845">
        <ele>2104.49</ele>
        <time>2019-02-26T11:33:29Z</time>
      </trkpt>
      <trkpt lat="42.87701" lon="0.14849">
        <ele>2104.93</ele>
        <time>2019-02-26T11:33:39Z</time>
      </trkpt>
      <trkpt lat="42.87701" lon="0.14852">
        <ele>2105.97</ele>
        <time>2019-02-26T11:33:49Z</time>
      </trkpt>
      <trkpt lat="42.87701" lon="0.14856">
        <ele>2107.35</ele>
        <time>2019-02-26T11:33:59Z</time>
      </trkpt>
      <trkpt lat="42.87699" lon="0.14861">
        <ele>2108.28</ele>
        <time>2019-02-26T11:34:09Z</time>
      </trkpt>
      <trkpt lat="42.87698" lon="0.14864">
        <ele>2108.88</ele>
        <time>2019-02-26T11:34:19Z</time>
      </trkpt>
      <trkpt lat="42.87698" lon="0.14865">
        <ele>2109.02</ele>
        <time>2019-02-26T11:34:39Z</time>
      </trkpt>
      <trkpt lat="42.87696" lon="0.14871">
        <ele>2110.53</ele>
        <time>2019-02-26T11:34:59Z</time>
      </trkpt>
      <trkpt lat="42.87695" lon="0.14876">
        <ele>2110.47</ele>
        <time>2019-02-26T11:35:09Z</time>
      </trkpt>
      <trkpt lat="42.87693" lon="0.14884">
        <ele>2111.74</ele>
        <time>2019-02-26T11:35:19Z</time>
      </trkpt>
      <trkpt lat="42.87692" lon="0.14893">
        <ele>2113.11</ele>
        <time>2019-02-26T11:35:29Z</time>
      </trkpt>
      <trkpt lat="42.87691" lon="0.14899">
        <ele>2113.7</ele>
        <time>2019-02-26T11:35:39Z</time>
      </trkpt>
      <trkpt lat="42.8769" lon="0.14901">
        <ele>2113.59</ele>
        <time>2019-02-26T11:35:59Z</time>
      </trkpt>
      <trkpt lat="42.87688" lon="0.1491">
        <ele>2114.16</ele>
        <time>2019-02-26T11:36:09Z</time>
      </trkpt>
      <trkpt lat="42.87686" lon="0.14919">
        <ele>2115.89</ele>
        <time>2019-02-26T11:36:19Z</time>
      </trkpt>
      <trkpt lat="42.87684" lon="0.14929">
        <ele>2115.56</ele>
        <time>2019-02-26T11:36:29Z</time>
      </trkpt>
      <trkpt lat="42.87682" lon="0.14937">
        <ele>2115.94</ele>
        <time>2019-02-26T11:36:39Z</time>
      </trkpt>
      <trkpt lat="42.87681" lon="0.14941">
        <ele>2116.04</ele>
        <time>2019-02-26T11:36:49Z</time>
      </trkpt>
      <trkpt lat="42.87682" lon="0.14942">
        <ele>2116.81</ele>
        <time>2019-02-26T11:36:59Z</time>
      </trkpt>
      <trkpt lat="42.87681" lon="0.14941">
        <ele>2116.7</ele>
        <time>2019-02-26T11:37:09Z</time>
      </trkpt>
      <trkpt lat="42.8768" lon="0.14941">
        <ele>2116.14</ele>
        <time>2019-02-26T11:37:19Z</time>
      </trkpt>
      <trkpt lat="42.87678" lon="0.14945">
        <ele>2116.72</ele>
        <time>2019-02-26T11:37:29Z</time>
      </trkpt>
      <trkpt lat="42.87678" lon="0.14954">
        <ele>2118.84</ele>
        <time>2019-02-26T11:37:39Z</time>
      </trkpt>
      <trkpt lat="42.87676" lon="0.14961">
        <ele>2119.77</ele>
        <time>2019-02-26T11:37:49Z</time>
      </trkpt>
      <trkpt lat="42.87676" lon="0.14968">
        <ele>2121.74</ele>
        <time>2019-02-26T11:37:59Z</time>
      </trkpt>
      <trkpt lat="42.87675" lon="0.14968">
        <ele>2121.97</ele>
        <time>2019-02-26T11:38:09Z</time>
      </trkpt>
      <trkpt lat="42.87674" lon="0.14969">
        <ele>2122.14</ele>
        <time>2019-02-26T11:38:19Z</time>
      </trkpt>
      <trkpt lat="42.87674" lon="0.1497">
        <ele>2121.47</ele>
        <time>2019-02-26T11:38:49Z</time>
      </trkpt>
      <trkpt lat="42.87675" lon="0.14974">
        <ele>2122.91</ele>
        <time>2019-02-26T11:38:59Z</time>
      </trkpt>
      <trkpt lat="42.87674" lon="0.14981">
        <ele>2124.49</ele>
        <time>2019-02-26T11:39:09Z</time>
      </trkpt>
      <trkpt lat="42.87673" lon="0.14987">
        <ele>2125.07</ele>
        <time>2019-02-26T11:39:19Z</time>
      </trkpt>
      <trkpt lat="42.87672" lon="0.14989">
        <ele>2125.55</ele>
        <time>2019-02-26T11:39:29Z</time>
      </trkpt>
      <trkpt lat="42.87671" lon="0.1499">
        <ele>2126.02</ele>
        <time>2019-02-26T11:39:39Z</time>
      </trkpt>
      <trkpt lat="42.87669" lon="0.14996">
        <ele>2127.34</ele>
        <time>2019-02-26T11:39:49Z</time>
      </trkpt>
      <trkpt lat="42.87669" lon="0.15001">
        <ele>2128.08</ele>
        <time>2019-02-26T11:39:59Z</time>
      </trkpt>
      <trkpt lat="42.87666" lon="0.15005">
        <ele>2128.35</ele>
        <time>2019-02-26T11:40:09Z</time>
      </trkpt>
      <trkpt lat="42.87665" lon="0.15006">
        <ele>2128.33</ele>
        <time>2019-02-26T11:40:19Z</time>
      </trkpt>
      <trkpt lat="42.87662" lon="0.1501">
        <ele>2129.54</ele>
        <time>2019-02-26T11:40:29Z</time>
      </trkpt>
      <trkpt lat="42.8766" lon="0.15012">
        <ele>2130.89</ele>
        <time>2019-02-26T11:40:39Z</time>
      </trkpt>
      <trkpt lat="42.87657" lon="0.15015">
        <ele>2130.81</ele>
        <time>2019-02-26T11:40:49Z</time>
      </trkpt>
      <trkpt lat="42.87656" lon="0.15016">
        <ele>2131.26</ele>
        <time>2019-02-26T11:40:59Z</time>
      </trkpt>
      <trkpt lat="42.87655" lon="0.15016">
        <ele>2131.37</ele>
        <time>2019-02-26T11:41:09Z</time>
      </trkpt>
      <trkpt lat="42.87654" lon="0.15017">
        <ele>2130.88</ele>
        <time>2019-02-26T11:41:19Z</time>
      </trkpt>
      <trkpt lat="42.87655" lon="0.15016">
        <ele>2132.2</ele>
        <time>2019-02-26T11:41:29Z</time>
      </trkpt>
      <trkpt lat="42.87648" lon="0.15021">
        <ele>2132.87</ele>
        <time>2019-02-26T11:41:39Z</time>
      </trkpt>
      <trkpt lat="42.87642" lon="0.15028">
        <ele>2133.31</ele>
        <time>2019-02-26T11:41:49Z</time>
      </trkpt>
      <trkpt lat="42.87637" lon="0.15036">
        <ele>2134.18</ele>
        <time>2019-02-26T11:41:59Z</time>
      </trkpt>
      <trkpt lat="42.87633" lon="0.15042">
        <ele>2135.25</ele>
        <time>2019-02-26T11:42:09Z</time>
      </trkpt>
      <trkpt lat="42.8763" lon="0.15048">
        <ele>2136.5</ele>
        <time>2019-02-26T11:42:19Z</time>
      </trkpt>
      <trkpt lat="42.87627" lon="0.15054">
        <ele>2137.25</ele>
        <time>2019-02-26T11:42:29Z</time>
      </trkpt>
      <trkpt lat="42.87625" lon="0.15059">
        <ele>2137.68</ele>
        <time>2019-02-26T11:42:39Z</time>
      </trkpt>
      <trkpt lat="42.87623" lon="0.15063">
        <ele>2138.24</ele>
        <time>2019-02-26T11:42:49Z</time>
      </trkpt>
      <trkpt lat="42.87622" lon="0.15064">
        <ele>2138.4</ele>
        <time>2019-02-26T11:42:59Z</time>
      </trkpt>
      <trkpt lat="42.8762" lon="0.1507">
        <ele>2139.15</ele>
        <time>2019-02-26T11:43:09Z</time>
      </trkpt>
      <trkpt lat="42.87617" lon="0.15078">
        <ele>2140.18</ele>
        <time>2019-02-26T11:43:19Z</time>
      </trkpt>
      <trkpt lat="42.87616" lon="0.1508">
        <ele>2140.74</ele>
        <time>2019-02-26T11:43:29Z</time>
      </trkpt>
      <trkpt lat="42.87613" lon="0.15085">
        <ele>2141.07</ele>
        <time>2019-02-26T11:43:49Z</time>
      </trkpt>
      <trkpt lat="42.87609" lon="0.15091">
        <ele>2142.24</ele>
        <time>2019-02-26T11:43:59Z</time>
      </trkpt>
      <trkpt lat="42.87605" lon="0.151">
        <ele>2143.7</ele>
        <time>2019-02-26T11:44:09Z</time>
      </trkpt>
      <trkpt lat="42.87601" lon="0.15109">
        <ele>2144.82</ele>
        <time>2019-02-26T11:44:19Z</time>
      </trkpt>
      <trkpt lat="42.87598" lon="0.15116">
        <ele>2145.5</ele>
        <time>2019-02-26T11:44:29Z</time>
      </trkpt>
      <trkpt lat="42.87598" lon="0.15115">
        <ele>2145.34</ele>
        <time>2019-02-26T11:44:39Z</time>
      </trkpt>
      <trkpt lat="42.87598" lon="0.15116">
        <ele>2145.39</ele>
        <time>2019-02-26T11:44:49Z</time>
      </trkpt>
      <trkpt lat="42.87595" lon="0.15127">
        <ele>2145.51</ele>
        <time>2019-02-26T11:44:59Z</time>
      </trkpt>
      <trkpt lat="42.87591" lon="0.1514">
        <ele>2145.41</ele>
        <time>2019-02-26T11:45:09Z</time>
      </trkpt>
      <trkpt lat="42.87588" lon="0.15151">
        <ele>2146.25</ele>
        <time>2019-02-26T11:45:19Z</time>
      </trkpt>
      <trkpt lat="42.87583" lon="0.1516">
        <ele>2146.97</ele>
        <time>2019-02-26T11:45:29Z</time>
      </trkpt>
      <trkpt lat="42.87578" lon="0.15169">
        <ele>2146.55</ele>
        <time>2019-02-26T11:45:39Z</time>
      </trkpt>
      <trkpt lat="42.87574" lon="0.15175">
        <ele>2146.49</ele>
        <time>2019-02-26T11:45:49Z</time>
      </trkpt>
      <trkpt lat="42.87568" lon="0.15182">
        <ele>2147.29</ele>
        <time>2019-02-26T11:45:59Z</time>
      </trkpt>
      <trkpt lat="42.87561" lon="0.15189">
        <ele>2148.43</ele>
        <time>2019-02-26T11:46:09Z</time>
      </trkpt>
      <trkpt lat="42.87554" lon="0.15195">
        <ele>2149.29</ele>
        <time>2019-02-26T11:46:19Z</time>
      </trkpt>
      <trkpt lat="42.87546" lon="0.15198">
        <ele>2149.87</ele>
        <time>2019-02-26T11:46:29Z</time>
      </trkpt>
      <trkpt lat="42.87539" lon="0.15201">
        <ele>2150.81</ele>
        <time>2019-02-26T11:46:39Z</time>
      </trkpt>
      <trkpt lat="42.87532" lon="0.15204">
        <ele>2151.12</ele>
        <time>2019-02-26T11:46:49Z</time>
      </trkpt>
      <trkpt lat="42.87525" lon="0.15202">
        <ele>2152.68</ele>
        <time>2019-02-26T11:46:59Z</time>
      </trkpt>
      <trkpt lat="42.8752" lon="0.15206">
        <ele>2152.98</ele>
        <time>2019-02-26T11:47:09Z</time>
      </trkpt>
      <trkpt lat="42.8752" lon="0.15208">
        <ele>2152.85</ele>
        <time>2019-02-26T11:47:19Z</time>
      </trkpt>
      <trkpt lat="42.87517" lon="0.15214">
        <ele>2152.31</ele>
        <time>2019-02-26T11:47:29Z</time>
      </trkpt>
      <trkpt lat="42.87515" lon="0.15222">
        <ele>2153.91</ele>
        <time>2019-02-26T11:47:39Z</time>
      </trkpt>
      <trkpt lat="42.87516" lon="0.15231">
        <ele>2154.22</ele>
        <time>2019-02-26T11:47:49Z</time>
      </trkpt>
      <trkpt lat="42.87516" lon="0.15238">
        <ele>2154.13</ele>
        <time>2019-02-26T11:47:59Z</time>
      </trkpt>
      <trkpt lat="42.87518" lon="0.15241">
        <ele>2154.81</ele>
        <time>2019-02-26T11:48:09Z</time>
      </trkpt>
      <trkpt lat="42.87517" lon="0.15242">
        <ele>2154.64</ele>
        <time>2019-02-26T11:48:29Z</time>
      </trkpt>
      <trkpt lat="42.87516" lon="0.15242">
        <ele>2154.3</ele>
        <time>2019-02-26T11:49:59Z</time>
      </trkpt>
      <trkpt lat="42.87514" lon="0.15242">
        <ele>2154.48</ele>
        <time>2019-02-26T11:50:09Z</time>
      </trkpt>
      <trkpt lat="42.87514" lon="0.15244">
        <ele>2154.07</ele>
        <time>2019-02-26T11:51:09Z</time>
      </trkpt>
      <trkpt lat="42.87515" lon="0.15244">
        <ele>2154.96</ele>
        <time>2019-02-26T11:51:49Z</time>
      </trkpt>
      <trkpt lat="42.87516" lon="0.15244">
        <ele>2154.76</ele>
        <time>2019-02-26T11:51:59Z</time>
      </trkpt>
      <trkpt lat="42.87517" lon="0.15244">
        <ele>2154.89</ele>
        <time>2019-02-26T11:52:09Z</time>
      </trkpt>
      <trkpt lat="42.87517" lon="0.15243">
        <ele>2154.12</ele>
        <time>2019-02-26T11:53:09Z</time>
      </trkpt>
      <trkpt lat="42.87518" lon="0.15244">
        <ele>2154.44</ele>
        <time>2019-02-26T11:53:19Z</time>
      </trkpt>
      <trkpt lat="42.87518" lon="0.15248">
        <ele>2156.16</ele>
        <time>2019-02-26T12:06:49Z</time>
      </trkpt>
      <trkpt lat="42.87517" lon="0.15242">
        <ele>2156.05</ele>
        <time>2019-02-26T12:35:39Z</time>
      </trkpt>
      <trkpt lat="42.87516" lon="0.15243">
        <ele>2155.71</ele>
        <time>2019-02-26T12:35:49Z</time>
      </trkpt>
      <trkpt lat="42.87517" lon="0.15241">
        <ele>2156.78</ele>
        <time>2019-02-26T12:35:59Z</time>
      </trkpt>
      <trkpt lat="42.87516" lon="0.1524">
        <ele>2157.24</ele>
        <time>2019-02-26T12:36:19Z</time>
      </trkpt>
      <trkpt lat="42.87515" lon="0.15236">
        <ele>2155.88</ele>
        <time>2019-02-26T12:36:39Z</time>
      </trkpt>
      <trkpt lat="42.87514" lon="0.15225">
        <ele>2155.53</ele>
        <time>2019-02-26T12:36:49Z</time>
      </trkpt>
      <trkpt lat="42.87512" lon="0.15218">
        <ele>2155</ele>
        <time>2019-02-26T12:36:59Z</time>
      </trkpt>
      <trkpt lat="42.87513" lon="0.15206">
        <ele>2154.62</ele>
        <time>2019-02-26T12:37:09Z</time>
      </trkpt>
      <trkpt lat="42.87514" lon="0.15195">
        <ele>2153.6</ele>
        <time>2019-02-26T12:37:19Z</time>
      </trkpt>
      <trkpt lat="42.87514" lon="0.15183">
        <ele>2153.84</ele>
        <time>2019-02-26T12:37:29Z</time>
      </trkpt>
      <trkpt lat="42.87516" lon="0.15171">
        <ele>2151.45</ele>
        <time>2019-02-26T12:37:39Z</time>
      </trkpt>
      <trkpt lat="42.87516" lon="0.15159">
        <ele>2150.36</ele>
        <time>2019-02-26T12:37:49Z</time>
      </trkpt>
      <trkpt lat="42.87515" lon="0.1515">
        <ele>2148.95</ele>
        <time>2019-02-26T12:37:59Z</time>
      </trkpt>
      <trkpt lat="42.87515" lon="0.15139">
        <ele>2148.54</ele>
        <time>2019-02-26T12:38:09Z</time>
      </trkpt>
      <trkpt lat="42.87516" lon="0.15127">
        <ele>2148.22</ele>
        <time>2019-02-26T12:38:19Z</time>
      </trkpt>
      <trkpt lat="42.87516" lon="0.15115">
        <ele>2147.7</ele>
        <time>2019-02-26T12:38:29Z</time>
      </trkpt>
      <trkpt lat="42.87515" lon="0.15102">
        <ele>2146.44</ele>
        <time>2019-02-26T12:38:39Z</time>
      </trkpt>
      <trkpt lat="42.87514" lon="0.15089">
        <ele>2146.29</ele>
        <time>2019-02-26T12:38:49Z</time>
      </trkpt>
      <trkpt lat="42.87512" lon="0.15077">
        <ele>2145.52</ele>
        <time>2019-02-26T12:38:59Z</time>
      </trkpt>
      <trkpt lat="42.87511" lon="0.15065">
        <ele>2144.52</ele>
        <time>2019-02-26T12:39:09Z</time>
      </trkpt>
      <trkpt lat="42.87512" lon="0.15054">
        <ele>2143.4</ele>
        <time>2019-02-26T12:39:19Z</time>
      </trkpt>
      <trkpt lat="42.87512" lon="0.15043">
        <ele>2141.94</ele>
        <time>2019-02-26T12:39:29Z</time>
      </trkpt>
      <trkpt lat="42.87511" lon="0.15031">
        <ele>2140.57</ele>
        <time>2019-02-26T12:39:39Z</time>
      </trkpt>
      <trkpt lat="42.8751" lon="0.1502">
        <ele>2139.29</ele>
        <time>2019-02-26T12:39:49Z</time>
      </trkpt>
      <trkpt lat="42.87509" lon="0.15007">
        <ele>2138.14</ele>
        <time>2019-02-26T12:39:59Z</time>
      </trkpt>
      <trkpt lat="42.87508" lon="0.15004">
        <ele>2137.05</ele>
        <time>2019-02-26T12:41:09Z</time>
      </trkpt>
      <trkpt lat="42.87508" lon="0.15002">
        <ele>2136.45</ele>
        <time>2019-02-26T12:41:49Z</time>
      </trkpt>
      <trkpt lat="42.87509" lon="0.15002">
        <ele>2136.43</ele>
        <time>2019-02-26T12:41:59Z</time>
      </trkpt>
      <trkpt lat="42.87509" lon="0.14996">
        <ele>2135.83</ele>
        <time>2019-02-26T12:42:09Z</time>
      </trkpt>
      <trkpt lat="42.8751" lon="0.14983">
        <ele>2134.69</ele>
        <time>2019-02-26T12:42:19Z</time>
      </trkpt>
      <trkpt lat="42.87511" lon="0.1497">
        <ele>2133.22</ele>
        <time>2019-02-26T12:42:29Z</time>
      </trkpt>
      <trkpt lat="42.8751" lon="0.14959">
        <ele>2131.9</ele>
        <time>2019-02-26T12:42:39Z</time>
      </trkpt>
      <trkpt lat="42.87512" lon="0.14947">
        <ele>2130.54</ele>
        <time>2019-02-26T12:42:49Z</time>
      </trkpt>
      <trkpt lat="42.87515" lon="0.14936">
        <ele>2129.36</ele>
        <time>2019-02-26T12:42:59Z</time>
      </trkpt>
      <trkpt lat="42.87518" lon="0.14924">
        <ele>2128.06</ele>
        <time>2019-02-26T12:43:09Z</time>
      </trkpt>
      <trkpt lat="42.87521" lon="0.14912">
        <ele>2126.9</ele>
        <time>2019-02-26T12:43:19Z</time>
      </trkpt>
      <trkpt lat="42.87524" lon="0.14901">
        <ele>2124.86</ele>
        <time>2019-02-26T12:43:29Z</time>
      </trkpt>
      <trkpt lat="42.87526" lon="0.14889">
        <ele>2123.96</ele>
        <time>2019-02-26T12:43:39Z</time>
      </trkpt>
      <trkpt lat="42.87528" lon="0.14875">
        <ele>2122.71</ele>
        <time>2019-02-26T12:43:49Z</time>
      </trkpt>
      <trkpt lat="42.87531" lon="0.14863">
        <ele>2120.78</ele>
        <time>2019-02-26T12:43:59Z</time>
      </trkpt>
      <trkpt lat="42.87534" lon="0.14851">
        <ele>2118.93</ele>
        <time>2019-02-26T12:44:09Z</time>
      </trkpt>
      <trkpt lat="42.87538" lon="0.14839">
        <ele>2118.02</ele>
        <time>2019-02-26T12:44:19Z</time>
      </trkpt>
      <trkpt lat="42.87542" lon="0.14828">
        <ele>2117.36</ele>
        <time>2019-02-26T12:44:29Z</time>
      </trkpt>
      <trkpt lat="42.87544" lon="0.14816">
        <ele>2116.78</ele>
        <time>2019-02-26T12:44:39Z</time>
      </trkpt>
      <trkpt lat="42.87545" lon="0.14809">
        <ele>2115.99</ele>
        <time>2019-02-26T12:44:49Z</time>
      </trkpt>
      <trkpt lat="42.87547" lon="0.14796">
        <ele>2115.33</ele>
        <time>2019-02-26T12:44:59Z</time>
      </trkpt>
      <trkpt lat="42.87549" lon="0.14783">
        <ele>2114.89</ele>
        <time>2019-02-26T12:45:09Z</time>
      </trkpt>
      <trkpt lat="42.87551" lon="0.14775">
        <ele>2115.35</ele>
        <time>2019-02-26T12:45:19Z</time>
      </trkpt>
      <trkpt lat="42.87558" lon="0.14766">
        <ele>2114.56</ele>
        <time>2019-02-26T12:45:29Z</time>
      </trkpt>
      <trkpt lat="42.87566" lon="0.14757">
        <ele>2113.76</ele>
        <time>2019-02-26T12:45:39Z</time>
      </trkpt>
      <trkpt lat="42.87571" lon="0.14749">
        <ele>2113.71</ele>
        <time>2019-02-26T12:45:49Z</time>
      </trkpt>
      <trkpt lat="42.87576" lon="0.14741">
        <ele>2113.7</ele>
        <time>2019-02-26T12:45:59Z</time>
      </trkpt>
      <trkpt lat="42.87582" lon="0.14731">
        <ele>2112.54</ele>
        <time>2019-02-26T12:46:09Z</time>
      </trkpt>
      <trkpt lat="42.87588" lon="0.14721">
        <ele>2112.44</ele>
        <time>2019-02-26T12:46:19Z</time>
      </trkpt>
      <trkpt lat="42.87594" lon="0.14711">
        <ele>2111.58</ele>
        <time>2019-02-26T12:46:29Z</time>
      </trkpt>
      <trkpt lat="42.87598" lon="0.14702">
        <ele>2111.16</ele>
        <time>2019-02-26T12:46:39Z</time>
      </trkpt>
      <trkpt lat="42.87603" lon="0.14692">
        <ele>2111.04</ele>
        <time>2019-02-26T12:46:49Z</time>
      </trkpt>
      <trkpt lat="42.87608" lon="0.1468">
        <ele>2110.61</ele>
        <time>2019-02-26T12:46:59Z</time>
      </trkpt>
      <trkpt lat="42.87612" lon="0.14668">
        <ele>2109.95</ele>
        <time>2019-02-26T12:47:09Z</time>
      </trkpt>
      <trkpt lat="42.87616" lon="0.14658">
        <ele>2109.12</ele>
        <time>2019-02-26T12:47:19Z</time>
      </trkpt>
      <trkpt lat="42.87619" lon="0.14647">
        <ele>2107.44</ele>
        <time>2019-02-26T12:47:29Z</time>
      </trkpt>
      <trkpt lat="42.87619" lon="0.14637">
        <ele>2106.62</ele>
        <time>2019-02-26T12:47:39Z</time>
      </trkpt>
      <trkpt lat="42.87619" lon="0.14629">
        <ele>2104.91</ele>
        <time>2019-02-26T12:47:49Z</time>
      </trkpt>
      <trkpt lat="42.87623" lon="0.14618">
        <ele>2103.31</ele>
        <time>2019-02-26T12:47:59Z</time>
      </trkpt>
      <trkpt lat="42.87626" lon="0.14607">
        <ele>2101.67</ele>
        <time>2019-02-26T12:48:09Z</time>
      </trkpt>
      <trkpt lat="42.87628" lon="0.14597">
        <ele>2101.16</ele>
        <time>2019-02-26T12:48:19Z</time>
      </trkpt>
      <trkpt lat="42.87629" lon="0.14589">
        <ele>2099.17</ele>
        <time>2019-02-26T12:48:29Z</time>
      </trkpt>
      <trkpt lat="42.87626" lon="0.14579">
        <ele>2097.9</ele>
        <time>2019-02-26T12:48:39Z</time>
      </trkpt>
      <trkpt lat="42.87625" lon="0.14568">
        <ele>2096.03</ele>
        <time>2019-02-26T12:48:49Z</time>
      </trkpt>
      <trkpt lat="42.87623" lon="0.14557">
        <ele>2094.6</ele>
        <time>2019-02-26T12:48:59Z</time>
      </trkpt>
      <trkpt lat="42.87624" lon="0.14545">
        <ele>2093.06</ele>
        <time>2019-02-26T12:49:09Z</time>
      </trkpt>
      <trkpt lat="42.87624" lon="0.14532">
        <ele>2092.28</ele>
        <time>2019-02-26T12:49:19Z</time>
      </trkpt>
      <trkpt lat="42.87628" lon="0.14522">
        <ele>2092.06</ele>
        <time>2019-02-26T12:49:29Z</time>
      </trkpt>
      <trkpt lat="42.87632" lon="0.1451">
        <ele>2091.87</ele>
        <time>2019-02-26T12:49:39Z</time>
      </trkpt>
      <trkpt lat="42.87638" lon="0.14498">
        <ele>2090.27</ele>
        <time>2019-02-26T12:49:49Z</time>
      </trkpt>
      <trkpt lat="42.8764" lon="0.14496">
        <ele>2089.62</ele>
        <time>2019-02-26T12:49:59Z</time>
      </trkpt>
      <trkpt lat="42.87646" lon="0.14486">
        <ele>2089.07</ele>
        <time>2019-02-26T12:50:09Z</time>
      </trkpt>
      <trkpt lat="42.87653" lon="0.14475">
        <ele>2088.75</ele>
        <time>2019-02-26T12:50:19Z</time>
      </trkpt>
      <trkpt lat="42.8766" lon="0.14464">
        <ele>2087.11</ele>
        <time>2019-02-26T12:50:29Z</time>
      </trkpt>
      <trkpt lat="42.87665" lon="0.14455">
        <ele>2085.9</ele>
        <time>2019-02-26T12:50:39Z</time>
      </trkpt>
      <trkpt lat="42.87667" lon="0.14453">
        <ele>2085.1</ele>
        <time>2019-02-26T12:52:09Z</time>
      </trkpt>
      <trkpt lat="42.87666" lon="0.14453">
        <ele>2085.69</ele>
        <time>2019-02-26T12:52:19Z</time>
      </trkpt>
      <trkpt lat="42.87666" lon="0.14454">
        <ele>2085.08</ele>
        <time>2019-02-26T12:52:29Z</time>
      </trkpt>
      <trkpt lat="42.87667" lon="0.14451">
        <ele>2085.43</ele>
        <time>2019-02-26T12:52:39Z</time>
      </trkpt>
      <trkpt lat="42.87668" lon="0.14451">
        <ele>2085.3</ele>
        <time>2019-02-26T12:52:59Z</time>
      </trkpt>
      <trkpt lat="42.87669" lon="0.1445">
        <ele>2084.99</ele>
        <time>2019-02-26T12:53:09Z</time>
      </trkpt>
      <trkpt lat="42.8767" lon="0.14448">
        <ele>2084.79</ele>
        <time>2019-02-26T12:53:29Z</time>
      </trkpt>
      <trkpt lat="42.8767" lon="0.14444">
        <ele>2085.27</ele>
        <time>2019-02-26T12:53:49Z</time>
      </trkpt>
      <trkpt lat="42.87674" lon="0.14442">
        <ele>2084.85</ele>
        <time>2019-02-26T12:53:59Z</time>
      </trkpt>
      <trkpt lat="42.8768" lon="0.14434">
        <ele>2083.43</ele>
        <time>2019-02-26T12:54:09Z</time>
      </trkpt>
      <trkpt lat="42.87686" lon="0.14425">
        <ele>2082.85</ele>
        <time>2019-02-26T12:54:19Z</time>
      </trkpt>
      <trkpt lat="42.87694" lon="0.14415">
        <ele>2081.53</ele>
        <time>2019-02-26T12:54:29Z</time>
      </trkpt>
      <trkpt lat="42.877" lon="0.14406">
        <ele>2081.2</ele>
        <time>2019-02-26T12:54:39Z</time>
      </trkpt>
      <trkpt lat="42.87707" lon="0.14397">
        <ele>2079.91</ele>
        <time>2019-02-26T12:54:49Z</time>
      </trkpt>
      <trkpt lat="42.87714" lon="0.14388">
        <ele>2078.88</ele>
        <time>2019-02-26T12:54:59Z</time>
      </trkpt>
      <trkpt lat="42.8772" lon="0.1438">
        <ele>2079</ele>
        <time>2019-02-26T12:55:09Z</time>
      </trkpt>
      <trkpt lat="42.87722" lon="0.14378">
        <ele>2078.78</ele>
        <time>2019-02-26T12:55:19Z</time>
      </trkpt>
      <trkpt lat="42.87729" lon="0.14371">
        <ele>2078.43</ele>
        <time>2019-02-26T12:55:29Z</time>
      </trkpt>
      <trkpt lat="42.87738" lon="0.14363">
        <ele>2077.07</ele>
        <time>2019-02-26T12:55:39Z</time>
      </trkpt>
      <trkpt lat="42.87747" lon="0.14356">
        <ele>2076.71</ele>
        <time>2019-02-26T12:55:49Z</time>
      </trkpt>
      <trkpt lat="42.87756" lon="0.1435">
        <ele>2075.45</ele>
        <time>2019-02-26T12:55:59Z</time>
      </trkpt>
      <trkpt lat="42.87765" lon="0.14341">
        <ele>2074.83</ele>
        <time>2019-02-26T12:56:09Z</time>
      </trkpt>
      <trkpt lat="42.87773" lon="0.14334">
        <ele>2073.81</ele>
        <time>2019-02-26T12:56:19Z</time>
      </trkpt>
      <trkpt lat="42.87779" lon="0.14325">
        <ele>2072.97</ele>
        <time>2019-02-26T12:56:29Z</time>
      </trkpt>
      <trkpt lat="42.87784" lon="0.14315">
        <ele>2071.78</ele>
        <time>2019-02-26T12:56:39Z</time>
      </trkpt>
      <trkpt lat="42.87791" lon="0.14307">
        <ele>2071.06</ele>
        <time>2019-02-26T12:56:49Z</time>
      </trkpt>
      <trkpt lat="42.87797" lon="0.143">
        <ele>2070.55</ele>
        <time>2019-02-26T12:56:59Z</time>
      </trkpt>
      <trkpt lat="42.87801" lon="0.14293">
        <ele>2069.84</ele>
        <time>2019-02-26T12:57:09Z</time>
      </trkpt>
      <trkpt lat="42.87805" lon="0.14286">
        <ele>2069.68</ele>
        <time>2019-02-26T12:57:19Z</time>
      </trkpt>
      <trkpt lat="42.87808" lon="0.14279">
        <ele>2069.77</ele>
        <time>2019-02-26T12:57:29Z</time>
      </trkpt>
      <trkpt lat="42.8781" lon="0.14274">
        <ele>2069.15</ele>
        <time>2019-02-26T12:57:39Z</time>
      </trkpt>
      <trkpt lat="42.8781" lon="0.1427">
        <ele>2069.03</ele>
        <time>2019-02-26T12:57:49Z</time>
      </trkpt>
      <trkpt lat="42.87811" lon="0.14265">
        <ele>2068.87</ele>
        <time>2019-02-26T12:57:59Z</time>
      </trkpt>
      <trkpt lat="42.87812" lon="0.14264">
        <ele>2068.38</ele>
        <time>2019-02-26T12:58:09Z</time>
      </trkpt>
      <trkpt lat="42.87812" lon="0.14262">
        <ele>2068.16</ele>
        <time>2019-02-26T12:58:19Z</time>
      </trkpt>
      <trkpt lat="42.87811" lon="0.1426">
        <ele>2067.68</ele>
        <time>2019-02-26T12:58:29Z</time>
      </trkpt>
      <trkpt lat="42.8781" lon="0.14253">
        <ele>2065.95</ele>
        <time>2019-02-26T12:58:39Z</time>
      </trkpt>
      <trkpt lat="42.87806" lon="0.14248">
        <ele>2064.82</ele>
        <time>2019-02-26T12:58:49Z</time>
      </trkpt>
      <trkpt lat="42.87807" lon="0.14243">
        <ele>2063.89</ele>
        <time>2019-02-26T12:58:59Z</time>
      </trkpt>
      <trkpt lat="42.87808" lon="0.14238">
        <ele>2063.01</ele>
        <time>2019-02-26T12:59:09Z</time>
      </trkpt>
      <trkpt lat="42.87807" lon="0.14228">
        <ele>2060.49</ele>
        <time>2019-02-26T12:59:19Z</time>
      </trkpt>
      <trkpt lat="42.87806" lon="0.14219">
        <ele>2058.87</ele>
        <time>2019-02-26T12:59:29Z</time>
      </trkpt>
      <trkpt lat="42.87805" lon="0.14212">
        <ele>2057.82</ele>
        <time>2019-02-26T12:59:39Z</time>
      </trkpt>
      <trkpt lat="42.87808" lon="0.14205">
        <ele>2056.57</ele>
        <time>2019-02-26T12:59:49Z</time>
      </trkpt>
      <trkpt lat="42.87807" lon="0.14196">
        <ele>2055.08</ele>
        <time>2019-02-26T12:59:59Z</time>
      </trkpt>
      <trkpt lat="42.87806" lon="0.14188">
        <ele>2053.57</ele>
        <time>2019-02-26T13:00:09Z</time>
      </trkpt>
      <trkpt lat="42.87808" lon="0.14182">
        <ele>2053.27</ele>
        <time>2019-02-26T13:00:19Z</time>
      </trkpt>
      <trkpt lat="42.87813" lon="0.1418">
        <ele>2053.56</ele>
        <time>2019-02-26T13:00:29Z</time>
      </trkpt>
      <trkpt lat="42.87817" lon="0.14177">
        <ele>2052.79</ele>
        <time>2019-02-26T13:00:39Z</time>
      </trkpt>
      <trkpt lat="42.87823" lon="0.14176">
        <ele>2050.73</ele>
        <time>2019-02-26T13:00:49Z</time>
      </trkpt>
      <trkpt lat="42.87827" lon="0.14177">
        <ele>2049</ele>
        <time>2019-02-26T13:00:59Z</time>
      </trkpt>
      <trkpt lat="42.8783" lon="0.14176">
        <ele>2048.27</ele>
        <time>2019-02-26T13:01:09Z</time>
      </trkpt>
      <trkpt lat="42.87831" lon="0.14174">
        <ele>2047.84</ele>
        <time>2019-02-26T13:01:19Z</time>
      </trkpt>
      <trkpt lat="42.87835" lon="0.14169">
        <ele>2046.87</ele>
        <time>2019-02-26T13:01:29Z</time>
      </trkpt>
      <trkpt lat="42.8784" lon="0.14167">
        <ele>2045.38</ele>
        <time>2019-02-26T13:01:39Z</time>
      </trkpt>
      <trkpt lat="42.87843" lon="0.14164">
        <ele>2043.44</ele>
        <time>2019-02-26T13:01:49Z</time>
      </trkpt>
      <trkpt lat="42.87847" lon="0.14153">
        <ele>2042.87</ele>
        <time>2019-02-26T13:01:59Z</time>
      </trkpt>
      <trkpt lat="42.87847" lon="0.14145">
        <ele>2042.79</ele>
        <time>2019-02-26T13:02:09Z</time>
      </trkpt>
      <trkpt lat="42.87849" lon="0.1414">
        <ele>2043.28</ele>
        <time>2019-02-26T13:02:19Z</time>
      </trkpt>
      <trkpt lat="42.8785" lon="0.14137">
        <ele>2042.66</ele>
        <time>2019-02-26T13:02:29Z</time>
      </trkpt>
      <trkpt lat="42.87851" lon="0.14132">
        <ele>2041.85</ele>
        <time>2019-02-26T13:02:39Z</time>
      </trkpt>
      <trkpt lat="42.87851" lon="0.14129">
        <ele>2040.49</ele>
        <time>2019-02-26T13:02:49Z</time>
      </trkpt>
      <trkpt lat="42.87854" lon="0.14121">
        <ele>2039.39</ele>
        <time>2019-02-26T13:02:59Z</time>
      </trkpt>
      <trkpt lat="42.87861" lon="0.14118">
        <ele>2036.72</ele>
        <time>2019-02-26T13:03:09Z</time>
      </trkpt>
      <trkpt lat="42.87867" lon="0.14113">
        <ele>2034.35</ele>
        <time>2019-02-26T13:03:19Z</time>
      </trkpt>
      <trkpt lat="42.87874" lon="0.14112">
        <ele>2031.66</ele>
        <time>2019-02-26T13:03:29Z</time>
      </trkpt>
      <trkpt lat="42.87882" lon="0.14107">
        <ele>2030.17</ele>
        <time>2019-02-26T13:03:39Z</time>
      </trkpt>
      <trkpt lat="42.87886" lon="0.14095">
        <ele>2028.38</ele>
        <time>2019-02-26T13:03:49Z</time>
      </trkpt>
      <trkpt lat="42.87888" lon="0.1408">
        <ele>2027.48</ele>
        <time>2019-02-26T13:03:59Z</time>
      </trkpt>
      <trkpt lat="42.87893" lon="0.14069">
        <ele>2026.8</ele>
        <time>2019-02-26T13:04:09Z</time>
      </trkpt>
      <trkpt lat="42.87896" lon="0.14056">
        <ele>2025.55</ele>
        <time>2019-02-26T13:04:19Z</time>
      </trkpt>
      <trkpt lat="42.87897" lon="0.14043">
        <ele>2024.03</ele>
        <time>2019-02-26T13:04:29Z</time>
      </trkpt>
      <trkpt lat="42.87905" lon="0.14031">
        <ele>2022.9</ele>
        <time>2019-02-26T13:04:39Z</time>
      </trkpt>
      <trkpt lat="42.87907" lon="0.14021">
        <ele>2021.77</ele>
        <time>2019-02-26T13:04:49Z</time>
      </trkpt>
      <trkpt lat="42.87905" lon="0.14015">
        <ele>2021.58</ele>
        <time>2019-02-26T13:04:59Z</time>
      </trkpt>
      <trkpt lat="42.8791" lon="0.14006">
        <ele>2020.1</ele>
        <time>2019-02-26T13:05:09Z</time>
      </trkpt>
      <trkpt lat="42.87908" lon="0.13997">
        <ele>2018.37</ele>
        <time>2019-02-26T13:05:19Z</time>
      </trkpt>
      <trkpt lat="42.87906" lon="0.13986">
        <ele>2018.54</ele>
        <time>2019-02-26T13:05:29Z</time>
      </trkpt>
      <trkpt lat="42.8791" lon="0.13974">
        <ele>2017.52</ele>
        <time>2019-02-26T13:05:39Z</time>
      </trkpt>
      <trkpt lat="42.87913" lon="0.13963">
        <ele>2016.37</ele>
        <time>2019-02-26T13:05:49Z</time>
      </trkpt>
      <trkpt lat="42.87919" lon="0.13953">
        <ele>2015.21</ele>
        <time>2019-02-26T13:05:59Z</time>
      </trkpt>
      <trkpt lat="42.87924" lon="0.1394">
        <ele>2013.78</ele>
        <time>2019-02-26T13:06:09Z</time>
      </trkpt>
      <trkpt lat="42.87928" lon="0.13927">
        <ele>2012.11</ele>
        <time>2019-02-26T13:06:19Z</time>
      </trkpt>
      <trkpt lat="42.8793" lon="0.13915">
        <ele>2011.32</ele>
        <time>2019-02-26T13:06:29Z</time>
      </trkpt>
      <trkpt lat="42.8793" lon="0.13901">
        <ele>2010.71</ele>
        <time>2019-02-26T13:06:39Z</time>
      </trkpt>
      <trkpt lat="42.87933" lon="0.13889">
        <ele>2009.26</ele>
        <time>2019-02-26T13:06:49Z</time>
      </trkpt>
      <trkpt lat="42.87935" lon="0.13877">
        <ele>2007.7</ele>
        <time>2019-02-26T13:06:59Z</time>
      </trkpt>
      <trkpt lat="42.87939" lon="0.13866">
        <ele>2005.92</ele>
        <time>2019-02-26T13:07:09Z</time>
      </trkpt>
      <trkpt lat="42.87943" lon="0.13853">
        <ele>2005.62</ele>
        <time>2019-02-26T13:07:19Z</time>
      </trkpt>
      <trkpt lat="42.87945" lon="0.13839">
        <ele>2004.38</ele>
        <time>2019-02-26T13:07:29Z</time>
      </trkpt>
      <trkpt lat="42.87946" lon="0.13826">
        <ele>2003.57</ele>
        <time>2019-02-26T13:07:39Z</time>
      </trkpt>
      <trkpt lat="42.87948" lon="0.13815">
        <ele>2003.53</ele>
        <time>2019-02-26T13:07:49Z</time>
      </trkpt>
      <trkpt lat="42.87952" lon="0.13804">
        <ele>2002.8</ele>
        <time>2019-02-26T13:07:59Z</time>
      </trkpt>
      <trkpt lat="42.87957" lon="0.13793">
        <ele>2001.87</ele>
        <time>2019-02-26T13:08:09Z</time>
      </trkpt>
      <trkpt lat="42.87961" lon="0.13781">
        <ele>2000.9</ele>
        <time>2019-02-26T13:08:19Z</time>
      </trkpt>
      <trkpt lat="42.87964" lon="0.13768">
        <ele>1999.63</ele>
        <time>2019-02-26T13:08:29Z</time>
      </trkpt>
      <trkpt lat="42.87967" lon="0.13757">
        <ele>1998.78</ele>
        <time>2019-02-26T13:08:39Z</time>
      </trkpt>
      <trkpt lat="42.87973" lon="0.13747">
        <ele>1998.7</ele>
        <time>2019-02-26T13:08:49Z</time>
      </trkpt>
      <trkpt lat="42.87977" lon="0.13737">
        <ele>1997.52</ele>
        <time>2019-02-26T13:08:59Z</time>
      </trkpt>
      <trkpt lat="42.87981" lon="0.13727">
        <ele>1996.21</ele>
        <time>2019-02-26T13:09:09Z</time>
      </trkpt>
      <trkpt lat="42.87982" lon="0.13714">
        <ele>1995.61</ele>
        <time>2019-02-26T13:09:19Z</time>
      </trkpt>
      <trkpt lat="42.87985" lon="0.13704">
        <ele>1994.36</ele>
        <time>2019-02-26T13:09:29Z</time>
      </trkpt>
      <trkpt lat="42.87988" lon="0.13694">
        <ele>1994.18</ele>
        <time>2019-02-26T13:09:39Z</time>
      </trkpt>
      <trkpt lat="42.87993" lon="0.13686">
        <ele>1992.73</ele>
        <time>2019-02-26T13:09:49Z</time>
      </trkpt>
      <trkpt lat="42.87997" lon="0.13678">
        <ele>1991.47</ele>
        <time>2019-02-26T13:09:59Z</time>
      </trkpt>
      <trkpt lat="42.87998" lon="0.13669">
        <ele>1990.86</ele>
        <time>2019-02-26T13:10:09Z</time>
      </trkpt>
      <trkpt lat="42.88001" lon="0.1366">
        <ele>1989.15</ele>
        <time>2019-02-26T13:10:19Z</time>
      </trkpt>
      <trkpt lat="42.88004" lon="0.13651">
        <ele>1987.66</ele>
        <time>2019-02-26T13:10:29Z</time>
      </trkpt>
      <trkpt lat="42.8801" lon="0.13646">
        <ele>1986.85</ele>
        <time>2019-02-26T13:10:39Z</time>
      </trkpt>
      <trkpt lat="42.8801" lon="0.13636">
        <ele>1984.43</ele>
        <time>2019-02-26T13:10:49Z</time>
      </trkpt>
      <trkpt lat="42.88013" lon="0.13626">
        <ele>1983.54</ele>
        <time>2019-02-26T13:10:59Z</time>
      </trkpt>
      <trkpt lat="42.88015" lon="0.13618">
        <ele>1981.56</ele>
        <time>2019-02-26T13:11:09Z</time>
      </trkpt>
      <trkpt lat="42.88018" lon="0.13607">
        <ele>1979.65</ele>
        <time>2019-02-26T13:11:19Z</time>
      </trkpt>
      <trkpt lat="42.88022" lon="0.13596">
        <ele>1978.54</ele>
        <time>2019-02-26T13:11:29Z</time>
      </trkpt>
      <trkpt lat="42.88026" lon="0.13587">
        <ele>1976.52</ele>
        <time>2019-02-26T13:11:39Z</time>
      </trkpt>
      <trkpt lat="42.88029" lon="0.13579">
        <ele>1976</ele>
        <time>2019-02-26T13:11:49Z</time>
      </trkpt>
      <trkpt lat="42.88033" lon="0.13571">
        <ele>1974.06</ele>
        <time>2019-02-26T13:11:59Z</time>
      </trkpt>
      <trkpt lat="42.88038" lon="0.13563">
        <ele>1972.66</ele>
        <time>2019-02-26T13:12:09Z</time>
      </trkpt>
      <trkpt lat="42.88045" lon="0.13558">
        <ele>1970.99</ele>
        <time>2019-02-26T13:12:19Z</time>
      </trkpt>
      <trkpt lat="42.88052" lon="0.13553">
        <ele>1969.51</ele>
        <time>2019-02-26T13:12:29Z</time>
      </trkpt>
      <trkpt lat="42.88059" lon="0.13546">
        <ele>1967.37</ele>
        <time>2019-02-26T13:12:39Z</time>
      </trkpt>
      <trkpt lat="42.88066" lon="0.13541">
        <ele>1966.23</ele>
        <time>2019-02-26T13:12:49Z</time>
      </trkpt>
      <trkpt lat="42.88069" lon="0.13538">
        <ele>1965.44</ele>
        <time>2019-02-26T13:12:59Z</time>
      </trkpt>
      <trkpt lat="42.88073" lon="0.13534">
        <ele>1964.66</ele>
        <time>2019-02-26T13:13:09Z</time>
      </trkpt>
      <trkpt lat="42.88078" lon="0.13526">
        <ele>1964.15</ele>
        <time>2019-02-26T13:13:19Z</time>
      </trkpt>
      <trkpt lat="42.88083" lon="0.1352">
        <ele>1962.35</ele>
        <time>2019-02-26T13:13:29Z</time>
      </trkpt>
      <trkpt lat="42.88088" lon="0.1351">
        <ele>1961.14</ele>
        <time>2019-02-26T13:13:39Z</time>
      </trkpt>
      <trkpt lat="42.8809" lon="0.135">
        <ele>1960.14</ele>
        <time>2019-02-26T13:13:49Z</time>
      </trkpt>
      <trkpt lat="42.88091" lon="0.13491">
        <ele>1959.6</ele>
        <time>2019-02-26T13:13:59Z</time>
      </trkpt>
      <trkpt lat="42.88089" lon="0.13481">
        <ele>1958.61</ele>
        <time>2019-02-26T13:14:09Z</time>
      </trkpt>
      <trkpt lat="42.88089" lon="0.13468">
        <ele>1957.46</ele>
        <time>2019-02-26T13:14:19Z</time>
      </trkpt>
      <trkpt lat="42.88093" lon="0.13456">
        <ele>1956.5</ele>
        <time>2019-02-26T13:14:29Z</time>
      </trkpt>
      <trkpt lat="42.88096" lon="0.13445">
        <ele>1954.72</ele>
        <time>2019-02-26T13:14:39Z</time>
      </trkpt>
      <trkpt lat="42.88099" lon="0.13431">
        <ele>1953.14</ele>
        <time>2019-02-26T13:14:49Z</time>
      </trkpt>
      <trkpt lat="42.88099" lon="0.13416">
        <ele>1952.69</ele>
        <time>2019-02-26T13:14:59Z</time>
      </trkpt>
      <trkpt lat="42.881" lon="0.13402">
        <ele>1952.03</ele>
        <time>2019-02-26T13:15:09Z</time>
      </trkpt>
      <trkpt lat="42.88103" lon="0.13388">
        <ele>1950.93</ele>
        <time>2019-02-26T13:15:19Z</time>
      </trkpt>
      <trkpt lat="42.88105" lon="0.13375">
        <ele>1950.59</ele>
        <time>2019-02-26T13:15:29Z</time>
      </trkpt>
      <trkpt lat="42.88108" lon="0.13362">
        <ele>1949.67</ele>
        <time>2019-02-26T13:15:39Z</time>
      </trkpt>
      <trkpt lat="42.88112" lon="0.13349">
        <ele>1949.17</ele>
        <time>2019-02-26T13:15:49Z</time>
      </trkpt>
      <trkpt lat="42.88114" lon="0.13337">
        <ele>1948.17</ele>
        <time>2019-02-26T13:15:59Z</time>
      </trkpt>
      <trkpt lat="42.88115" lon="0.13325">
        <ele>1947.04</ele>
        <time>2019-02-26T13:16:09Z</time>
      </trkpt>
      <trkpt lat="42.88117" lon="0.13314">
        <ele>1946.89</ele>
        <time>2019-02-26T13:16:19Z</time>
      </trkpt>
      <trkpt lat="42.88118" lon="0.13303">
        <ele>1945.86</ele>
        <time>2019-02-26T13:16:29Z</time>
      </trkpt>
      <trkpt lat="42.88119" lon="0.13292">
        <ele>1945.01</ele>
        <time>2019-02-26T13:16:39Z</time>
      </trkpt>
      <trkpt lat="42.8812" lon="0.13282">
        <ele>1945.11</ele>
        <time>2019-02-26T13:16:49Z</time>
      </trkpt>
      <trkpt lat="42.88122" lon="0.13273">
        <ele>1945.7</ele>
        <time>2019-02-26T13:16:59Z</time>
      </trkpt>
      <trkpt lat="42.88123" lon="0.13261">
        <ele>1945.77</ele>
        <time>2019-02-26T13:17:09Z</time>
      </trkpt>
      <trkpt lat="42.88123" lon="0.13251">
        <ele>1944.57</ele>
        <time>2019-02-26T13:17:19Z</time>
      </trkpt>
      <trkpt lat="42.88124" lon="0.1324">
        <ele>1943.33</ele>
        <time>2019-02-26T13:17:29Z</time>
      </trkpt>
      <trkpt lat="42.88124" lon="0.13227">
        <ele>1942.42</ele>
        <time>2019-02-26T13:17:39Z</time>
      </trkpt>
      <trkpt lat="42.88123" lon="0.13217">
        <ele>1942.1</ele>
        <time>2019-02-26T13:17:49Z</time>
      </trkpt>
      <trkpt lat="42.88122" lon="0.13208">
        <ele>1940.87</ele>
        <time>2019-02-26T13:17:59Z</time>
      </trkpt>
      <trkpt lat="42.88122" lon="0.13198">
        <ele>1939.89</ele>
        <time>2019-02-26T13:18:09Z</time>
      </trkpt>
      <trkpt lat="42.88124" lon="0.13187">
        <ele>1938.07</ele>
        <time>2019-02-26T13:18:19Z</time>
      </trkpt>
      <trkpt lat="42.88124" lon="0.13176">
        <ele>1938.22</ele>
        <time>2019-02-26T13:18:29Z</time>
      </trkpt>
      <trkpt lat="42.88125" lon="0.13167">
        <ele>1937.5</ele>
        <time>2019-02-26T13:18:39Z</time>
      </trkpt>
      <trkpt lat="42.88126" lon="0.13157">
        <ele>1937.24</ele>
        <time>2019-02-26T13:18:49Z</time>
      </trkpt>
      <trkpt lat="42.88128" lon="0.13147">
        <ele>1937.53</ele>
        <time>2019-02-26T13:18:59Z</time>
      </trkpt>
      <trkpt lat="42.88133" lon="0.13135">
        <ele>1936.75</ele>
        <time>2019-02-26T13:19:09Z</time>
      </trkpt>
      <trkpt lat="42.88137" lon="0.13125">
        <ele>1936.62</ele>
        <time>2019-02-26T13:19:19Z</time>
      </trkpt>
      <trkpt lat="42.88142" lon="0.13114">
        <ele>1935.62</ele>
        <time>2019-02-26T13:19:29Z</time>
      </trkpt>
      <trkpt lat="42.88146" lon="0.13105">
        <ele>1935.23</ele>
        <time>2019-02-26T13:19:39Z</time>
      </trkpt>
      <trkpt lat="42.8815" lon="0.13093">
        <ele>1934.86</ele>
        <time>2019-02-26T13:19:49Z</time>
      </trkpt>
      <trkpt lat="42.88154" lon="0.13082">
        <ele>1934.37</ele>
        <time>2019-02-26T13:19:59Z</time>
      </trkpt>
      <trkpt lat="42.88156" lon="0.1307">
        <ele>1934.68</ele>
        <time>2019-02-26T13:20:09Z</time>
      </trkpt>
      <trkpt lat="42.88156" lon="0.13057">
        <ele>1934.05</ele>
        <time>2019-02-26T13:20:19Z</time>
      </trkpt>
      <trkpt lat="42.88157" lon="0.13044">
        <ele>1933.94</ele>
        <time>2019-02-26T13:20:29Z</time>
      </trkpt>
      <trkpt lat="42.88158" lon="0.13032">
        <ele>1933.23</ele>
        <time>2019-02-26T13:20:39Z</time>
      </trkpt>
      <trkpt lat="42.88156" lon="0.13021">
        <ele>1933.14</ele>
        <time>2019-02-26T13:20:49Z</time>
      </trkpt>
      <trkpt lat="42.88159" lon="0.1301">
        <ele>1932.89</ele>
        <time>2019-02-26T13:20:59Z</time>
      </trkpt>
      <trkpt lat="42.8816" lon="0.12998">
        <ele>1931.4</ele>
        <time>2019-02-26T13:21:09Z</time>
      </trkpt>
      <trkpt lat="42.88161" lon="0.12986">
        <ele>1931.47</ele>
        <time>2019-02-26T13:21:19Z</time>
      </trkpt>
      <trkpt lat="42.88162" lon="0.12974">
        <ele>1931.71</ele>
        <time>2019-02-26T13:21:29Z</time>
      </trkpt>
      <trkpt lat="42.88163" lon="0.12967">
        <ele>1930.8</ele>
        <time>2019-02-26T13:21:39Z</time>
      </trkpt>
      <trkpt lat="42.88164" lon="0.12961">
        <ele>1930.13</ele>
        <time>2019-02-26T13:21:49Z</time>
      </trkpt>
      <trkpt lat="42.88165" lon="0.12958">
        <ele>1929.96</ele>
        <time>2019-02-26T13:21:59Z</time>
      </trkpt>
      <trkpt lat="42.88166" lon="0.12949">
        <ele>1929.92</ele>
        <time>2019-02-26T13:22:09Z</time>
      </trkpt>
      <trkpt lat="42.88168" lon="0.12939">
        <ele>1928.82</ele>
        <time>2019-02-26T13:22:19Z</time>
      </trkpt>
      <trkpt lat="42.88172" lon="0.12931">
        <ele>1928.14</ele>
        <time>2019-02-26T13:22:29Z</time>
      </trkpt>
      <trkpt lat="42.88175" lon="0.12929">
        <ele>1927.24</ele>
        <time>2019-02-26T13:22:39Z</time>
      </trkpt>
      <trkpt lat="42.88179" lon="0.12925">
        <ele>1926.27</ele>
        <time>2019-02-26T13:22:49Z</time>
      </trkpt>
      <trkpt lat="42.88182" lon="0.12919">
        <ele>1925.69</ele>
        <time>2019-02-26T13:22:59Z</time>
      </trkpt>
      <trkpt lat="42.88186" lon="0.12915">
        <ele>1925.02</ele>
        <time>2019-02-26T13:23:19Z</time>
      </trkpt>
      <trkpt lat="42.88189" lon="0.1291">
        <ele>1924.96</ele>
        <time>2019-02-26T13:23:29Z</time>
      </trkpt>
      <trkpt lat="42.88193" lon="0.12905">
        <ele>1925.13</ele>
        <time>2019-02-26T13:23:39Z</time>
      </trkpt>
      <trkpt lat="42.88193" lon="0.12906">
        <ele>1924.94</ele>
        <time>2019-02-26T13:24:09Z</time>
      </trkpt>
      <trkpt lat="42.88193" lon="0.12907">
        <ele>1925.13</ele>
        <time>2019-02-26T13:24:19Z</time>
      </trkpt>
      <trkpt lat="42.88192" lon="0.12907">
        <ele>1924.39</ele>
        <time>2019-02-26T13:24:29Z</time>
      </trkpt>
      <trkpt lat="42.88193" lon="0.12907">
        <ele>1924.87</ele>
        <time>2019-02-26T13:24:39Z</time>
      </trkpt>
      <trkpt lat="42.88192" lon="0.12907">
        <ele>1925.02</ele>
        <time>2019-02-26T13:24:49Z</time>
      </trkpt>
      <trkpt lat="42.88192" lon="0.12906">
        <ele>1924.76</ele>
        <time>2019-02-26T13:25:09Z</time>
      </trkpt>
      <trkpt lat="42.88193" lon="0.12906">
        <ele>1925.08</ele>
        <time>2019-02-26T13:25:19Z</time>
      </trkpt>
      <trkpt lat="42.88193" lon="0.12907">
        <ele>1924.79</ele>
        <time>2019-02-26T13:25:39Z</time>
      </trkpt>
      <trkpt lat="42.88193" lon="0.12906">
        <ele>1925.4</ele>
        <time>2019-02-26T13:26:09Z</time>
      </trkpt>
      <trkpt lat="42.88194" lon="0.12908">
        <ele>1924.54</ele>
        <time>2019-02-26T13:26:19Z</time>
      </trkpt>
      <trkpt lat="42.88194" lon="0.12909">
        <ele>1924.92</ele>
        <time>2019-02-26T13:26:49Z</time>
      </trkpt>
      <trkpt lat="42.88194" lon="0.12908">
        <ele>1924.47</ele>
        <time>2019-02-26T13:26:59Z</time>
      </trkpt>
      <trkpt lat="42.88193" lon="0.12908">
        <ele>1924.64</ele>
        <time>2019-02-26T13:27:39Z</time>
      </trkpt>
      <trkpt lat="42.88192" lon="0.12909">
        <ele>1924.74</ele>
        <time>2019-02-26T13:27:49Z</time>
      </trkpt>
      <trkpt lat="42.88191" lon="0.12909">
        <ele>1924.75</ele>
        <time>2019-02-26T13:27:59Z</time>
      </trkpt>
      <trkpt lat="42.8819" lon="0.1291">
        <ele>1924.78</ele>
        <time>2019-02-26T13:28:19Z</time>
      </trkpt>
      <trkpt lat="42.88192" lon="0.12909">
        <ele>1924.35</ele>
        <time>2019-02-26T13:28:39Z</time>
      </trkpt>
      <trkpt lat="42.88194" lon="0.1291">
        <ele>1924.43</ele>
        <time>2019-02-26T13:28:49Z</time>
      </trkpt>
      <trkpt lat="42.88193" lon="0.12909">
        <ele>1924.15</ele>
        <time>2019-02-26T13:30:39Z</time>
      </trkpt>
      <trkpt lat="42.88195" lon="0.12909">
        <ele>1924.42</ele>
        <time>2019-02-26T13:35:09Z</time>
      </trkpt>
      <trkpt lat="42.88195" lon="0.12908">
        <ele>1924.54</ele>
        <time>2019-02-26T13:35:39Z</time>
      </trkpt>
      <trkpt lat="42.88196" lon="0.12908">
        <ele>1924.25</ele>
        <time>2019-02-26T13:35:49Z</time>
      </trkpt>
      <trkpt lat="42.88198" lon="0.12907">
        <ele>1924</ele>
        <time>2019-02-26T13:35:59Z</time>
      </trkpt>
      <trkpt lat="42.882" lon="0.12906">
        <ele>1924.16</ele>
        <time>2019-02-26T13:36:09Z</time>
      </trkpt>
      <trkpt lat="42.88198" lon="0.12907">
        <ele>1923.92</ele>
        <time>2019-02-26T13:36:19Z</time>
      </trkpt>
      <trkpt lat="42.88197" lon="0.12908">
        <ele>1923.96</ele>
        <time>2019-02-26T13:36:29Z</time>
      </trkpt>
      <trkpt lat="42.88196" lon="0.12908">
        <ele>1924.11</ele>
        <time>2019-02-26T13:36:59Z</time>
      </trkpt>
      <trkpt lat="42.88196" lon="0.12907">
        <ele>1924.61</ele>
        <time>2019-02-26T13:37:09Z</time>
      </trkpt>
      <trkpt lat="42.88195" lon="0.12907">
        <ele>1924.08</ele>
        <time>2019-02-26T13:37:19Z</time>
      </trkpt>
      <trkpt lat="42.88194" lon="0.12908">
        <ele>1924.14</ele>
        <time>2019-02-26T13:37:39Z</time>
      </trkpt>
      <trkpt lat="42.88195" lon="0.12908">
        <ele>1924.28</ele>
        <time>2019-02-26T13:37:49Z</time>
      </trkpt>
      <trkpt lat="42.88195" lon="0.12907">
        <ele>1924.65</ele>
        <time>2019-02-26T13:37:59Z</time>
      </trkpt>
      <trkpt lat="42.88196" lon="0.12906">
        <ele>1925.09</ele>
        <time>2019-02-26T13:38:09Z</time>
      </trkpt>
      <trkpt lat="42.88195" lon="0.12905">
        <ele>1925.01</ele>
        <time>2019-02-26T13:38:19Z</time>
      </trkpt>
      <trkpt lat="42.88195" lon="0.12906">
        <ele>1925.05</ele>
        <time>2019-02-26T13:38:29Z</time>
      </trkpt>
      <trkpt lat="42.88196" lon="0.12908">
        <ele>1924.42</ele>
        <time>2019-02-26T13:38:39Z</time>
      </trkpt>
      <trkpt lat="42.88193" lon="0.12908">
        <ele>1924.68</ele>
        <time>2019-02-26T13:38:49Z</time>
      </trkpt>
      <trkpt lat="42.88192" lon="0.1291">
        <ele>1924.2</ele>
        <time>2019-02-26T13:38:59Z</time>
      </trkpt>
      <trkpt lat="42.8819" lon="0.12903">
        <ele>1922.88</ele>
        <time>2019-02-26T13:39:09Z</time>
      </trkpt>
      <trkpt lat="42.88193" lon="0.12893">
        <ele>1921.52</ele>
        <time>2019-02-26T13:39:19Z</time>
      </trkpt>
      <trkpt lat="42.88195" lon="0.12881">
        <ele>1919.86</ele>
        <time>2019-02-26T13:39:29Z</time>
      </trkpt>
      <trkpt lat="42.88199" lon="0.12871">
        <ele>1919.38</ele>
        <time>2019-02-26T13:39:39Z</time>
      </trkpt>
      <trkpt lat="42.88203" lon="0.1286">
        <ele>1918.47</ele>
        <time>2019-02-26T13:39:49Z</time>
      </trkpt>
      <trkpt lat="42.88206" lon="0.12849">
        <ele>1918.11</ele>
        <time>2019-02-26T13:39:59Z</time>
      </trkpt>
      <trkpt lat="42.88209" lon="0.12837">
        <ele>1917.63</ele>
        <time>2019-02-26T13:40:09Z</time>
      </trkpt>
      <trkpt lat="42.88211" lon="0.12829">
        <ele>1917.21</ele>
        <time>2019-02-26T13:40:19Z</time>
      </trkpt>
      <trkpt lat="42.8821" lon="0.12822">
        <ele>1917.57</ele>
        <time>2019-02-26T13:40:29Z</time>
      </trkpt>
      <trkpt lat="42.8821" lon="0.1282">
        <ele>1917.51</ele>
        <time>2019-02-26T13:40:39Z</time>
      </trkpt>
      <trkpt lat="42.88211" lon="0.12819">
        <ele>1917.37</ele>
        <time>2019-02-26T13:40:49Z</time>
      </trkpt>
      <trkpt lat="42.8821" lon="0.12819">
        <ele>1917.36</ele>
        <time>2019-02-26T13:40:59Z</time>
      </trkpt>
      <trkpt lat="42.88211" lon="0.12819">
        <ele>1918.26</ele>
        <time>2019-02-26T13:42:19Z</time>
      </trkpt>
      <trkpt lat="42.88211" lon="0.12817">
        <ele>1917.71</ele>
        <time>2019-02-26T13:42:29Z</time>
      </trkpt>
      <trkpt lat="42.88211" lon="0.12816">
        <ele>1917.6</ele>
        <time>2019-02-26T13:42:39Z</time>
      </trkpt>
      <trkpt lat="42.88211" lon="0.12815">
        <ele>1917.62</ele>
        <time>2019-02-26T13:42:49Z</time>
      </trkpt>
      <trkpt lat="42.8821" lon="0.12814">
        <ele>1917.75</ele>
        <time>2019-02-26T13:42:59Z</time>
      </trkpt>
      <trkpt lat="42.8821" lon="0.12811">
        <ele>1917.59</ele>
        <time>2019-02-26T13:43:19Z</time>
      </trkpt>
      <trkpt lat="42.8821" lon="0.12805">
        <ele>1917.86</ele>
        <time>2019-02-26T13:43:29Z</time>
      </trkpt>
      <trkpt lat="42.88209" lon="0.128">
        <ele>1917.53</ele>
        <time>2019-02-26T13:43:39Z</time>
      </trkpt>
      <trkpt lat="42.88208" lon="0.12795">
        <ele>1917.05</ele>
        <time>2019-02-26T13:43:49Z</time>
      </trkpt>
      <trkpt lat="42.88206" lon="0.12784">
        <ele>1917.37</ele>
        <time>2019-02-26T13:43:59Z</time>
      </trkpt>
      <trkpt lat="42.88204" lon="0.12771">
        <ele>1917.32</ele>
        <time>2019-02-26T13:44:09Z</time>
      </trkpt>
      <trkpt lat="42.88203" lon="0.12759">
        <ele>1917.12</ele>
        <time>2019-02-26T13:44:19Z</time>
      </trkpt>
      <trkpt lat="42.882" lon="0.12748">
        <ele>1917.09</ele>
        <time>2019-02-26T13:44:29Z</time>
      </trkpt>
      <trkpt lat="42.88201" lon="0.12734">
        <ele>1916.58</ele>
        <time>2019-02-26T13:44:39Z</time>
      </trkpt>
      <trkpt lat="42.88203" lon="0.12724">
        <ele>1916.05</ele>
        <time>2019-02-26T13:44:49Z</time>
      </trkpt>
      <trkpt lat="42.88205" lon="0.12717">
        <ele>1915.74</ele>
        <time>2019-02-26T13:44:59Z</time>
      </trkpt>
      <trkpt lat="42.88205" lon="0.12703">
        <ele>1914.26</ele>
        <time>2019-02-26T13:45:09Z</time>
      </trkpt>
      <trkpt lat="42.88204" lon="0.1269">
        <ele>1913.15</ele>
        <time>2019-02-26T13:45:19Z</time>
      </trkpt>
      <trkpt lat="42.88203" lon="0.12677">
        <ele>1911.54</ele>
        <time>2019-02-26T13:45:29Z</time>
      </trkpt>
      <trkpt lat="42.88201" lon="0.12666">
        <ele>1910.69</ele>
        <time>2019-02-26T13:45:39Z</time>
      </trkpt>
      <trkpt lat="42.88199" lon="0.12654">
        <ele>1909.09</ele>
        <time>2019-02-26T13:45:49Z</time>
      </trkpt>
      <trkpt lat="42.88198" lon="0.12641">
        <ele>1907.98</ele>
        <time>2019-02-26T13:45:59Z</time>
      </trkpt>
      <trkpt lat="42.88197" lon="0.12628">
        <ele>1906.5</ele>
        <time>2019-02-26T13:46:09Z</time>
      </trkpt>
      <trkpt lat="42.88196" lon="0.12615">
        <ele>1905.01</ele>
        <time>2019-02-26T13:46:19Z</time>
      </trkpt>
      <trkpt lat="42.88196" lon="0.12602">
        <ele>1903.33</ele>
        <time>2019-02-26T13:46:29Z</time>
      </trkpt>
      <trkpt lat="42.88195" lon="0.12589">
        <ele>1901.53</ele>
        <time>2019-02-26T13:46:39Z</time>
      </trkpt>
      <trkpt lat="42.88195" lon="0.12578">
        <ele>1900.5</ele>
        <time>2019-02-26T13:46:49Z</time>
      </trkpt>
      <trkpt lat="42.88197" lon="0.12567">
        <ele>1899.25</ele>
        <time>2019-02-26T13:46:59Z</time>
      </trkpt>
      <trkpt lat="42.88199" lon="0.12555">
        <ele>1897.83</ele>
        <time>2019-02-26T13:47:09Z</time>
      </trkpt>
      <trkpt lat="42.882" lon="0.12542">
        <ele>1896.85</ele>
        <time>2019-02-26T13:47:19Z</time>
      </trkpt>
      <trkpt lat="42.88202" lon="0.1253">
        <ele>1895.8</ele>
        <time>2019-02-26T13:47:29Z</time>
      </trkpt>
      <trkpt lat="42.88203" lon="0.12518">
        <ele>1894.88</ele>
        <time>2019-02-26T13:47:39Z</time>
      </trkpt>
      <trkpt lat="42.88204" lon="0.12505">
        <ele>1893.96</ele>
        <time>2019-02-26T13:47:49Z</time>
      </trkpt>
      <trkpt lat="42.88205" lon="0.12492">
        <ele>1892.61</ele>
        <time>2019-02-26T13:47:59Z</time>
      </trkpt>
      <trkpt lat="42.88205" lon="0.1248">
        <ele>1892</ele>
        <time>2019-02-26T13:48:09Z</time>
      </trkpt>
      <trkpt lat="42.88205" lon="0.12467">
        <ele>1892.84</ele>
        <time>2019-02-26T13:48:19Z</time>
      </trkpt>
      <trkpt lat="42.88205" lon="0.12452">
        <ele>1892.65</ele>
        <time>2019-02-26T13:48:29Z</time>
      </trkpt>
      <trkpt lat="42.88204" lon="0.12439">
        <ele>1891.97</ele>
        <time>2019-02-26T13:48:39Z</time>
      </trkpt>
      <trkpt lat="42.88204" lon="0.12425">
        <ele>1892.27</ele>
        <time>2019-02-26T13:48:49Z</time>
      </trkpt>
      <trkpt lat="42.88204" lon="0.12412">
        <ele>1891.92</ele>
        <time>2019-02-26T13:48:59Z</time>
      </trkpt>
      <trkpt lat="42.88204" lon="0.12398">
        <ele>1892.28</ele>
        <time>2019-02-26T13:49:09Z</time>
      </trkpt>
      <trkpt lat="42.88205" lon="0.12384">
        <ele>1892.22</ele>
        <time>2019-02-26T13:49:19Z</time>
      </trkpt>
      <trkpt lat="42.88207" lon="0.1237">
        <ele>1891.99</ele>
        <time>2019-02-26T13:49:29Z</time>
      </trkpt>
      <trkpt lat="42.88208" lon="0.12356">
        <ele>1892.06</ele>
        <time>2019-02-26T13:49:39Z</time>
      </trkpt>
      <trkpt lat="42.88209" lon="0.12343">
        <ele>1891.6</ele>
        <time>2019-02-26T13:49:49Z</time>
      </trkpt>
      <trkpt lat="42.8821" lon="0.12329">
        <ele>1891.57</ele>
        <time>2019-02-26T13:49:59Z</time>
      </trkpt>
      <trkpt lat="42.88212" lon="0.12316">
        <ele>1891.65</ele>
        <time>2019-02-26T13:50:09Z</time>
      </trkpt>
      <trkpt lat="42.88214" lon="0.12303">
        <ele>1891.73</ele>
        <time>2019-02-26T13:50:19Z</time>
      </trkpt>
      <trkpt lat="42.88218" lon="0.1229">
        <ele>1891.56</ele>
        <time>2019-02-26T13:50:29Z</time>
      </trkpt>
      <trkpt lat="42.88222" lon="0.12276">
        <ele>1892.09</ele>
        <time>2019-02-26T13:50:39Z</time>
      </trkpt>
      <trkpt lat="42.88224" lon="0.12264">
        <ele>1891.52</ele>
        <time>2019-02-26T13:50:49Z</time>
      </trkpt>
      <trkpt lat="42.88226" lon="0.12252">
        <ele>1891.92</ele>
        <time>2019-02-26T13:50:59Z</time>
      </trkpt>
      <trkpt lat="42.88228" lon="0.12243">
        <ele>1892.26</ele>
        <time>2019-02-26T13:51:09Z</time>
      </trkpt>
      <trkpt lat="42.88229" lon="0.12242">
        <ele>1892.55</ele>
        <time>2019-02-26T13:51:19Z</time>
      </trkpt>
      <trkpt lat="42.88231" lon="0.12231">
        <ele>1892.54</ele>
        <time>2019-02-26T13:51:29Z</time>
      </trkpt>
      <trkpt lat="42.88232" lon="0.12226">
        <ele>1893.46</ele>
        <time>2019-02-26T13:51:39Z</time>
      </trkpt>
      <trkpt lat="42.88235" lon="0.12221">
        <ele>1895.01</ele>
        <time>2019-02-26T13:51:49Z</time>
      </trkpt>
      <trkpt lat="42.88237" lon="0.12215">
        <ele>1896.43</ele>
        <time>2019-02-26T13:51:59Z</time>
      </trkpt>
      <trkpt lat="42.88239" lon="0.12211">
        <ele>1896.7</ele>
        <time>2019-02-26T13:52:09Z</time>
      </trkpt>
      <trkpt lat="42.88241" lon="0.12204">
        <ele>1898.21</ele>
        <time>2019-02-26T13:52:19Z</time>
      </trkpt>
      <trkpt lat="42.88242" lon="0.122">
        <ele>1898.54</ele>
        <time>2019-02-26T13:52:29Z</time>
      </trkpt>
      <trkpt lat="42.88243" lon="0.122">
        <ele>1898.53</ele>
        <time>2019-02-26T13:52:59Z</time>
      </trkpt>
      <trkpt lat="42.88243" lon="0.12201">
        <ele>1898.55</ele>
        <time>2019-02-26T13:53:09Z</time>
      </trkpt>
      <trkpt lat="42.88244" lon="0.12201">
        <ele>1898.51</ele>
        <time>2019-02-26T13:53:19Z</time>
      </trkpt>
      <trkpt lat="42.88244" lon="0.12202">
        <ele>1898.79</ele>
        <time>2019-02-26T13:53:29Z</time>
      </trkpt>
      <trkpt lat="42.88243" lon="0.12203">
        <ele>1897.95</ele>
        <time>2019-02-26T13:54:09Z</time>
      </trkpt>
      <trkpt lat="42.88243" lon="0.12199">
        <ele>1898.56</ele>
        <time>2019-02-26T13:54:19Z</time>
      </trkpt>
      <trkpt lat="42.88242" lon="0.12195">
        <ele>1898.91</ele>
        <time>2019-02-26T13:54:29Z</time>
      </trkpt>
      <trkpt lat="42.88243" lon="0.12193">
        <ele>1898.46</ele>
        <time>2019-02-26T13:55:09Z</time>
      </trkpt>
      <trkpt lat="42.88242" lon="0.12191">
        <ele>1898.78</ele>
        <time>2019-02-26T13:55:19Z</time>
      </trkpt>
      <trkpt lat="42.88242" lon="0.12183">
        <ele>1898.65</ele>
        <time>2019-02-26T13:55:29Z</time>
      </trkpt>
      <trkpt lat="42.88242" lon="0.12172">
        <ele>1898.23</ele>
        <time>2019-02-26T13:55:39Z</time>
      </trkpt>
      <trkpt lat="42.88243" lon="0.12163">
        <ele>1897.29</ele>
        <time>2019-02-26T13:55:49Z</time>
      </trkpt>
      <trkpt lat="42.88243" lon="0.12153">
        <ele>1897</ele>
        <time>2019-02-26T13:55:59Z</time>
      </trkpt>
      <trkpt lat="42.88244" lon="0.12142">
        <ele>1896.09</ele>
        <time>2019-02-26T13:56:09Z</time>
      </trkpt>
      <trkpt lat="42.88243" lon="0.1213">
        <ele>1895.23</ele>
        <time>2019-02-26T13:56:19Z</time>
      </trkpt>
      <trkpt lat="42.88241" lon="0.12121">
        <ele>1894.31</ele>
        <time>2019-02-26T13:56:29Z</time>
      </trkpt>
      <trkpt lat="42.8824" lon="0.12117">
        <ele>1893.66</ele>
        <time>2019-02-26T13:56:39Z</time>
      </trkpt>
      <trkpt lat="42.88238" lon="0.12114">
        <ele>1893.31</ele>
        <time>2019-02-26T13:56:49Z</time>
      </trkpt>
      <trkpt lat="42.88236" lon="0.12108">
        <ele>1891.82</ele>
        <time>2019-02-26T13:56:59Z</time>
      </trkpt>
      <trkpt lat="42.8823" lon="0.12102">
        <ele>1890.83</ele>
        <time>2019-02-26T13:57:09Z</time>
      </trkpt>
      <trkpt lat="42.88226" lon="0.12092">
        <ele>1889.25</ele>
        <time>2019-02-26T13:57:19Z</time>
      </trkpt>
      <trkpt lat="42.88228" lon="0.12083">
        <ele>1886.94</ele>
        <time>2019-02-26T13:57:29Z</time>
      </trkpt>
      <trkpt lat="42.88231" lon="0.12075">
        <ele>1884.79</ele>
        <time>2019-02-26T13:57:39Z</time>
      </trkpt>
      <trkpt lat="42.88236" lon="0.12069">
        <ele>1883.21</ele>
        <time>2019-02-26T13:57:49Z</time>
      </trkpt>
      <trkpt lat="42.88239" lon="0.12062">
        <ele>1881.46</ele>
        <time>2019-02-26T13:57:59Z</time>
      </trkpt>
      <trkpt lat="42.88241" lon="0.12053">
        <ele>1880.09</ele>
        <time>2019-02-26T13:58:09Z</time>
      </trkpt>
      <trkpt lat="42.88243" lon="0.12041">
        <ele>1877.91</ele>
        <time>2019-02-26T13:58:19Z</time>
      </trkpt>
      <trkpt lat="42.88242" lon="0.12032">
        <ele>1876.83</ele>
        <time>2019-02-26T13:58:29Z</time>
      </trkpt>
      <trkpt lat="42.88242" lon="0.12029">
        <ele>1876.02</ele>
        <time>2019-02-26T13:58:39Z</time>
      </trkpt>
      <trkpt lat="42.88241" lon="0.12022">
        <ele>1875.24</ele>
        <time>2019-02-26T13:58:49Z</time>
      </trkpt>
      <trkpt lat="42.88239" lon="0.12014">
        <ele>1872.87</ele>
        <time>2019-02-26T13:58:59Z</time>
      </trkpt>
      <trkpt lat="42.88239" lon="0.12005">
        <ele>1871.19</ele>
        <time>2019-02-26T13:59:09Z</time>
      </trkpt>
      <trkpt lat="42.88239" lon="0.11994">
        <ele>1869.55</ele>
        <time>2019-02-26T13:59:19Z</time>
      </trkpt>
      <trkpt lat="42.88235" lon="0.11984">
        <ele>1867.67</ele>
        <time>2019-02-26T13:59:29Z</time>
      </trkpt>
      <trkpt lat="42.88233" lon="0.11973">
        <ele>1865.98</ele>
        <time>2019-02-26T13:59:39Z</time>
      </trkpt>
      <trkpt lat="42.8823" lon="0.11961">
        <ele>1865.34</ele>
        <time>2019-02-26T13:59:49Z</time>
      </trkpt>
      <trkpt lat="42.88228" lon="0.11948">
        <ele>1864.53</ele>
        <time>2019-02-26T13:59:59Z</time>
      </trkpt>
      <trkpt lat="42.88228" lon="0.11936">
        <ele>1863.03</ele>
        <time>2019-02-26T14:00:09Z</time>
      </trkpt>
      <trkpt lat="42.88227" lon="0.11925">
        <ele>1861.41</ele>
        <time>2019-02-26T14:00:19Z</time>
      </trkpt>
      <trkpt lat="42.88225" lon="0.11915">
        <ele>1859.53</ele>
        <time>2019-02-26T14:00:29Z</time>
      </trkpt>
      <trkpt lat="42.88223" lon="0.11906">
        <ele>1857.83</ele>
        <time>2019-02-26T14:00:39Z</time>
      </trkpt>
      <trkpt lat="42.88223" lon="0.11895">
        <ele>1856.75</ele>
        <time>2019-02-26T14:00:49Z</time>
      </trkpt>
      <trkpt lat="42.88224" lon="0.11885">
        <ele>1854.34</ele>
        <time>2019-02-26T14:00:59Z</time>
      </trkpt>
      <trkpt lat="42.88224" lon="0.11875">
        <ele>1852.51</ele>
        <time>2019-02-26T14:01:09Z</time>
      </trkpt>
      <trkpt lat="42.88224" lon="0.11867">
        <ele>1851.3</ele>
        <time>2019-02-26T14:01:19Z</time>
      </trkpt>
      <trkpt lat="42.88225" lon="0.11859">
        <ele>1849.59</ele>
        <time>2019-02-26T14:01:29Z</time>
      </trkpt>
      <trkpt lat="42.88225" lon="0.11851">
        <ele>1847.95</ele>
        <time>2019-02-26T14:01:39Z</time>
      </trkpt>
      <trkpt lat="42.88224" lon="0.11842">
        <ele>1846.29</ele>
        <time>2019-02-26T14:01:49Z</time>
      </trkpt>
      <trkpt lat="42.88223" lon="0.11833">
        <ele>1844.24</ele>
        <time>2019-02-26T14:01:59Z</time>
      </trkpt>
      <trkpt lat="42.88224" lon="0.11824">
        <ele>1842.13</ele>
        <time>2019-02-26T14:02:09Z</time>
      </trkpt>
      <trkpt lat="42.88225" lon="0.11816">
        <ele>1840.81</ele>
        <time>2019-02-26T14:02:19Z</time>
      </trkpt>
      <trkpt lat="42.88227" lon="0.11808">
        <ele>1838.56</ele>
        <time>2019-02-26T14:02:29Z</time>
      </trkpt>
      <trkpt lat="42.88227" lon="0.11799">
        <ele>1836.48</ele>
        <time>2019-02-26T14:02:39Z</time>
      </trkpt>
      <trkpt lat="42.88228" lon="0.1179">
        <ele>1834.73</ele>
        <time>2019-02-26T14:02:49Z</time>
      </trkpt>
      <trkpt lat="42.88229" lon="0.11783">
        <ele>1832.9</ele>
        <time>2019-02-26T14:02:59Z</time>
      </trkpt>
      <trkpt lat="42.8823" lon="0.11775">
        <ele>1831</ele>
        <time>2019-02-26T14:03:09Z</time>
      </trkpt>
      <trkpt lat="42.88231" lon="0.11772">
        <ele>1830.53</ele>
        <time>2019-02-26T14:03:19Z</time>
      </trkpt>
      <trkpt lat="42.88232" lon="0.11772">
        <ele>1830.26</ele>
        <time>2019-02-26T14:03:29Z</time>
      </trkpt>
      <trkpt lat="42.88232" lon="0.11765">
        <ele>1829.24</ele>
        <time>2019-02-26T14:03:39Z</time>
      </trkpt>
      <trkpt lat="42.88235" lon="0.11762">
        <ele>1827.44</ele>
        <time>2019-02-26T14:03:49Z</time>
      </trkpt>
      <trkpt lat="42.88235" lon="0.1176">
        <ele>1826.55</ele>
        <time>2019-02-26T14:03:59Z</time>
      </trkpt>
      <trkpt lat="42.88235" lon="0.11756">
        <ele>1825.36</ele>
        <time>2019-02-26T14:04:09Z</time>
      </trkpt>
      <trkpt lat="42.88236" lon="0.11752">
        <ele>1823.82</ele>
        <time>2019-02-26T14:04:19Z</time>
      </trkpt>
      <trkpt lat="42.88238" lon="0.11747">
        <ele>1822.02</ele>
        <time>2019-02-26T14:04:29Z</time>
      </trkpt>
      <trkpt lat="42.88238" lon="0.11741">
        <ele>1820.52</ele>
        <time>2019-02-26T14:04:39Z</time>
      </trkpt>
      <trkpt lat="42.8824" lon="0.1173">
        <ele>1818.87</ele>
        <time>2019-02-26T14:04:49Z</time>
      </trkpt>
      <trkpt lat="42.88242" lon="0.1172">
        <ele>1817.5</ele>
        <time>2019-02-26T14:04:59Z</time>
      </trkpt>
      <trkpt lat="42.88245" lon="0.11713">
        <ele>1816.24</ele>
        <time>2019-02-26T14:05:09Z</time>
      </trkpt>
      <trkpt lat="42.88245" lon="0.11703">
        <ele>1814.55</ele>
        <time>2019-02-26T14:05:19Z</time>
      </trkpt>
      <trkpt lat="42.88246" lon="0.11694">
        <ele>1812.84</ele>
        <time>2019-02-26T14:05:29Z</time>
      </trkpt>
      <trkpt lat="42.88248" lon="0.11683">
        <ele>1811.46</ele>
        <time>2019-02-26T14:05:39Z</time>
      </trkpt>
      <trkpt lat="42.88252" lon="0.1167">
        <ele>1810.41</ele>
        <time>2019-02-26T14:05:49Z</time>
      </trkpt>
      <trkpt lat="42.88255" lon="0.11656">
        <ele>1809.12</ele>
        <time>2019-02-26T14:05:59Z</time>
      </trkpt>
      <trkpt lat="42.88257" lon="0.11643">
        <ele>1808.03</ele>
        <time>2019-02-26T14:06:09Z</time>
      </trkpt>
      <trkpt lat="42.88259" lon="0.1163">
        <ele>1805.9</ele>
        <time>2019-02-26T14:06:19Z</time>
      </trkpt>
      <trkpt lat="42.88257" lon="0.11619">
        <ele>1805.24</ele>
        <time>2019-02-26T14:06:29Z</time>
      </trkpt>
      <trkpt lat="42.88255" lon="0.11608">
        <ele>1803.96</ele>
        <time>2019-02-26T14:06:39Z</time>
      </trkpt>
      <trkpt lat="42.88252" lon="0.11598">
        <ele>1803.9</ele>
        <time>2019-02-26T14:06:49Z</time>
      </trkpt>
      <trkpt lat="42.8825" lon="0.11586">
        <ele>1802.24</ele>
        <time>2019-02-26T14:06:59Z</time>
      </trkpt>
      <trkpt lat="42.88252" lon="0.11576">
        <ele>1800.9</ele>
        <time>2019-02-26T14:07:09Z</time>
      </trkpt>
      <trkpt lat="42.88251" lon="0.11566">
        <ele>1799.57</ele>
        <time>2019-02-26T14:07:19Z</time>
      </trkpt>
      <trkpt lat="42.88253" lon="0.11555">
        <ele>1797.98</ele>
        <time>2019-02-26T14:07:29Z</time>
      </trkpt>
      <trkpt lat="42.88253" lon="0.11544">
        <ele>1796.45</ele>
        <time>2019-02-26T14:07:39Z</time>
      </trkpt>
      <trkpt lat="42.88253" lon="0.11532">
        <ele>1795.53</ele>
        <time>2019-02-26T14:07:49Z</time>
      </trkpt>
      <trkpt lat="42.88257" lon="0.11522">
        <ele>1793.91</ele>
        <time>2019-02-26T14:07:59Z</time>
      </trkpt>
      <trkpt lat="42.88261" lon="0.11512">
        <ele>1792.87</ele>
        <time>2019-02-26T14:08:09Z</time>
      </trkpt>
      <trkpt lat="42.88262" lon="0.11501">
        <ele>1791.63</ele>
        <time>2019-02-26T14:08:19Z</time>
      </trkpt>
      <trkpt lat="42.88264" lon="0.11487">
        <ele>1789.07</ele>
        <time>2019-02-26T14:08:29Z</time>
      </trkpt>
      <trkpt lat="42.88264" lon="0.11475">
        <ele>1787.97</ele>
        <time>2019-02-26T14:08:39Z</time>
      </trkpt>
      <trkpt lat="42.88267" lon="0.11464">
        <ele>1786.27</ele>
        <time>2019-02-26T14:08:49Z</time>
      </trkpt>
      <trkpt lat="42.88272" lon="0.11453">
        <ele>1784.86</ele>
        <time>2019-02-26T14:08:59Z</time>
      </trkpt>
      <trkpt lat="42.88274" lon="0.11441">
        <ele>1782.72</ele>
        <time>2019-02-26T14:09:09Z</time>
      </trkpt>
      <trkpt lat="42.88275" lon="0.11431">
        <ele>1781</ele>
        <time>2019-02-26T14:09:19Z</time>
      </trkpt>
      <trkpt lat="42.88279" lon="0.11422">
        <ele>1779.25</ele>
        <time>2019-02-26T14:09:29Z</time>
      </trkpt>
      <trkpt lat="42.88282" lon="0.11412">
        <ele>1776.46</ele>
        <time>2019-02-26T14:09:39Z</time>
      </trkpt>
      <trkpt lat="42.88282" lon="0.114">
        <ele>1775.02</ele>
        <time>2019-02-26T14:09:49Z</time>
      </trkpt>
      <trkpt lat="42.88282" lon="0.11386">
        <ele>1773.39</ele>
        <time>2019-02-26T14:09:59Z</time>
      </trkpt>
      <trkpt lat="42.88281" lon="0.11373">
        <ele>1772.41</ele>
        <time>2019-02-26T14:10:09Z</time>
      </trkpt>
      <trkpt lat="42.8828" lon="0.11362">
        <ele>1769.89</ele>
        <time>2019-02-26T14:10:19Z</time>
      </trkpt>
      <trkpt lat="42.88282" lon="0.11351">
        <ele>1770.36</ele>
        <time>2019-02-26T14:10:29Z</time>
      </trkpt>
      <trkpt lat="42.88284" lon="0.11341">
        <ele>1769.08</ele>
        <time>2019-02-26T14:10:39Z</time>
      </trkpt>
      <trkpt lat="42.88287" lon="0.1133">
        <ele>1768.17</ele>
        <time>2019-02-26T14:10:49Z</time>
      </trkpt>
      <trkpt lat="42.88287" lon="0.1132">
        <ele>1766.93</ele>
        <time>2019-02-26T14:10:59Z</time>
      </trkpt>
      <trkpt lat="42.88283" lon="0.11309">
        <ele>1765.36</ele>
        <time>2019-02-26T14:11:09Z</time>
      </trkpt>
      <trkpt lat="42.88279" lon="0.11298">
        <ele>1763.73</ele>
        <time>2019-02-26T14:11:19Z</time>
      </trkpt>
      <trkpt lat="42.88277" lon="0.11287">
        <ele>1763.54</ele>
        <time>2019-02-26T14:11:29Z</time>
      </trkpt>
      <trkpt lat="42.88278" lon="0.1128">
        <ele>1762.87</ele>
        <time>2019-02-26T14:12:09Z</time>
      </trkpt>
      <trkpt lat="42.88278" lon="0.11277">
        <ele>1762.89</ele>
        <time>2019-02-26T14:12:19Z</time>
      </trkpt>
      <trkpt lat="42.88281" lon="0.1127">
        <ele>1762.44</ele>
        <time>2019-02-26T14:12:29Z</time>
      </trkpt>
      <trkpt lat="42.88282" lon="0.1127">
        <ele>1761.97</ele>
        <time>2019-02-26T14:12:39Z</time>
      </trkpt>
      <trkpt lat="42.88281" lon="0.11269">
        <ele>1762.33</ele>
        <time>2019-02-26T14:12:49Z</time>
      </trkpt>
      <trkpt lat="42.8828" lon="0.11269">
        <ele>1762.49</ele>
        <time>2019-02-26T14:13:09Z</time>
      </trkpt>
      <trkpt lat="42.88281" lon="0.11269">
        <ele>1762.57</ele>
        <time>2019-02-26T14:13:19Z</time>
      </trkpt>
      <trkpt lat="42.88282" lon="0.11268">
        <ele>1761.94</ele>
        <time>2019-02-26T14:13:29Z</time>
      </trkpt>
      <trkpt lat="42.88283" lon="0.11268">
        <ele>1762.18</ele>
        <time>2019-02-26T14:13:49Z</time>
      </trkpt>
      <trkpt lat="42.88284" lon="0.11269">
        <ele>1762.28</ele>
        <time>2019-02-26T14:13:59Z</time>
      </trkpt>
      <trkpt lat="42.88284" lon="0.11268">
        <ele>1762.52</ele>
        <time>2019-02-26T14:14:09Z</time>
      </trkpt>
      <trkpt lat="42.88286" lon="0.11266">
        <ele>1762.57</ele>
        <time>2019-02-26T14:14:19Z</time>
      </trkpt>
      <trkpt lat="42.88289" lon="0.11257">
        <ele>1761.62</ele>
        <time>2019-02-26T14:14:29Z</time>
      </trkpt>
      <trkpt lat="42.88293" lon="0.11246">
        <ele>1760.85</ele>
        <time>2019-02-26T14:14:39Z</time>
      </trkpt>
      <trkpt lat="42.88297" lon="0.11235">
        <ele>1760</ele>
        <time>2019-02-26T14:14:49Z</time>
      </trkpt>
      <trkpt lat="42.88303" lon="0.11226">
        <ele>1759.61</ele>
        <time>2019-02-26T14:14:59Z</time>
      </trkpt>
      <trkpt lat="42.88309" lon="0.11216">
        <ele>1758.03</ele>
        <time>2019-02-26T14:15:09Z</time>
      </trkpt>
      <trkpt lat="42.88314" lon="0.11206">
        <ele>1757.06</ele>
        <time>2019-02-26T14:15:19Z</time>
      </trkpt>
      <trkpt lat="42.8832" lon="0.112">
        <ele>1756.06</ele>
        <time>2019-02-26T14:15:29Z</time>
      </trkpt>
      <trkpt lat="42.88326" lon="0.11192">
        <ele>1754.84</ele>
        <time>2019-02-26T14:15:39Z</time>
      </trkpt>
      <trkpt lat="42.88331" lon="0.11183">
        <ele>1753.92</ele>
        <time>2019-02-26T14:15:49Z</time>
      </trkpt>
      <trkpt lat="42.88338" lon="0.11175">
        <ele>1752.11</ele>
        <time>2019-02-26T14:15:59Z</time>
      </trkpt>
      <trkpt lat="42.88344" lon="0.11166">
        <ele>1750.72</ele>
        <time>2019-02-26T14:16:09Z</time>
      </trkpt>
      <trkpt lat="42.88352" lon="0.11165">
        <ele>1749.87</ele>
        <time>2019-02-26T14:16:19Z</time>
      </trkpt>
      <trkpt lat="42.88361" lon="0.11163">
        <ele>1749.12</ele>
        <time>2019-02-26T14:16:29Z</time>
      </trkpt>
      <trkpt lat="42.8837" lon="0.11161">
        <ele>1747.27</ele>
        <time>2019-02-26T14:16:39Z</time>
      </trkpt>
      <trkpt lat="42.88379" lon="0.11159">
        <ele>1746.13</ele>
        <time>2019-02-26T14:16:49Z</time>
      </trkpt>
      <trkpt lat="42.88385" lon="0.11151">
        <ele>1746.76</ele>
        <time>2019-02-26T14:16:59Z</time>
      </trkpt>
      <trkpt lat="42.8839" lon="0.11141">
        <ele>1746.78</ele>
        <time>2019-02-26T14:17:09Z</time>
      </trkpt>
      <trkpt lat="42.88395" lon="0.11131">
        <ele>1746.34</ele>
        <time>2019-02-26T14:17:19Z</time>
      </trkpt>
      <trkpt lat="42.884" lon="0.11121">
        <ele>1745.06</ele>
        <time>2019-02-26T14:17:29Z</time>
      </trkpt>
      <trkpt lat="42.88407" lon="0.11112">
        <ele>1744.95</ele>
        <time>2019-02-26T14:17:39Z</time>
      </trkpt>
      <trkpt lat="42.88414" lon="0.11103">
        <ele>1743.98</ele>
        <time>2019-02-26T14:17:49Z</time>
      </trkpt>
      <trkpt lat="42.88421" lon="0.11094">
        <ele>1743.04</ele>
        <time>2019-02-26T14:17:59Z</time>
      </trkpt>
      <trkpt lat="42.88428" lon="0.11085">
        <ele>1742.24</ele>
        <time>2019-02-26T14:18:09Z</time>
      </trkpt>
      <trkpt lat="42.88433" lon="0.11075">
        <ele>1741.42</ele>
        <time>2019-02-26T14:18:19Z</time>
      </trkpt>
      <trkpt lat="42.88437" lon="0.11064">
        <ele>1741.34</ele>
        <time>2019-02-26T14:18:29Z</time>
      </trkpt>
      <trkpt lat="42.88442" lon="0.11053">
        <ele>1741.35</ele>
        <time>2019-02-26T14:18:39Z</time>
      </trkpt>
      <trkpt lat="42.88448" lon="0.11044">
        <ele>1740.99</ele>
        <time>2019-02-26T14:18:49Z</time>
      </trkpt>
      <trkpt lat="42.88455" lon="0.11035">
        <ele>1740.18</ele>
        <time>2019-02-26T14:18:59Z</time>
      </trkpt>
      <trkpt lat="42.88462" lon="0.11026">
        <ele>1739.2</ele>
        <time>2019-02-26T14:19:09Z</time>
      </trkpt>
      <trkpt lat="42.88467" lon="0.11017">
        <ele>1738.18</ele>
        <time>2019-02-26T14:19:19Z</time>
      </trkpt>
      <trkpt lat="42.88473" lon="0.11004">
        <ele>1737.12</ele>
        <time>2019-02-26T14:19:29Z</time>
      </trkpt>
      <trkpt lat="42.8848" lon="0.10996">
        <ele>1735.89</ele>
        <time>2019-02-26T14:19:39Z</time>
      </trkpt>
      <trkpt lat="42.88487" lon="0.10987">
        <ele>1734.49</ele>
        <time>2019-02-26T14:19:49Z</time>
      </trkpt>
      <trkpt lat="42.88495" lon="0.10979">
        <ele>1733.53</ele>
        <time>2019-02-26T14:19:59Z</time>
      </trkpt>
      <trkpt lat="42.88501" lon="0.1097">
        <ele>1732.33</ele>
        <time>2019-02-26T14:20:09Z</time>
      </trkpt>
      <trkpt lat="42.88508" lon="0.10963">
        <ele>1731.27</ele>
        <time>2019-02-26T14:20:19Z</time>
      </trkpt>
      <trkpt lat="42.88515" lon="0.10957">
        <ele>1730.92</ele>
        <time>2019-02-26T14:20:29Z</time>
      </trkpt>
      <trkpt lat="42.88523" lon="0.10948">
        <ele>1730.07</ele>
        <time>2019-02-26T14:20:39Z</time>
      </trkpt>
      <trkpt lat="42.8853" lon="0.1094">
        <ele>1729.39</ele>
        <time>2019-02-26T14:20:49Z</time>
      </trkpt>
      <trkpt lat="42.88537" lon="0.1093">
        <ele>1728</ele>
        <time>2019-02-26T14:20:59Z</time>
      </trkpt>
      <trkpt lat="42.88544" lon="0.1092">
        <ele>1727.01</ele>
        <time>2019-02-26T14:21:09Z</time>
      </trkpt>
      <trkpt lat="42.88551" lon="0.10913">
        <ele>1726.46</ele>
        <time>2019-02-26T14:21:19Z</time>
      </trkpt>
      <trkpt lat="42.88559" lon="0.10903">
        <ele>1724.31</ele>
        <time>2019-02-26T14:21:29Z</time>
      </trkpt>
      <trkpt lat="42.88564" lon="0.10895">
        <ele>1723.05</ele>
        <time>2019-02-26T14:21:39Z</time>
      </trkpt>
      <trkpt lat="42.88571" lon="0.10891">
        <ele>1721.77</ele>
        <time>2019-02-26T14:21:49Z</time>
      </trkpt>
      <trkpt lat="42.88579" lon="0.10893">
        <ele>1720.24</ele>
        <time>2019-02-26T14:21:59Z</time>
      </trkpt>
      <trkpt lat="42.88589" lon="0.1089">
        <ele>1719.46</ele>
        <time>2019-02-26T14:22:09Z</time>
      </trkpt>
      <trkpt lat="42.88598" lon="0.10888">
        <ele>1718.22</ele>
        <time>2019-02-26T14:22:19Z</time>
      </trkpt>
      <trkpt lat="42.88607" lon="0.10887">
        <ele>1717.58</ele>
        <time>2019-02-26T14:22:29Z</time>
      </trkpt>
      <trkpt lat="42.88616" lon="0.10887">
        <ele>1717.03</ele>
        <time>2019-02-26T14:22:39Z</time>
      </trkpt>
      <trkpt lat="42.88624" lon="0.10885">
        <ele>1716.45</ele>
        <time>2019-02-26T14:22:49Z</time>
      </trkpt>
      <trkpt lat="42.8863" lon="0.10881">
        <ele>1714.59</ele>
        <time>2019-02-26T14:22:59Z</time>
      </trkpt>
      <trkpt lat="42.88636" lon="0.10876">
        <ele>1713.15</ele>
        <time>2019-02-26T14:23:09Z</time>
      </trkpt>
      <trkpt lat="42.8864" lon="0.1087">
        <ele>1710.89</ele>
        <time>2019-02-26T14:23:19Z</time>
      </trkpt>
      <trkpt lat="42.88644" lon="0.10864">
        <ele>1709.23</ele>
        <time>2019-02-26T14:23:29Z</time>
      </trkpt>
      <trkpt lat="42.88647" lon="0.10858">
        <ele>1707.08</ele>
        <time>2019-02-26T14:23:39Z</time>
      </trkpt>
      <trkpt lat="42.88648" lon="0.1085">
        <ele>1705.29</ele>
        <time>2019-02-26T14:23:49Z</time>
      </trkpt>
      <trkpt lat="42.88651" lon="0.10846">
        <ele>1703.32</ele>
        <time>2019-02-26T14:23:59Z</time>
      </trkpt>
      <trkpt lat="42.88659" lon="0.10844">
        <ele>1701.61</ele>
        <time>2019-02-26T14:24:09Z</time>
      </trkpt>
      <trkpt lat="42.88668" lon="0.10843">
        <ele>1700.11</ele>
        <time>2019-02-26T14:24:19Z</time>
      </trkpt>
      <trkpt lat="42.88677" lon="0.10842">
        <ele>1697.82</ele>
        <time>2019-02-26T14:24:29Z</time>
      </trkpt>
      <trkpt lat="42.88685" lon="0.1084">
        <ele>1697.43</ele>
        <time>2019-02-26T14:24:39Z</time>
      </trkpt>
      <trkpt lat="42.88696" lon="0.1084">
        <ele>1696.09</ele>
        <time>2019-02-26T14:24:49Z</time>
      </trkpt>
      <trkpt lat="42.88703" lon="0.10838">
        <ele>1695.32</ele>
        <time>2019-02-26T14:24:59Z</time>
      </trkpt>
      <trkpt lat="42.88712" lon="0.10837">
        <ele>1694.01</ele>
        <time>2019-02-26T14:25:09Z</time>
      </trkpt>
      <trkpt lat="42.8872" lon="0.10834">
        <ele>1693.3</ele>
        <time>2019-02-26T14:25:19Z</time>
      </trkpt>
      <trkpt lat="42.88728" lon="0.10834">
        <ele>1692</ele>
        <time>2019-02-26T14:25:29Z</time>
      </trkpt>
      <trkpt lat="42.88737" lon="0.10836">
        <ele>1690.83</ele>
        <time>2019-02-26T14:25:39Z</time>
      </trkpt>
      <trkpt lat="42.88746" lon="0.10836">
        <ele>1689.56</ele>
        <time>2019-02-26T14:25:49Z</time>
      </trkpt>
      <trkpt lat="42.88755" lon="0.10836">
        <ele>1688.89</ele>
        <time>2019-02-26T14:25:59Z</time>
      </trkpt>
      <trkpt lat="42.88764" lon="0.10834">
        <ele>1688.36</ele>
        <time>2019-02-26T14:26:09Z</time>
      </trkpt>
      <trkpt lat="42.88773" lon="0.10833">
        <ele>1686.57</ele>
        <time>2019-02-26T14:26:19Z</time>
      </trkpt>
      <trkpt lat="42.88782" lon="0.10831">
        <ele>1685.45</ele>
        <time>2019-02-26T14:26:29Z</time>
      </trkpt>
      <trkpt lat="42.88791" lon="0.10829">
        <ele>1683.81</ele>
        <time>2019-02-26T14:26:39Z</time>
      </trkpt>
      <trkpt lat="42.888" lon="0.10827">
        <ele>1683.52</ele>
        <time>2019-02-26T14:26:49Z</time>
      </trkpt>
      <trkpt lat="42.88809" lon="0.10824">
        <ele>1682.62</ele>
        <time>2019-02-26T14:26:59Z</time>
      </trkpt>
      <trkpt lat="42.88816" lon="0.10821">
        <ele>1681.99</ele>
        <time>2019-02-26T14:27:09Z</time>
      </trkpt>
      <trkpt lat="42.88824" lon="0.10815">
        <ele>1680.92</ele>
        <time>2019-02-26T14:27:19Z</time>
      </trkpt>
      <trkpt lat="42.88834" lon="0.10813">
        <ele>1679.61</ele>
        <time>2019-02-26T14:27:29Z</time>
      </trkpt>
      <trkpt lat="42.88843" lon="0.1081">
        <ele>1679.15</ele>
        <time>2019-02-26T14:27:39Z</time>
      </trkpt>
      <trkpt lat="42.88852" lon="0.10805">
        <ele>1678.41</ele>
        <time>2019-02-26T14:27:49Z</time>
      </trkpt>
      <trkpt lat="42.8886" lon="0.10803">
        <ele>1677.47</ele>
        <time>2019-02-26T14:27:59Z</time>
      </trkpt>
      <trkpt lat="42.88869" lon="0.108">
        <ele>1675.75</ele>
        <time>2019-02-26T14:28:09Z</time>
      </trkpt>
      <trkpt lat="42.88878" lon="0.10798">
        <ele>1675.37</ele>
        <time>2019-02-26T14:28:19Z</time>
      </trkpt>
      <trkpt lat="42.88886" lon="0.10795">
        <ele>1674.58</ele>
        <time>2019-02-26T14:28:29Z</time>
      </trkpt>
      <trkpt lat="42.88892" lon="0.10791">
        <ele>1673.45</ele>
        <time>2019-02-26T14:28:39Z</time>
      </trkpt>
      <trkpt lat="42.889" lon="0.10785">
        <ele>1672.57</ele>
        <time>2019-02-26T14:28:49Z</time>
      </trkpt>
      <trkpt lat="42.88907" lon="0.10779">
        <ele>1671.86</ele>
        <time>2019-02-26T14:28:59Z</time>
      </trkpt>
      <trkpt lat="42.88915" lon="0.10773">
        <ele>1671.66</ele>
        <time>2019-02-26T14:29:09Z</time>
      </trkpt>
      <trkpt lat="42.88922" lon="0.10767">
        <ele>1671.08</ele>
        <time>2019-02-26T14:29:19Z</time>
      </trkpt>
      <trkpt lat="42.88929" lon="0.10761">
        <ele>1670.2</ele>
        <time>2019-02-26T14:29:29Z</time>
      </trkpt>
      <trkpt lat="42.88937" lon="0.10755">
        <ele>1669.27</ele>
        <time>2019-02-26T14:29:39Z</time>
      </trkpt>
      <trkpt lat="42.88944" lon="0.10751">
        <ele>1667.89</ele>
        <time>2019-02-26T14:29:49Z</time>
      </trkpt>
      <trkpt lat="42.88952" lon="0.10748">
        <ele>1667.14</ele>
        <time>2019-02-26T14:29:59Z</time>
      </trkpt>
      <trkpt lat="42.88961" lon="0.10747">
        <ele>1666.02</ele>
        <time>2019-02-26T14:30:09Z</time>
      </trkpt>
      <trkpt lat="42.8897" lon="0.10746">
        <ele>1665.28</ele>
        <time>2019-02-26T14:30:19Z</time>
      </trkpt>
      <trkpt lat="42.88979" lon="0.10747">
        <ele>1664.09</ele>
        <time>2019-02-26T14:30:29Z</time>
      </trkpt>
      <trkpt lat="42.8899" lon="0.10748">
        <ele>1663.44</ele>
        <time>2019-02-26T14:30:39Z</time>
      </trkpt>
      <trkpt lat="42.88999" lon="0.10749">
        <ele>1662.71</ele>
        <time>2019-02-26T14:30:49Z</time>
      </trkpt>
      <trkpt lat="42.89009" lon="0.10749">
        <ele>1661.5</ele>
        <time>2019-02-26T14:30:59Z</time>
      </trkpt>
      <trkpt lat="42.89019" lon="0.10748">
        <ele>1660.71</ele>
        <time>2019-02-26T14:31:09Z</time>
      </trkpt>
      <trkpt lat="42.89028" lon="0.10748">
        <ele>1659.19</ele>
        <time>2019-02-26T14:31:19Z</time>
      </trkpt>
      <trkpt lat="42.89039" lon="0.10747">
        <ele>1658</ele>
        <time>2019-02-26T14:31:29Z</time>
      </trkpt>
      <trkpt lat="42.89049" lon="0.10745">
        <ele>1657.07</ele>
        <time>2019-02-26T14:31:39Z</time>
      </trkpt>
      <trkpt lat="42.89058" lon="0.1074">
        <ele>1656.01</ele>
        <time>2019-02-26T14:31:49Z</time>
      </trkpt>
      <trkpt lat="42.89066" lon="0.10734">
        <ele>1655.08</ele>
        <time>2019-02-26T14:31:59Z</time>
      </trkpt>
      <trkpt lat="42.89069" lon="0.10731">
        <ele>1654.65</ele>
        <time>2019-02-26T14:32:09Z</time>
      </trkpt>
      <trkpt lat="42.89069" lon="0.1073">
        <ele>1655.29</ele>
        <time>2019-02-26T14:32:19Z</time>
      </trkpt>
      <trkpt lat="42.89072" lon="0.10727">
        <ele>1654.85</ele>
        <time>2019-02-26T14:32:29Z</time>
      </trkpt>
      <trkpt lat="42.89074" lon="0.10726">
        <ele>1653.55</ele>
        <time>2019-02-26T14:32:39Z</time>
      </trkpt>
      <trkpt lat="42.89074" lon="0.10727">
        <ele>1654.16</ele>
        <time>2019-02-26T14:32:49Z</time>
      </trkpt>
      <trkpt lat="42.89082" lon="0.10725">
        <ele>1653.7</ele>
        <time>2019-02-26T14:32:59Z</time>
      </trkpt>
      <trkpt lat="42.8909" lon="0.10723">
        <ele>1652.46</ele>
        <time>2019-02-26T14:33:09Z</time>
      </trkpt>
      <trkpt lat="42.89099" lon="0.10725">
        <ele>1650.83</ele>
        <time>2019-02-26T14:33:19Z</time>
      </trkpt>
      <trkpt lat="42.89108" lon="0.10725">
        <ele>1648.69</ele>
        <time>2019-02-26T14:33:29Z</time>
      </trkpt>
      <trkpt lat="42.89109" lon="0.10724">
        <ele>1648.6</ele>
        <time>2019-02-26T14:33:39Z</time>
      </trkpt>
      <trkpt lat="42.8911" lon="0.10724">
        <ele>1648.75</ele>
        <time>2019-02-26T14:33:49Z</time>
      </trkpt>
      <trkpt lat="42.89111" lon="0.10723">
        <ele>1648.28</ele>
        <time>2019-02-26T14:33:59Z</time>
      </trkpt>
      <trkpt lat="42.89115" lon="0.10717">
        <ele>1645.34</ele>
        <time>2019-02-26T14:34:09Z</time>
      </trkpt>
      <trkpt lat="42.89117" lon="0.1071">
        <ele>1643.41</ele>
        <time>2019-02-26T14:34:19Z</time>
      </trkpt>
      <trkpt lat="42.89119" lon="0.10706">
        <ele>1641.66</ele>
        <time>2019-02-26T14:34:29Z</time>
      </trkpt>
      <trkpt lat="42.89121" lon="0.107">
        <ele>1640.14</ele>
        <time>2019-02-26T14:34:39Z</time>
      </trkpt>
      <trkpt lat="42.8912" lon="0.10695">
        <ele>1638.24</ele>
        <time>2019-02-26T14:34:49Z</time>
      </trkpt>
      <trkpt lat="42.89119" lon="0.10691">
        <ele>1636.74</ele>
        <time>2019-02-26T14:34:59Z</time>
      </trkpt>
      <trkpt lat="42.89119" lon="0.10688">
        <ele>1635.88</ele>
        <time>2019-02-26T14:35:09Z</time>
      </trkpt>
      <trkpt lat="42.89121" lon="0.10683">
        <ele>1634.22</ele>
        <time>2019-02-26T14:35:19Z</time>
      </trkpt>
      <trkpt lat="42.89124" lon="0.1068">
        <ele>1633.57</ele>
        <time>2019-02-26T14:35:29Z</time>
      </trkpt>
      <trkpt lat="42.89125" lon="0.10679">
        <ele>1633.36</ele>
        <time>2019-02-26T14:35:39Z</time>
      </trkpt>
      <trkpt lat="42.89131" lon="0.10673">
        <ele>1632.55</ele>
        <time>2019-02-26T14:35:49Z</time>
      </trkpt>
      <trkpt lat="42.89138" lon="0.10668">
        <ele>1630.92</ele>
        <time>2019-02-26T14:35:59Z</time>
      </trkpt>
      <trkpt lat="42.89146" lon="0.10664">
        <ele>1628.38</ele>
        <time>2019-02-26T14:36:09Z</time>
      </trkpt>
      <trkpt lat="42.89155" lon="0.1066">
        <ele>1627.17</ele>
        <time>2019-02-26T14:36:19Z</time>
      </trkpt>
      <trkpt lat="42.89163" lon="0.10656">
        <ele>1625.92</ele>
        <time>2019-02-26T14:36:29Z</time>
      </trkpt>
      <trkpt lat="42.8917" lon="0.10652">
        <ele>1623.8</ele>
        <time>2019-02-26T14:36:39Z</time>
      </trkpt>
      <trkpt lat="42.89177" lon="0.10649">
        <ele>1622.54</ele>
        <time>2019-02-26T14:36:49Z</time>
      </trkpt>
      <trkpt lat="42.89183" lon="0.10645">
        <ele>1621.69</ele>
        <time>2019-02-26T14:36:59Z</time>
      </trkpt>
      <trkpt lat="42.8919" lon="0.10641">
        <ele>1620.3</ele>
        <time>2019-02-26T14:37:09Z</time>
      </trkpt>
      <trkpt lat="42.89198" lon="0.10639">
        <ele>1617.49</ele>
        <time>2019-02-26T14:37:19Z</time>
      </trkpt>
      <trkpt lat="42.89206" lon="0.10637">
        <ele>1615.97</ele>
        <time>2019-02-26T14:37:29Z</time>
      </trkpt>
      <trkpt lat="42.89215" lon="0.10635">
        <ele>1614.19</ele>
        <time>2019-02-26T14:37:39Z</time>
      </trkpt>
      <trkpt lat="42.89223" lon="0.10634">
        <ele>1611.83</ele>
        <time>2019-02-26T14:37:49Z</time>
      </trkpt>
      <trkpt lat="42.8923" lon="0.1063">
        <ele>1611.12</ele>
        <time>2019-02-26T14:37:59Z</time>
      </trkpt>
      <trkpt lat="42.89236" lon="0.10623">
        <ele>1609.79</ele>
        <time>2019-02-26T14:38:09Z</time>
      </trkpt>
      <trkpt lat="42.89243" lon="0.10616">
        <ele>1608.12</ele>
        <time>2019-02-26T14:38:19Z</time>
      </trkpt>
      <trkpt lat="42.89252" lon="0.10617">
        <ele>1606.64</ele>
        <time>2019-02-26T14:38:29Z</time>
      </trkpt>
      <trkpt lat="42.89261" lon="0.10618">
        <ele>1605.13</ele>
        <time>2019-02-26T14:38:39Z</time>
      </trkpt>
      <trkpt lat="42.8927" lon="0.1062">
        <ele>1603.8</ele>
        <time>2019-02-26T14:38:49Z</time>
      </trkpt>
      <trkpt lat="42.89278" lon="0.10621">
        <ele>1602.75</ele>
        <time>2019-02-26T14:38:59Z</time>
      </trkpt>
      <trkpt lat="42.89286" lon="0.10622">
        <ele>1601.7</ele>
        <time>2019-02-26T14:39:09Z</time>
      </trkpt>
      <trkpt lat="42.89295" lon="0.10622">
        <ele>1598.5</ele>
        <time>2019-02-26T14:39:19Z</time>
      </trkpt>
      <trkpt lat="42.89304" lon="0.10621">
        <ele>1597.42</ele>
        <time>2019-02-26T14:39:29Z</time>
      </trkpt>
      <trkpt lat="42.89312" lon="0.1062">
        <ele>1594.99</ele>
        <time>2019-02-26T14:39:39Z</time>
      </trkpt>
      <trkpt lat="42.8932" lon="0.10618">
        <ele>1593.05</ele>
        <time>2019-02-26T14:39:49Z</time>
      </trkpt>
      <trkpt lat="42.89328" lon="0.10617">
        <ele>1592.51</ele>
        <time>2019-02-26T14:39:59Z</time>
      </trkpt>
      <trkpt lat="42.89337" lon="0.10615">
        <ele>1591.21</ele>
        <time>2019-02-26T14:40:09Z</time>
      </trkpt>
      <trkpt lat="42.89344" lon="0.10615">
        <ele>1588.16</ele>
        <time>2019-02-26T14:40:19Z</time>
      </trkpt>
      <trkpt lat="42.89351" lon="0.10613">
        <ele>1586.11</ele>
        <time>2019-02-26T14:40:29Z</time>
      </trkpt>
      <trkpt lat="42.8936" lon="0.10612">
        <ele>1584.64</ele>
        <time>2019-02-26T14:40:39Z</time>
      </trkpt>
      <trkpt lat="42.89368" lon="0.10611">
        <ele>1583.12</ele>
        <time>2019-02-26T14:40:49Z</time>
      </trkpt>
      <trkpt lat="42.89377" lon="0.1061">
        <ele>1581.13</ele>
        <time>2019-02-26T14:40:59Z</time>
      </trkpt>
      <trkpt lat="42.89385" lon="0.10608">
        <ele>1579.76</ele>
        <time>2019-02-26T14:41:09Z</time>
      </trkpt>
      <trkpt lat="42.89391" lon="0.10605">
        <ele>1577.18</ele>
        <time>2019-02-26T14:41:19Z</time>
      </trkpt>
      <trkpt lat="42.89399" lon="0.10603">
        <ele>1576.13</ele>
        <time>2019-02-26T14:41:29Z</time>
      </trkpt>
      <trkpt lat="42.89407" lon="0.10602">
        <ele>1573.27</ele>
        <time>2019-02-26T14:41:39Z</time>
      </trkpt>
      <trkpt lat="42.89415" lon="0.10597">
        <ele>1572.34</ele>
        <time>2019-02-26T14:41:49Z</time>
      </trkpt>
      <trkpt lat="42.89422" lon="0.10592">
        <ele>1569.61</ele>
        <time>2019-02-26T14:41:59Z</time>
      </trkpt>
      <trkpt lat="42.89423" lon="0.10592">
        <ele>1569.8</ele>
        <time>2019-02-26T14:42:09Z</time>
      </trkpt>
      <trkpt lat="42.89426" lon="0.10597">
        <ele>1569.06</ele>
        <time>2019-02-26T14:42:19Z</time>
      </trkpt>
      <trkpt lat="42.89431" lon="0.10595">
        <ele>1568.49</ele>
        <time>2019-02-26T14:42:29Z</time>
      </trkpt>
      <trkpt lat="42.89432" lon="0.10593">
        <ele>1567.88</ele>
        <time>2019-02-26T14:42:39Z</time>
      </trkpt>
      <trkpt lat="42.89431" lon="0.10592">
        <ele>1567.72</ele>
        <time>2019-02-26T14:42:49Z</time>
      </trkpt>
      <trkpt lat="42.89433" lon="0.10589">
        <ele>1568.19</ele>
        <time>2019-02-26T14:42:59Z</time>
      </trkpt>
      <trkpt lat="42.89437" lon="0.10587">
        <ele>1567.49</ele>
        <time>2019-02-26T14:43:09Z</time>
      </trkpt>
      <trkpt lat="42.89443" lon="0.10582">
        <ele>1565.5</ele>
        <time>2019-02-26T14:43:19Z</time>
      </trkpt>
      <trkpt lat="42.8945" lon="0.10576">
        <ele>1564.03</ele>
        <time>2019-02-26T14:43:29Z</time>
      </trkpt>
      <trkpt lat="42.89457" lon="0.1057">
        <ele>1562.71</ele>
        <time>2019-02-26T14:43:39Z</time>
      </trkpt>
      <trkpt lat="42.89464" lon="0.10565">
        <ele>1560.39</ele>
        <time>2019-02-26T14:43:49Z</time>
      </trkpt>
      <trkpt lat="42.8947" lon="0.1056">
        <ele>1558.62</ele>
        <time>2019-02-26T14:43:59Z</time>
      </trkpt>
      <trkpt lat="42.89476" lon="0.10554">
        <ele>1557.51</ele>
        <time>2019-02-26T14:44:09Z</time>
      </trkpt>
      <trkpt lat="42.89481" lon="0.10549">
        <ele>1558.41</ele>
        <time>2019-02-26T14:44:19Z</time>
      </trkpt>
      <trkpt lat="42.89486" lon="0.10545">
        <ele>1555.99</ele>
        <time>2019-02-26T14:44:29Z</time>
      </trkpt>
      <trkpt lat="42.89493" lon="0.10544">
        <ele>1553.81</ele>
        <time>2019-02-26T14:44:39Z</time>
      </trkpt>
      <trkpt lat="42.895" lon="0.10541">
        <ele>1553.45</ele>
        <time>2019-02-26T14:44:49Z</time>
      </trkpt>
      <trkpt lat="42.89505" lon="0.10535">
        <ele>1551.1</ele>
        <time>2019-02-26T14:44:59Z</time>
      </trkpt>
      <trkpt lat="42.89505" lon="0.10534">
        <ele>1551.4</ele>
        <time>2019-02-26T14:45:09Z</time>
      </trkpt>
      <trkpt lat="42.89511" lon="0.10529">
        <ele>1549.46</ele>
        <time>2019-02-26T14:45:19Z</time>
      </trkpt>
      <trkpt lat="42.89518" lon="0.10524">
        <ele>1547.99</ele>
        <time>2019-02-26T14:45:29Z</time>
      </trkpt>
      <trkpt lat="42.89524" lon="0.10518">
        <ele>1546.64</ele>
        <time>2019-02-26T14:45:39Z</time>
      </trkpt>
      <trkpt lat="42.8953" lon="0.10511">
        <ele>1545.46</ele>
        <time>2019-02-26T14:45:49Z</time>
      </trkpt>
      <trkpt lat="42.89536" lon="0.10504">
        <ele>1545.06</ele>
        <time>2019-02-26T14:45:59Z</time>
      </trkpt>
      <trkpt lat="42.8954" lon="0.10494">
        <ele>1544.16</ele>
        <time>2019-02-26T14:46:09Z</time>
      </trkpt>
      <trkpt lat="42.89543" lon="0.10483">
        <ele>1543.95</ele>
        <time>2019-02-26T14:46:19Z</time>
      </trkpt>
      <trkpt lat="42.89545" lon="0.10475">
        <ele>1543.74</ele>
        <time>2019-02-26T14:46:29Z</time>
      </trkpt>
      <trkpt lat="42.89551" lon="0.10466">
        <ele>1542.94</ele>
        <time>2019-02-26T14:46:39Z</time>
      </trkpt>
      <trkpt lat="42.89555" lon="0.10457">
        <ele>1543.54</ele>
        <time>2019-02-26T14:46:49Z</time>
      </trkpt>
      <trkpt lat="42.89562" lon="0.10453">
        <ele>1543.07</ele>
        <time>2019-02-26T14:46:59Z</time>
      </trkpt>
      <trkpt lat="42.89571" lon="0.10455">
        <ele>1542.26</ele>
        <time>2019-02-26T14:47:09Z</time>
      </trkpt>
      <trkpt lat="42.89581" lon="0.10461">
        <ele>1541.33</ele>
        <time>2019-02-26T14:47:19Z</time>
      </trkpt>
      <trkpt lat="42.8959" lon="0.10466">
        <ele>1541</ele>
        <time>2019-02-26T14:47:29Z</time>
      </trkpt>
      <trkpt lat="42.89597" lon="0.10469">
        <ele>1539.93</ele>
        <time>2019-02-26T14:47:39Z</time>
      </trkpt>
      <trkpt lat="42.89605" lon="0.1047">
        <ele>1539.49</ele>
        <time>2019-02-26T14:47:49Z</time>
      </trkpt>
      <trkpt lat="42.89615" lon="0.10473">
        <ele>1538.74</ele>
        <time>2019-02-26T14:47:59Z</time>
      </trkpt>
      <trkpt lat="42.89625" lon="0.10477">
        <ele>1537.55</ele>
        <time>2019-02-26T14:48:09Z</time>
      </trkpt>
      <trkpt lat="42.89634" lon="0.10481">
        <ele>1536.63</ele>
        <time>2019-02-26T14:48:19Z</time>
      </trkpt>
      <trkpt lat="42.89643" lon="0.10484">
        <ele>1535.96</ele>
        <time>2019-02-26T14:48:29Z</time>
      </trkpt>
      <trkpt lat="42.8965" lon="0.10485">
        <ele>1535.32</ele>
        <time>2019-02-26T14:48:39Z</time>
      </trkpt>
      <trkpt lat="42.89661" lon="0.10485">
        <ele>1534.99</ele>
        <time>2019-02-26T14:48:49Z</time>
      </trkpt>
      <trkpt lat="42.8967" lon="0.10484">
        <ele>1533.88</ele>
        <time>2019-02-26T14:48:59Z</time>
      </trkpt>
      <trkpt lat="42.89679" lon="0.10481">
        <ele>1532.97</ele>
        <time>2019-02-26T14:49:09Z</time>
      </trkpt>
      <trkpt lat="42.89688" lon="0.10479">
        <ele>1532.23</ele>
        <time>2019-02-26T14:49:19Z</time>
      </trkpt>
      <trkpt lat="42.89696" lon="0.10475">
        <ele>1530.85</ele>
        <time>2019-02-26T14:49:29Z</time>
      </trkpt>
      <trkpt lat="42.89704" lon="0.10472">
        <ele>1530.46</ele>
        <time>2019-02-26T14:49:39Z</time>
      </trkpt>
      <trkpt lat="42.89712" lon="0.10468">
        <ele>1529.33</ele>
        <time>2019-02-26T14:49:49Z</time>
      </trkpt>
      <trkpt lat="42.89722" lon="0.10466">
        <ele>1528.42</ele>
        <time>2019-02-26T14:49:59Z</time>
      </trkpt>
      <trkpt lat="42.89731" lon="0.10463">
        <ele>1527.89</ele>
        <time>2019-02-26T14:50:09Z</time>
      </trkpt>
      <trkpt lat="42.89741" lon="0.1046">
        <ele>1526.56</ele>
        <time>2019-02-26T14:50:19Z</time>
      </trkpt>
      <trkpt lat="42.8975" lon="0.1046">
        <ele>1525.98</ele>
        <time>2019-02-26T14:50:29Z</time>
      </trkpt>
      <trkpt lat="42.89759" lon="0.10459">
        <ele>1525.76</ele>
        <time>2019-02-26T14:50:39Z</time>
      </trkpt>
      <trkpt lat="42.89767" lon="0.10461">
        <ele>1524.73</ele>
        <time>2019-02-26T14:50:49Z</time>
      </trkpt>
      <trkpt lat="42.89774" lon="0.10461">
        <ele>1523.94</ele>
        <time>2019-02-26T14:50:59Z</time>
      </trkpt>
      <trkpt lat="42.89777" lon="0.10453">
        <ele>1524.05</ele>
        <time>2019-02-26T14:51:09Z</time>
      </trkpt>
      <trkpt lat="42.89779" lon="0.10452">
        <ele>1524.45</ele>
        <time>2019-02-26T14:51:19Z</time>
      </trkpt>
      <trkpt lat="42.89789" lon="0.10453">
        <ele>1522.78</ele>
        <time>2019-02-26T14:51:29Z</time>
      </trkpt>
      <trkpt lat="42.89798" lon="0.10453">
        <ele>1522.24</ele>
        <time>2019-02-26T14:51:39Z</time>
      </trkpt>
      <trkpt lat="42.89805" lon="0.10445">
        <ele>1520.84</ele>
        <time>2019-02-26T14:51:49Z</time>
      </trkpt>
      <trkpt lat="42.89813" lon="0.10438">
        <ele>1519.28</ele>
        <time>2019-02-26T14:51:59Z</time>
      </trkpt>
      <trkpt lat="42.89821" lon="0.10433">
        <ele>1518.72</ele>
        <time>2019-02-26T14:52:09Z</time>
      </trkpt>
      <trkpt lat="42.8983" lon="0.10427">
        <ele>1517.61</ele>
        <time>2019-02-26T14:52:19Z</time>
      </trkpt>
      <trkpt lat="42.8984" lon="0.10425">
        <ele>1516.47</ele>
        <time>2019-02-26T14:52:29Z</time>
      </trkpt>
      <trkpt lat="42.8985" lon="0.10419">
        <ele>1515.44</ele>
        <time>2019-02-26T14:52:39Z</time>
      </trkpt>
      <trkpt lat="42.8986" lon="0.10412">
        <ele>1515.06</ele>
        <time>2019-02-26T14:52:49Z</time>
      </trkpt>
      <trkpt lat="42.89867" lon="0.10408">
        <ele>1513.82</ele>
        <time>2019-02-26T14:52:59Z</time>
      </trkpt>
      <trkpt lat="42.89879" lon="0.10404">
        <ele>1513.23</ele>
        <time>2019-02-26T14:53:09Z</time>
      </trkpt>
      <trkpt lat="42.8989" lon="0.10399">
        <ele>1511.58</ele>
        <time>2019-02-26T14:53:19Z</time>
      </trkpt>
      <trkpt lat="42.89899" lon="0.10393">
        <ele>1510.83</ele>
        <time>2019-02-26T14:53:29Z</time>
      </trkpt>
      <trkpt lat="42.89906" lon="0.10389">
        <ele>1509.76</ele>
        <time>2019-02-26T14:53:39Z</time>
      </trkpt>
      <trkpt lat="42.89913" lon="0.10384">
        <ele>1508.68</ele>
        <time>2019-02-26T14:53:49Z</time>
      </trkpt>
      <trkpt lat="42.89924" lon="0.10378">
        <ele>1507.39</ele>
        <time>2019-02-26T14:53:59Z</time>
      </trkpt>
      <trkpt lat="42.89935" lon="0.10372">
        <ele>1507.16</ele>
        <time>2019-02-26T14:54:09Z</time>
      </trkpt>
      <trkpt lat="42.89944" lon="0.10368">
        <ele>1506.24</ele>
        <time>2019-02-26T14:54:19Z</time>
      </trkpt>
      <trkpt lat="42.89955" lon="0.10366">
        <ele>1505.04</ele>
        <time>2019-02-26T14:54:29Z</time>
      </trkpt>
      <trkpt lat="42.89965" lon="0.10364">
        <ele>1504.35</ele>
        <time>2019-02-26T14:54:39Z</time>
      </trkpt>
      <trkpt lat="42.89976" lon="0.10359">
        <ele>1503.11</ele>
        <time>2019-02-26T14:54:49Z</time>
      </trkpt>
      <trkpt lat="42.89984" lon="0.10356">
        <ele>1502.22</ele>
        <time>2019-02-26T14:54:59Z</time>
      </trkpt>
      <trkpt lat="42.89992" lon="0.10353">
        <ele>1501.7</ele>
        <time>2019-02-26T14:55:09Z</time>
      </trkpt>
      <trkpt lat="42.90003" lon="0.10349">
        <ele>1500.33</ele>
        <time>2019-02-26T14:55:19Z</time>
      </trkpt>
      <trkpt lat="42.90013" lon="0.10346">
        <ele>1499.41</ele>
        <time>2019-02-26T14:55:29Z</time>
      </trkpt>
      <trkpt lat="42.90024" lon="0.10343">
        <ele>1497.98</ele>
        <time>2019-02-26T14:55:39Z</time>
      </trkpt>
      <trkpt lat="42.90031" lon="0.10339">
        <ele>1497.42</ele>
        <time>2019-02-26T14:55:49Z</time>
      </trkpt>
      <trkpt lat="42.90042" lon="0.10337">
        <ele>1496.26</ele>
        <time>2019-02-26T14:55:59Z</time>
      </trkpt>
      <trkpt lat="42.90052" lon="0.10333">
        <ele>1495.29</ele>
        <time>2019-02-26T14:56:09Z</time>
      </trkpt>
      <trkpt lat="42.90061" lon="0.1033">
        <ele>1495.13</ele>
        <time>2019-02-26T14:56:19Z</time>
      </trkpt>
      <trkpt lat="42.9007" lon="0.10325">
        <ele>1493.84</ele>
        <time>2019-02-26T14:56:29Z</time>
      </trkpt>
      <trkpt lat="42.90081" lon="0.10319">
        <ele>1492.78</ele>
        <time>2019-02-26T14:56:39Z</time>
      </trkpt>
      <trkpt lat="42.90091" lon="0.10316">
        <ele>1491.61</ele>
        <time>2019-02-26T14:56:49Z</time>
      </trkpt>
      <trkpt lat="42.901" lon="0.10313">
        <ele>1490.94</ele>
        <time>2019-02-26T14:56:59Z</time>
      </trkpt>
      <trkpt lat="42.90109" lon="0.10311">
        <ele>1489.92</ele>
        <time>2019-02-26T14:57:09Z</time>
      </trkpt>
      <trkpt lat="42.9012" lon="0.10309">
        <ele>1489.33</ele>
        <time>2019-02-26T14:57:19Z</time>
      </trkpt>
      <trkpt lat="42.90131" lon="0.10304">
        <ele>1488.72</ele>
        <time>2019-02-26T14:57:29Z</time>
      </trkpt>
      <trkpt lat="42.9014" lon="0.103">
        <ele>1487.7</ele>
        <time>2019-02-26T14:57:39Z</time>
      </trkpt>
      <trkpt lat="42.90149" lon="0.10292">
        <ele>1486.39</ele>
        <time>2019-02-26T14:57:49Z</time>
      </trkpt>
      <trkpt lat="42.90156" lon="0.10283">
        <ele>1485.41</ele>
        <time>2019-02-26T14:57:59Z</time>
      </trkpt>
      <trkpt lat="42.90162" lon="0.10272">
        <ele>1484.69</ele>
        <time>2019-02-26T14:58:09Z</time>
      </trkpt>
      <trkpt lat="42.90169" lon="0.1026">
        <ele>1483.93</ele>
        <time>2019-02-26T14:58:19Z</time>
      </trkpt>
      <trkpt lat="42.90177" lon="0.1025">
        <ele>1482.66</ele>
        <time>2019-02-26T14:58:29Z</time>
      </trkpt>
      <trkpt lat="42.90185" lon="0.1024">
        <ele>1481.9</ele>
        <time>2019-02-26T14:58:39Z</time>
      </trkpt>
      <trkpt lat="42.90193" lon="0.10232">
        <ele>1480.62</ele>
        <time>2019-02-26T14:58:49Z</time>
      </trkpt>
      <trkpt lat="42.90199" lon="0.10223">
        <ele>1480.3</ele>
        <time>2019-02-26T14:58:59Z</time>
      </trkpt>
      <trkpt lat="42.90208" lon="0.10214">
        <ele>1479.23</ele>
        <time>2019-02-26T14:59:09Z</time>
      </trkpt>
      <trkpt lat="42.90214" lon="0.10205">
        <ele>1477.86</ele>
        <time>2019-02-26T14:59:19Z</time>
      </trkpt>
      <trkpt lat="42.90222" lon="0.10194">
        <ele>1477.26</ele>
        <time>2019-02-26T14:59:29Z</time>
      </trkpt>
      <trkpt lat="42.90229" lon="0.10184">
        <ele>1476.24</ele>
        <time>2019-02-26T14:59:39Z</time>
      </trkpt>
      <trkpt lat="42.90235" lon="0.10172">
        <ele>1475.75</ele>
        <time>2019-02-26T14:59:49Z</time>
      </trkpt>
      <trkpt lat="42.90241" lon="0.10163">
        <ele>1474.95</ele>
        <time>2019-02-26T14:59:59Z</time>
      </trkpt>
      <trkpt lat="42.90248" lon="0.10152">
        <ele>1473.13</ele>
        <time>2019-02-26T15:00:09Z</time>
      </trkpt>
      <trkpt lat="42.90253" lon="0.10141">
        <ele>1472.68</ele>
        <time>2019-02-26T15:00:19Z</time>
      </trkpt>
      <trkpt lat="42.90259" lon="0.10131">
        <ele>1470.92</ele>
        <time>2019-02-26T15:00:29Z</time>
      </trkpt>
      <trkpt lat="42.90266" lon="0.10121">
        <ele>1470.01</ele>
        <time>2019-02-26T15:00:39Z</time>
      </trkpt>
      <trkpt lat="42.90275" lon="0.10111">
        <ele>1469.18</ele>
        <time>2019-02-26T15:00:49Z</time>
      </trkpt>
      <trkpt lat="42.90281" lon="0.10099">
        <ele>1468.36</ele>
        <time>2019-02-26T15:00:59Z</time>
      </trkpt>
      <trkpt lat="42.90286" lon="0.10089">
        <ele>1466.97</ele>
        <time>2019-02-26T15:01:09Z</time>
      </trkpt>
      <trkpt lat="42.90292" lon="0.10077">
        <ele>1465.55</ele>
        <time>2019-02-26T15:01:19Z</time>
      </trkpt>
      <trkpt lat="42.903" lon="0.10067">
        <ele>1464.92</ele>
        <time>2019-02-26T15:01:29Z</time>
      </trkpt>
      <trkpt lat="42.90308" lon="0.10054">
        <ele>1463.86</ele>
        <time>2019-02-26T15:01:39Z</time>
      </trkpt>
      <trkpt lat="42.90315" lon="0.10043">
        <ele>1463.15</ele>
        <time>2019-02-26T15:01:49Z</time>
      </trkpt>
      <trkpt lat="42.90321" lon="0.10033">
        <ele>1462.18</ele>
        <time>2019-02-26T15:01:59Z</time>
      </trkpt>
      <trkpt lat="42.90327" lon="0.10023">
        <ele>1461.63</ele>
        <time>2019-02-26T15:02:09Z</time>
      </trkpt>
      <trkpt lat="42.90333" lon="0.10013">
        <ele>1460.57</ele>
        <time>2019-02-26T15:02:19Z</time>
      </trkpt>
      <trkpt lat="42.90338" lon="0.1001">
        <ele>1459.46</ele>
        <time>2019-02-26T15:02:29Z</time>
      </trkpt>
      <trkpt lat="42.90339" lon="0.10014">
        <ele>1459.47</ele>
        <time>2019-02-26T15:02:39Z</time>
      </trkpt>
      <trkpt lat="42.90339" lon="0.10027">
        <ele>1457.77</ele>
        <time>2019-02-26T15:02:49Z</time>
      </trkpt>
      <trkpt lat="42.90334" lon="0.10041">
        <ele>1457.11</ele>
        <time>2019-02-26T15:02:59Z</time>
      </trkpt>
      <trkpt lat="42.90329" lon="0.10054">
        <ele>1456.86</ele>
        <time>2019-02-26T15:03:09Z</time>
      </trkpt>
      <trkpt lat="42.90324" lon="0.10065">
        <ele>1456.95</ele>
        <time>2019-02-26T15:03:19Z</time>
      </trkpt>
      <trkpt lat="42.90318" lon="0.10076">
        <ele>1456.69</ele>
        <time>2019-02-26T15:03:29Z</time>
      </trkpt>
      <trkpt lat="42.90317" lon="0.10089">
        <ele>1456.59</ele>
        <time>2019-02-26T15:03:39Z</time>
      </trkpt>
      <trkpt lat="42.90319" lon="0.10097">
        <ele>1456.55</ele>
        <time>2019-02-26T15:03:49Z</time>
      </trkpt>
      <trkpt lat="42.90321" lon="0.10106">
        <ele>1456.62</ele>
        <time>2019-02-26T15:03:59Z</time>
      </trkpt>
      <trkpt lat="42.90326" lon="0.10109">
        <ele>1455.69</ele>
        <time>2019-02-26T15:04:09Z</time>
      </trkpt>
      <trkpt lat="42.90325" lon="0.10108">
        <ele>1456.34</ele>
        <time>2019-02-26T15:04:19Z</time>
      </trkpt>
      <trkpt lat="42.90324" lon="0.10107">
        <ele>1456.12</ele>
        <time>2019-02-26T15:04:29Z</time>
      </trkpt>
      <trkpt lat="42.90322" lon="0.10106">
        <ele>1455.92</ele>
        <time>2019-02-26T15:04:39Z</time>
      </trkpt>
      <trkpt lat="42.90325" lon="0.10105">
        <ele>1455.85</ele>
        <time>2019-02-26T15:04:49Z</time>
      </trkpt>
      <trkpt lat="42.90327" lon="0.10105">
        <ele>1456.02</ele>
        <time>2019-02-26T15:04:59Z</time>
      </trkpt>
      <trkpt lat="42.90332" lon="0.101">
        <ele>1455.52</ele>
        <time>2019-02-26T15:05:09Z</time>
      </trkpt>
      <trkpt lat="42.90338" lon="0.10095">
        <ele>1455.26</ele>
        <time>2019-02-26T15:05:19Z</time>
      </trkpt>
      <trkpt lat="42.90339" lon="0.10085">
        <ele>1454.34</ele>
        <time>2019-02-26T15:05:29Z</time>
      </trkpt>
      <trkpt lat="42.90341" lon="0.10074">
        <ele>1453.72</ele>
        <time>2019-02-26T15:05:39Z</time>
      </trkpt>
      <trkpt lat="42.90344" lon="0.10064">
        <ele>1453</ele>
        <time>2019-02-26T15:05:49Z</time>
      </trkpt>
      <trkpt lat="42.90348" lon="0.10054">
        <ele>1452.25</ele>
        <time>2019-02-26T15:05:59Z</time>
      </trkpt>
      <trkpt lat="42.90354" lon="0.10045">
        <ele>1451.63</ele>
        <time>2019-02-26T15:06:09Z</time>
      </trkpt>
      <trkpt lat="42.90356" lon="0.10034">
        <ele>1450.91</ele>
        <time>2019-02-26T15:06:19Z</time>
      </trkpt>
    </trkseg>
  </trk>
</gpx>